Wetterdaten: Dienstag, 23.08.2016
Datum Zeit Temp. A. Temp. A. max Feuchte A. Luftdruck Regen Wind Richtung Richtung Sonnenschein ET UV Solar Taupunkt Windben
23.08.2016 00:00 11,0 C 11,0 C 89 % 1028,6 hPa 0,0 mm 0,0 km/h (0 Bft) W 281 0 min 0,000 mm 0,0 UV-I 0 W/m 9,3 C 0,0 km/h (0 Bft)
23.08.2016 00:01 11,0 C 11,0 C 89 % 1028,7 hPa 0,0 mm 0,1 km/h (0 Bft) W 281 0 min 0,000 mm 0,0 UV-I 0 W/m 9,3 C 1,6 km/h (1 Bft)
23.08.2016 00:02 10,9 C 11,0 C 89 % 1028,6 hPa 0,0 mm 0,4 km/h (0 Bft) W 281 0 min 0,000 mm 0,0 UV-I 0 W/m 9,2 C 1,6 km/h (1 Bft)
23.08.2016 00:03 10,9 C 10,9 C 89 % 1028,6 hPa 0,0 mm 0,0 km/h (0 Bft) W 281 0 min 0,000 mm 0,0 UV-I 0 W/m 9,2 C 0,0 km/h (0 Bft)
23.08.2016 00:04 10,9 C 10,9 C 90 % 1028,6 hPa 0,0 mm 0,1 km/h (0 Bft) W 281 0 min 0,000 mm 0,0 UV-I 0 W/m 9,3 C 1,6 km/h (1 Bft)
23.08.2016 00:05 10,9 C 10,9 C 90 % 1028,6 hPa 0,0 mm 0,0 km/h (0 Bft) W 281 0 min 0,000 mm 0,0 UV-I 0 W/m 9,3 C 0,0 km/h (0 Bft)
23.08.2016 00:06 10,9 C 10,9 C 90 % 1028,6 hPa 0,0 mm 0,0 km/h (0 Bft) W 281 0 min 0,000 mm 0,0 UV-I 0 W/m 9,3 C 0,0 km/h (0 Bft)
23.08.2016 00:07 10,8 C 10,9 C 90 % 1028,6 hPa 0,0 mm 0,0 km/h (0 Bft) W 281 0 min 0,000 mm 0,0 UV-I 0 W/m 9,2 C 0,0 km/h (0 Bft)
23.08.2016 00:08 10,8 C 10,8 C 90 % 1028,6 hPa 0,0 mm 0,0 km/h (0 Bft) W 281 0 min 0,000 mm 0,0 UV-I 0 W/m 9,2 C 0,0 km/h (0 Bft)
23.08.2016 00:09 10,8 C 10,8 C 90 % 1028,6 hPa 0,0 mm 0,0 km/h (0 Bft) W 281 0 min 0,000 mm 0,0 UV-I 0 W/m 9,2 C 0,0 km/h (0 Bft)
23.08.2016 00:10 10,8 C 10,8 C 90 % 1028,6 hPa 0,0 mm 0,0 km/h (0 Bft) W 281 0 min 0,000 mm 0,0 UV-I 0 W/m 9,2 C 0,0 km/h (0 Bft)
23.08.2016 00:11 10,8 C 10,8 C 90 % 1028,6 hPa 0,0 mm 1,8 km/h (1 Bft) W 281 0 min 0,000 mm 0,0 UV-I 0 W/m 9,2 C 3,2 km/h (1 Bft)
23.08.2016 00:12 10,7 C 10,8 C 90 % 1028,6 hPa 0,0 mm 2,0 km/h (1 Bft) W 281 0 min 0,000 mm 0,0 UV-I 0 W/m 9,1 C 3,2 km/h (1 Bft)
23.08.2016 00:13 10,8 C 10,8 C 90 % 1028,5 hPa 0,0 mm 0,9 km/h (0 Bft) W 281 0 min 0,000 mm 0,0 UV-I 0 W/m 9,2 C 3,2 km/h (1 Bft)
23.08.2016 00:14 10,8 C 10,8 C 90 % 1028,6 hPa 0,0 mm 0,1 km/h (0 Bft) W 281 0 min 0,000 mm 0,0 UV-I 0 W/m 9,2 C 1,6 km/h (1 Bft)
23.08.2016 00:15 10,8 C 10,8 C 90 % 1028,5 hPa 0,0 mm 0,2 km/h (0 Bft) W 281 0 min 0,000 mm 0,0 UV-I 0 W/m 9,2 C 1,6 km/h (1 Bft)
23.08.2016 00:16 10,8 C 10,8 C 90 % 1028,5 hPa 0,0 mm 0,5 km/h (0 Bft) W 281 0 min 0,000 mm 0,0 UV-I 0 W/m 9,2 C 1,6 km/h (1 Bft)
23.08.2016 00:17 10,8 C 10,8 C 89 % 1028,5 hPa 0,0 mm 0,1 km/h (0 Bft) W 281 0 min 0,000 mm 0,0 UV-I 0 W/m 9,1 C 1,6 km/h (1 Bft)
23.08.2016 00:18 10,8 C 10,8 C 89 % 1028,5 hPa 0,0 mm 0,1 km/h (0 Bft) W 281 0 min 0,000 mm 0,0 UV-I 0 W/m 9,1 C 1,6 km/h (1 Bft)
23.08.2016 00:19 10,8 C 10,8 C 89 % 1028,5 hPa 0,0 mm 0,1 km/h (0 Bft) W 281 0 min 0,000 mm 0,0 UV-I 0 W/m 9,1 C 1,6 km/h (1 Bft)
23.08.2016 00:20 10,7 C 10,8 C 90 % 1028,6 hPa 0,0 mm 1,5 km/h (1 Bft) N-NW 329 0 min 0,000 mm 0,0 UV-I 0 W/m 9,1 C 3,2 km/h (1 Bft)
23.08.2016 00:21 10,7 C 10,8 C 90 % 1028,6 hPa 0,0 mm 0,1 km/h (0 Bft) N-NW 329 0 min 0,000 mm 0,0 UV-I 0 W/m 9,1 C 1,6 km/h (1 Bft)
23.08.2016 00:22 10,7 C 10,7 C 90 % 1028,5 hPa 0,0 mm 0,0 km/h (0 Bft) N-NW 329 0 min 0,000 mm 0,0 UV-I 0 W/m 9,1 C 0,0 km/h (0 Bft)
23.08.2016 00:23 10,7 C 10,7 C 90 % 1028,6 hPa 0,0 mm 1,6 km/h (1 Bft) W-NW 288 0 min 0,000 mm 0,0 UV-I 0 W/m 9,1 C 4,8 km/h (1 Bft)
23.08.2016 00:24 10,7 C 10,7 C 90 % 1028,6 hPa 0,0 mm 0,4 km/h (0 Bft) W-NW 288 0 min 0,000 mm 0,0 UV-I 0 W/m 9,1 C 1,6 km/h (1 Bft)
23.08.2016 00:25 10,7 C 10,7 C 90 % 1028,6 hPa 0,0 mm 0,1 km/h (0 Bft) W-NW 288 0 min 0,000 mm 0,0 UV-I 0 W/m 9,1 C 1,6 km/h (1 Bft)
23.08.2016 00:26 10,6 C 10,7 C 90 % 1028,6 hPa 0,0 mm 1,0 km/h (0 Bft) W-NW 290 0 min 0,000 mm 0,0 UV-I 0 W/m 9,0 C 1,6 km/h (1 Bft)
23.08.2016 00:27 10,6 C 10,6 C 91 % 1028,6 hPa 0,0 mm 0,9 km/h (0 Bft) W-NW 290 0 min 0,000 mm 0,0 UV-I 0 W/m 9,2 C 1,6 km/h (1 Bft)
23.08.2016 00:28 10,6 C 10,6 C 90 % 1028,5 hPa 0,0 mm 0,0 km/h (0 Bft) W-NW 290 0 min 0,000 mm 0,0 UV-I 0 W/m 9,0 C 0,0 km/h (0 Bft)
23.08.2016 00:29 10,6 C 10,6 C 90 % 1028,5 hPa 0,0 mm 0,0 km/h (0 Bft) W-NW 290 0 min 0,000 mm 0,0 UV-I 0 W/m 9,0 C 0,0 km/h (0 Bft)
23.08.2016 00:30 10,6 C 10,6 C 90 % 1028,5 hPa 0,0 mm 0,0 km/h (0 Bft) W-NW 290 0 min 0,000 mm 0,0 UV-I 0 W/m 9,0 C 0,0 km/h (0 Bft)
23.08.2016 00:31 10,6 C 10,6 C 90 % 1028,5 hPa 0,0 mm 0,0 km/h (0 Bft) W-NW 290 0 min 0,000 mm 0,0 UV-I 0 W/m 9,0 C 0,0 km/h (0 Bft)
23.08.2016 00:32 10,6 C 10,6 C 90 % 1028,4 hPa 0,0 mm 0,0 km/h (0 Bft) W-NW 290 0 min 0,000 mm 0,0 UV-I 0 W/m 9,0 C 0,0 km/h (0 Bft)
23.08.2016 00:33 10,6 C 10,6 C 90 % 1028,4 hPa 0,0 mm 0,0 km/h (0 Bft) W-NW 290 0 min 0,000 mm 0,0 UV-I 0 W/m 9,0 C 0,0 km/h (0 Bft)
23.08.2016 00:34 10,6 C 10,7 C 90 % 1028,5 hPa 0,0 mm 0,6 km/h (0 Bft) W-NW 290 0 min 0,000 mm 0,0 UV-I 0 W/m 9,0 C 3,2 km/h (1 Bft)
23.08.2016 00:35 10,7 C 10,7 C 90 % 1028,4 hPa 0,0 mm 0,5 km/h (0 Bft) W-NW 290 0 min 0,000 mm 0,0 UV-I 0 W/m 9,1 C 1,6 km/h (1 Bft)
23.08.2016 00:36 10,7 C 10,7 C 90 % 1028,4 hPa 0,0 mm 0,0 km/h (0 Bft) W-NW 290 0 min 0,000 mm 0,0 UV-I 0 W/m 9,1 C 0,0 km/h (0 Bft)
23.08.2016 00:37 10,7 C 10,7 C 89 % 1028,4 hPa 0,0 mm 0,3 km/h (0 Bft) W-NW 289 0 min 0,000 mm 0,0 UV-I 0 W/m 9,0 C 1,6 km/h (1 Bft)
23.08.2016 00:38 10,7 C 10,7 C 89 % 1028,4 hPa 0,0 mm 0,1 km/h (0 Bft) W-NW 290 0 min 0,000 mm 0,0 UV-I 0 W/m 9,0 C 1,6 km/h (1 Bft)
23.08.2016 00:39 10,7 C 10,7 C 89 % 1028,4 hPa 0,0 mm 0,2 km/h (0 Bft) W-NW 290 0 min 0,000 mm 0,0 UV-I 0 W/m 9,0 C 1,6 km/h (1 Bft)
23.08.2016 00:40 10,7 C 10,7 C 89 % 1028,5 hPa 0,0 mm 1,3 km/h (1 Bft) W-NW 290 0 min 0,000 mm 0,0 UV-I 0 W/m 9,0 C 3,2 km/h (1 Bft)
23.08.2016 00:41 10,7 C 10,7 C 89 % 1028,5 hPa 0,0 mm 1,0 km/h (0 Bft) W-NW 289 0 min 0,000 mm 0,0 UV-I 0 W/m 9,0 C 3,2 km/h (1 Bft)
23.08.2016 00:42 10,8 C 10,8 C 89 % 1028,5 hPa 0,0 mm 1,1 km/h (1 Bft) W-NW 289 0 min 0,000 mm 0,0 UV-I 0 W/m 9,1 C 1,6 km/h (1 Bft)
23.08.2016 00:43 10,8 C 10,8 C 89 % 1028,4 hPa 0,0 mm 0,2 km/h (0 Bft) W-NW 289 0 min 0,000 mm 0,0 UV-I 0 W/m 9,1 C 1,6 km/h (1 Bft)
23.08.2016 00:44 10,8 C 10,8 C 89 % 1028,4 hPa 0,0 mm 0,5 km/h (0 Bft) W-NW 289 0 min 0,000 mm 0,0 UV-I 0 W/m 9,1 C 1,6 km/h (1 Bft)
23.08.2016 00:45 10,8 C 10,8 C 89 % 1028,5 hPa 0,0 mm 0,1 km/h (0 Bft) W-NW 289 0 min 0,000 mm 0,0 UV-I 0 W/m 9,1 C 1,6 km/h (1 Bft)
23.08.2016 00:46 10,8 C 10,8 C 89 % 1028,5 hPa 0,0 mm 0,1 km/h (0 Bft) W-NW 289 0 min 0,000 mm 0,0 UV-I 0 W/m 9,1 C 1,6 km/h (1 Bft)
23.08.2016 00:47 10,8 C 10,8 C 89 % 1028,5 hPa 0,0 mm 0,3 km/h (0 Bft) W-NW 289 0 min 0,000 mm 0,0 UV-I 0 W/m 9,1 C 1,6 km/h (1 Bft)
23.08.2016 00:48 10,7 C 10,8 C 89 % 1028,5 hPa 0,0 mm 0,3 km/h (0 Bft) W-NW 289 0 min 0,000 mm 0,0 UV-I 0 W/m 9,0 C 1,6 km/h (1 Bft)
23.08.2016 00:49 10,7 C 10,7 C 89 % 1028,5 hPa 0,0 mm 0,0 km/h (0 Bft) W-NW 289 0 min 0,000 mm 0,0 UV-I 0 W/m 9,0 C 0,0 km/h (0 Bft)
23.08.2016 00:50 10,7 C 10,7 C 89 % 1028,5 hPa 0,0 mm 0,3 km/h (0 Bft) W-NW 289 0 min 0,000 mm 0,0 UV-I 0 W/m 9,0 C 1,6 km/h (1 Bft)
23.08.2016 00:51 10,7 C 10,7 C 90 % 1028,4 hPa 0,0 mm 3,1 km/h (1 Bft) S-SW 193 0 min 0,000 mm 0,0 UV-I 0 W/m 9,1 C 4,8 km/h (1 Bft)
23.08.2016 00:52 10,7 C 10,7 C 91 % 1028,5 hPa 0,0 mm 2,3 km/h (1 Bft) SW 224 0 min 0,000 mm 0,0 UV-I 0 W/m 9,3 C 3,2 km/h (1 Bft)
23.08.2016 00:53 10,7 C 10,7 C 91 % 1028,5 hPa 0,0 mm 1,1 km/h (1 Bft) SW 224 0 min 0,000 mm 0,0 UV-I 0 W/m 9,3 C 1,6 km/h (1 Bft)
23.08.2016 00:54 10,7 C 10,7 C 90 % 1028,5 hPa 0,0 mm 0,4 km/h (0 Bft) SW 224 0 min 0,000 mm 0,0 UV-I 0 W/m 9,1 C 1,6 km/h (1 Bft)
23.08.2016 00:55 10,6 C 10,7 C 90 % 1028,5 hPa 0,0 mm 0,0 km/h (0 Bft) SW 224 0 min 0,000 mm 0,0 UV-I 0 W/m 9,0 C 0,0 km/h (0 Bft)
23.08.2016 00:56 10,6 C 10,6 C 90 % 1028,5 hPa 0,0 mm 0,1 km/h (0 Bft) SW 224 0 min 0,000 mm 0,0 UV-I 0 W/m 9,0 C 1,6 km/h (1 Bft)
23.08.2016 00:57 10,6 C 10,6 C 90 % 1028,5 hPa 0,0 mm 0,0 km/h (0 Bft) SW 224 0 min 0,000 mm 0,0 UV-I 0 W/m 9,0 C 0,0 km/h (0 Bft)
23.08.2016 00:58 10,6 C 10,6 C 90 % 1028,5 hPa 0,0 mm 0,9 km/h (0 Bft) SW 224 0 min 0,000 mm 0,0 UV-I 0 W/m 9,0 C 1,6 km/h (1 Bft)
23.08.2016 00:59 10,6 C 10,6 C 90 % 1028,5 hPa 0,0 mm 0,1 km/h (0 Bft) SW 224 0 min 0,000 mm 0,0 UV-I 0 W/m 9,0 C 1,6 km/h (1 Bft)
23.08.2016 01:00 10,6 C 10,6 C 91 % 1028,5 hPa 0,0 mm 0,0 km/h (0 Bft) SW 224 0 min 0,000 mm 0,0 UV-I 0 W/m 9,2 C 0,0 km/h (0 Bft)
23.08.2016 01:01 10,6 C 10,6 C 91 % 1028,5 hPa 0,0 mm 0,0 km/h (0 Bft) SW 224 0 min 0,000 mm 0,0 UV-I 0 W/m 9,2 C 0,0 km/h (0 Bft)
23.08.2016 01:02 10,6 C 10,6 C 91 % 1028,5 hPa 0,0 mm 0,0 km/h (0 Bft) SW 224 0 min 0,000 mm 0,0 UV-I 0 W/m 9,2 C 0,0 km/h (0 Bft)
23.08.2016 01:03 10,6 C 10,6 C 90 % 1028,6 hPa 0,0 mm 0,0 km/h (0 Bft) SW 224 0 min 0,000 mm 0,0 UV-I 0 W/m 9,0 C 0,0 km/h (0 Bft)
23.08.2016 01:04 10,6 C 10,6 C 90 % 1028,6 hPa 0,0 mm 0,0 km/h (0 Bft) SW 224 0 min 0,000 mm 0,0 UV-I 0 W/m 9,0 C 0,0 km/h (0 Bft)
23.08.2016 01:05 10,6 C 10,6 C 90 % 1028,5 hPa 0,0 mm 1,3 km/h (1 Bft) SW 224 0 min 0,000 mm 0,0 UV-I 0 W/m 9,0 C 1,6 km/h (1 Bft)
23.08.2016 01:06 10,6 C 10,6 C 90 % 1028,5 hPa 0,0 mm 1,0 km/h (0 Bft) SW 224 0 min 0,000 mm 0,0 UV-I 0 W/m 9,0 C 1,6 km/h (1 Bft)
23.08.2016 01:07 10,5 C 10,6 C 90 % 1028,6 hPa 0,0 mm 0,3 km/h (0 Bft) SW 224 0 min 0,000 mm 0,0 UV-I 0 W/m 8,9 C 1,6 km/h (1 Bft)
23.08.2016 01:08 10,5 C 10,5 C 90 % 1028,5 hPa 0,0 mm 0,0 km/h (0 Bft) SW 224 0 min 0,000 mm 0,0 UV-I 0 W/m 8,9 C 0,0 km/h (0 Bft)
23.08.2016 01:09 10,5 C 10,5 C 90 % 1028,5 hPa 0,0 mm 0,4 km/h (0 Bft) SW 224 0 min 0,000 mm 0,0 UV-I 0 W/m 8,9 C 1,6 km/h (1 Bft)
23.08.2016 01:10 10,4 C 10,5 C 90 % 1028,5 hPa 0,0 mm 0,0 km/h (0 Bft) SW 224 0 min 0,000 mm 0,0 UV-I 0 W/m 8,8 C 0,0 km/h (0 Bft)
23.08.2016 01:11 10,5 C 10,5 C 90 % 1028,6 hPa 0,0 mm 0,3 km/h (0 Bft) SW 224 0 min 0,000 mm 0,0 UV-I 0 W/m 8,9 C 1,6 km/h (1 Bft)
23.08.2016 01:12 10,5 C 10,5 C 90 % 1028,6 hPa 0,0 mm 0,2 km/h (0 Bft) SW 224 0 min 0,000 mm 0,0 UV-I 0 W/m 8,9 C 1,6 km/h (1 Bft)
23.08.2016 01:13 10,4 C 10,5 C 90 % 1028,6 hPa 0,0 mm 0,6 km/h (0 Bft) SW 224 0 min 0,000 mm 0,0 UV-I 0 W/m 8,8 C 1,6 km/h (1 Bft)
23.08.2016 01:14 10,4 C 10,4 C 89 % 1028,6 hPa 0,0 mm 0,2 km/h (0 Bft) SW 224 0 min 0,000 mm 0,0 UV-I 0 W/m 8,7 C 1,6 km/h (1 Bft)
23.08.2016 01:15 10,4 C 10,4 C 89 % 1028,6 hPa 0,0 mm 0,0 km/h (0 Bft) SW 224 0 min 0,000 mm 0,0 UV-I 0 W/m 8,7 C 0,0 km/h (0 Bft)
23.08.2016 01:16 10,3 C 10,4 C 90 % 1028,6 hPa 0,0 mm 0,2 km/h (0 Bft) SW 224 0 min 0,000 mm 0,0 UV-I 0 W/m 8,7 C 1,6 km/h (1 Bft)
23.08.2016 01:17 10,3 C 10,3 C 90 % 1028,6 hPa 0,0 mm 0,8 km/h (0 Bft) SW 224 0 min 0,000 mm 0,0 UV-I 0 W/m 8,7 C 1,6 km/h (1 Bft)
23.08.2016 01:18 10,3 C 10,3 C 89 % 1028,6 hPa 0,0 mm 0,1 km/h (0 Bft) SW 224 0 min 0,000 mm 0,0 UV-I 0 W/m 8,6 C 1,6 km/h (1 Bft)
23.08.2016 01:19 10,3 C 10,3 C 90 % 1028,6 hPa 0,0 mm 0,0 km/h (0 Bft) SW 224 0 min 0,000 mm 0,0 UV-I 0 W/m 8,7 C 0,0 km/h (0 Bft)
23.08.2016 01:20 10,3 C 10,3 C 90 % 1028,6 hPa 0,0 mm 0,4 km/h (0 Bft) SW 224 0 min 0,000 mm 0,0 UV-I 0 W/m 8,7 C 1,6 km/h (1 Bft)
23.08.2016 01:21 10,2 C 10,3 C 90 % 1028,6 hPa 0,0 mm 0,1 km/h (0 Bft) SW 224 0 min 0,000 mm 0,0 UV-I 0 W/m 8,6 C 1,6 km/h (1 Bft)
23.08.2016 01:22 10,2 C 10,2 C 90 % 1028,6 hPa 0,0 mm 0,0 km/h (0 Bft) SW 224 0 min 0,000 mm 0,0 UV-I 0 W/m 8,6 C 0,0 km/h (0 Bft)
23.08.2016 01:23 10,1 C 10,2 C 90 % 1028,5 hPa 0,0 mm 0,0 km/h (0 Bft) SW 224 0 min 0,000 mm 0,0 UV-I 0 W/m 8,5 C 0,0 km/h (0 Bft)
23.08.2016 01:24 10,1 C 10,2 C 90 % 1028,6 hPa 0,0 mm 0,0 km/h (0 Bft) SW 224 0 min 0,000 mm 0,0 UV-I 0 W/m 8,5 C 0,0 km/h (0 Bft)
23.08.2016 01:25 10,1 C 10,1 C 90 % 1028,5 hPa 0,0 mm 0,2 km/h (0 Bft) SW 224 0 min 0,000 mm 0,0 UV-I 0 W/m 8,5 C 1,6 km/h (1 Bft)
23.08.2016 01:26 10,1 C 10,1 C 90 % 1028,5 hPa 0,0 mm 0,0 km/h (0 Bft) SW 224 0 min 0,000 mm 0,0 UV-I 0 W/m 8,5 C 0,0 km/h (0 Bft)
23.08.2016 01:27 10,1 C 10,1 C 91 % 1028,5 hPa 0,0 mm 1,7 km/h (1 Bft) SW 224 0 min 0,000 mm 0,0 UV-I 0 W/m 8,7 C 3,2 km/h (1 Bft)
23.08.2016 01:28 10,1 C 10,1 C 91 % 1028,5 hPa 0,0 mm 1,1 km/h (1 Bft) SW 225 0 min 0,000 mm 0,0 UV-I 0 W/m 8,7 C 3,2 km/h (1 Bft)
23.08.2016 01:29 10,1 C 10,1 C 91 % 1028,5 hPa 0,0 mm 0,1 km/h (0 Bft) SW 225 0 min 0,000 mm 0,0 UV-I 0 W/m 8,7 C 1,6 km/h (1 Bft)
23.08.2016 01:30 10,0 C 10,1 C 91 % 1028,6 hPa 0,0 mm 1,5 km/h (1 Bft) W 267 0 min 0,000 mm 0,0 UV-I 0 W/m 8,6 C 3,2 km/h (1 Bft)
23.08.2016 01:31 9,9 C 10,0 C 90 % 1028,6 hPa 0,0 mm 0,5 km/h (0 Bft) W 267 0 min 0,000 mm 0,0 UV-I 0 W/m 8,3 C 1,6 km/h (1 Bft)
23.08.2016 01:32 9,9 C 9,9 C 90 % 1028,5 hPa 0,0 mm 0,7 km/h (0 Bft) W 267 0 min 0,000 mm 0,0 UV-I 0 W/m 8,3 C 3,2 km/h (1 Bft)
23.08.2016 01:33 9,8 C 9,9 C 91 % 1028,5 hPa 0,0 mm 1,7 km/h (1 Bft) W 270 0 min 0,000 mm 0,0 UV-I 0 W/m 8,4 C 3,2 km/h (1 Bft)
23.08.2016 01:34 9,8 C 9,8 C 91 % 1028,5 hPa 0,0 mm 0,1 km/h (0 Bft) W 270 0 min 0,000 mm 0,0 UV-I 0 W/m 8,4 C 1,6 km/h (1 Bft)
23.08.2016 01:35 9,8 C 9,8 C 91 % 1028,5 hPa 0,0 mm 0,0 km/h (0 Bft) W 270 0 min 0,000 mm 0,0 UV-I 0 W/m 8,4 C 0,0 km/h (0 Bft)
23.08.2016 01:36 9,8 C 9,8 C 91 % 1028,4 hPa 0,0 mm 0,1 km/h (0 Bft) W 270 0 min 0,000 mm 0,0 UV-I 0 W/m 8,4 C 1,6 km/h (1 Bft)
23.08.2016 01:37 9,9 C 9,9 C 91 % 1028,5 hPa 0,0 mm 0,0 km/h (0 Bft) W 270 0 min 0,000 mm 0,0 UV-I 0 W/m 8,5 C 0,0 km/h (0 Bft)
23.08.2016 01:38 9,8 C 9,9 C 90 % 1028,5 hPa 0,0 mm 0,0 km/h (0 Bft) W 270 0 min 0,000 mm 0,0 UV-I 0 W/m 8,2 C 0,0 km/h (0 Bft)
23.08.2016 01:39 9,8 C 9,8 C 91 % 1028,5 hPa 0,0 mm 0,0 km/h (0 Bft) W 270 0 min 0,000 mm 0,0 UV-I 0 W/m 8,4 C 0,0 km/h (0 Bft)
23.08.2016 01:40 9,8 C 9,8 C 91 % 1028,5 hPa 0,0 mm 0,0 km/h (0 Bft) W 270 0 min 0,000 mm 0,0 UV-I 0 W/m 8,4 C 0,0 km/h (0 Bft)
23.08.2016 01:41 9,8 C 9,8 C 91 % 1028,5 hPa 0,0 mm 0,0 km/h (0 Bft) W 270 0 min 0,000 mm 0,0 UV-I 0 W/m 8,4 C 0,0 km/h (0 Bft)
23.08.2016 01:42 9,8 C 9,8 C 91 % 1028,5 hPa 0,0 mm 0,0 km/h (0 Bft) W 270 0 min 0,000 mm 0,0 UV-I 0 W/m 8,4 C 0,0 km/h (0 Bft)
23.08.2016 01:43 9,7 C 9,8 C 91 % 1028,6 hPa 0,0 mm 0,0 km/h (0 Bft) W 270 0 min 0,000 mm 0,0 UV-I 0 W/m 8,3 C 0,0 km/h (0 Bft)
23.08.2016 01:44 9,8 C 9,8 C 92 % 1028,6 hPa 0,0 mm 0,0 km/h (0 Bft) W 270 0 min 0,000 mm 0,0 UV-I 0 W/m 8,6 C 0,0 km/h (0 Bft)
23.08.2016 01:45 9,8 C 9,8 C 91 % 1028,6 hPa 0,0 mm 0,0 km/h (0 Bft) W 270 0 min 0,000 mm 0,0 UV-I 0 W/m 8,4 C 0,0 km/h (0 Bft)
23.08.2016 01:46 9,8 C 9,8 C 91 % 1028,5 hPa 0,0 mm 0,0 km/h (0 Bft) W 270 0 min 0,000 mm 0,0 UV-I 0 W/m 8,4 C 0,0 km/h (0 Bft)
23.08.2016 01:47 9,8 C 9,8 C 91 % 1028,5 hPa 0,0 mm 0,0 km/h (0 Bft) W 270 0 min 0,000 mm 0,0 UV-I 0 W/m 8,4 C 0,0 km/h (0 Bft)
23.08.2016 01:48 9,7 C 9,8 C 91 % 1028,5 hPa 0,0 mm 0,0 km/h (0 Bft) W 270 0 min 0,000 mm 0,0 UV-I 0 W/m 8,3 C 0,0 km/h (0 Bft)
23.08.2016 01:49 9,7 C 9,7 C 91 % 1028,5 hPa 0,0 mm 0,0 km/h (0 Bft) W 270 0 min 0,000 mm 0,0 UV-I 0 W/m 8,3 C 0,0 km/h (0 Bft)
23.08.2016 01:50 9,7 C 9,7 C 92 % 1028,5 hPa 0,0 mm 0,0 km/h (0 Bft) W 270 0 min 0,000 mm 0,0 UV-I 0 W/m 8,5 C 0,0 km/h (0 Bft)
23.08.2016 01:51 9,7 C 9,7 C 92 % 1028,5 hPa 0,0 mm 0,0 km/h (0 Bft) W 270 0 min 0,000 mm 0,0 UV-I 0 W/m 8,5 C 0,0 km/h (0 Bft)
23.08.2016 01:52 9,7 C 9,7 C 92 % 1028,4 hPa 0,0 mm 0,0 km/h (0 Bft) W 270 0 min 0,000 mm 0,0 UV-I 0 W/m 8,5 C 0,0 km/h (0 Bft)
23.08.2016 01:53 9,7 C 9,7 C 91 % 1028,4 hPa 0,0 mm 0,0 km/h (0 Bft) W 270 0 min 0,000 mm 0,0 UV-I 0 W/m 8,3 C 0,0 km/h (0 Bft)
23.08.2016 01:54 9,6 C 9,7 C 91 % 1028,4 hPa 0,0 mm 0,0 km/h (0 Bft) W 270 0 min 0,000 mm 0,0 UV-I 0 W/m 8,2 C 0,0 km/h (0 Bft)
23.08.2016 01:55 9,6 C 9,6 C 92 % 1028,4 hPa 0,0 mm 0,0 km/h (0 Bft) W 270 0 min 0,000 mm 0,0 UV-I 0 W/m 8,4 C 0,0 km/h (0 Bft)
23.08.2016 01:56 9,6 C 9,6 C 92 % 1028,4 hPa 0,0 mm 0,0 km/h (0 Bft) W 270 0 min 0,000 mm 0,0 UV-I 0 W/m 8,4 C 0,0 km/h (0 Bft)
23.08.2016 01:57 9,5 C 9,6 C 92 % 1028,3 hPa 0,0 mm 0,0 km/h (0 Bft) W 270 0 min 0,000 mm 0,0 UV-I 0 W/m 8,3 C 0,0 km/h (0 Bft)
23.08.2016 01:58 9,5 C 9,6 C 92 % 1028,4 hPa 0,0 mm 0,0 km/h (0 Bft) W 270 0 min 0,000 mm 0,0 UV-I 0 W/m 8,3 C 0,0 km/h (0 Bft)
23.08.2016 01:59 9,4 C 9,5 C 92 % 1028,4 hPa 0,0 mm 0,0 km/h (0 Bft) W 270 0 min 0,000 mm 0,0 UV-I 0 W/m 8,2 C 0,0 km/h (0 Bft)
23.08.2016 02:00 9,4 C 9,4 C 92 % 1028,4 hPa 0,0 mm 0,0 km/h (0 Bft) W 270 0 min 0,000 mm 0,0 UV-I 0 W/m 8,2 C 0,0 km/h (0 Bft)
23.08.2016 02:01 9,4 C 9,4 C 92 % 1028,4 hPa 0,0 mm 0,0 km/h (0 Bft) W 270 0 min 0,000 mm 0,0 UV-I 0 W/m 8,2 C 0,0 km/h (0 Bft)
23.08.2016 02:02 9,4 C 9,4 C 92 % 1028,4 hPa 0,0 mm 0,0 km/h (0 Bft) W 270 0 min 0,000 mm 0,0 UV-I 0 W/m 8,2 C 0,0 km/h (0 Bft)
23.08.2016 02:03 9,4 C 9,4 C 92 % 1028,5 hPa 0,0 mm 0,0 km/h (0 Bft) W 270 0 min 0,000 mm 0,0 UV-I 0 W/m 8,2 C 0,0 km/h (0 Bft)
23.08.2016 02:04 9,4 C 9,4 C 92 % 1028,5 hPa 0,0 mm 0,0 km/h (0 Bft) W 270 0 min 0,000 mm 0,0 UV-I 0 W/m 8,2 C 0,0 km/h (0 Bft)
23.08.2016 02:05 9,4 C 9,4 C 92 % 1028,5 hPa 0,0 mm 0,0 km/h (0 Bft) W 270 0 min 0,000 mm 0,0 UV-I 0 W/m 8,2 C 0,0 km/h (0 Bft)
23.08.2016 02:06 9,4 C 9,4 C 92 % 1028,4 hPa 0,0 mm 0,0 km/h (0 Bft) W 270 0 min 0,000 mm 0,0 UV-I 0 W/m 8,2 C 0,0 km/h (0 Bft)
23.08.2016 02:07 9,4 C 9,4 C 92 % 1028,4 hPa 0,0 mm 0,0 km/h (0 Bft) W 270 0 min 0,000 mm 0,0 UV-I 0 W/m 8,2 C 0,0 km/h (0 Bft)
23.08.2016 02:08 9,4 C 9,4 C 93 % 1028,4 hPa 0,0 mm 0,0 km/h (0 Bft) W 270 0 min 0,000 mm 0,0 UV-I 0 W/m 8,3 C 0,0 km/h (0 Bft)
23.08.2016 02:09 9,4 C 9,4 C 93 % 1028,4 hPa 0,0 mm 0,0 km/h (0 Bft) W 270 0 min 0,000 mm 0,0 UV-I 0 W/m 8,3 C 0,0 km/h (0 Bft)
23.08.2016 02:10 9,4 C 9,4 C 93 % 1028,4 hPa 0,0 mm 0,0 km/h (0 Bft) W 270 0 min 0,000 mm 0,0 UV-I 0 W/m 8,3 C 0,0 km/h (0 Bft)
23.08.2016 02:11 9,4 C 9,4 C 93 % 1028,4 hPa 0,0 mm 0,0 km/h (0 Bft) W 270 0 min 0,000 mm 0,0 UV-I 0 W/m 8,3 C 0,0 km/h (0 Bft)
23.08.2016 02:12 9,4 C 9,4 C 93 % 1028,4 hPa 0,0 mm 0,0 km/h (0 Bft) W 270 0 min 0,000 mm 0,0 UV-I 0 W/m 8,3 C 0,0 km/h (0 Bft)
23.08.2016 02:13 9,4 C 9,4 C 93 % 1028,4 hPa 0,0 mm 0,0 km/h (0 Bft) W 270 0 min 0,000 mm 0,0 UV-I 0 W/m 8,3 C 0,0 km/h (0 Bft)
23.08.2016 02:14 9,4 C 9,4 C 93 % 1028,4 hPa 0,0 mm 0,0 km/h (0 Bft) W 270 0 min 0,000 mm 0,0 UV-I 0 W/m 8,3 C 0,0 km/h (0 Bft)
23.08.2016 02:15 9,4 C 9,4 C 93 % 1028,4 hPa 0,0 mm 0,0 km/h (0 Bft) W 270 0 min 0,000 mm 0,0 UV-I 0 W/m 8,3 C 0,0 km/h (0 Bft)
23.08.2016 02:16 9,4 C 9,4 C 93 % 1028,4 hPa 0,0 mm 0,0 km/h (0 Bft) W 270 0 min 0,000 mm 0,0 UV-I 0 W/m 8,3 C 0,0 km/h (0 Bft)
23.08.2016 02:17 9,5 C 9,5 C 93 % 1028,4 hPa 0,0 mm 0,0 km/h (0 Bft) W 270 0 min 0,000 mm 0,0 UV-I 0 W/m 8,4 C 0,0 km/h (0 Bft)
23.08.2016 02:18 9,6 C 9,6 C 93 % 1028,4 hPa 0,0 mm 0,0 km/h (0 Bft) W 270 0 min 0,000 mm 0,0 UV-I 0 W/m 8,5 C 0,0 km/h (0 Bft)
23.08.2016 02:19 9,5 C 9,6 C 92 % 1028,4 hPa 0,0 mm 0,0 km/h (0 Bft) W 270 0 min 0,000 mm 0,0 UV-I 0 W/m 8,3 C 0,0 km/h (0 Bft)
23.08.2016 02:20 9,6 C 9,6 C 92 % 1028,4 hPa 0,0 mm 0,0 km/h (0 Bft) W 270 0 min 0,000 mm 0,0 UV-I 0 W/m 8,4 C 0,0 km/h (0 Bft)
23.08.2016 02:21 9,6 C 9,6 C 92 % 1028,4 hPa 0,0 mm 0,0 km/h (0 Bft) W 270 0 min 0,000 mm 0,0 UV-I 0 W/m 8,4 C 0,0 km/h (0 Bft)
23.08.2016 02:22 9,5 C 9,6 C 92 % 1028,4 hPa 0,0 mm 0,0 km/h (0 Bft) W 270 0 min 0,000 mm 0,0 UV-I 0 W/m 8,3 C 0,0 km/h (0 Bft)
23.08.2016 02:23 9,5 C 9,6 C 92 % 1028,4 hPa 0,0 mm 0,0 km/h (0 Bft) W 270 0 min 0,000 mm 0,0 UV-I 0 W/m 8,3 C 0,0 km/h (0 Bft)
23.08.2016 02:24 9,5 C 9,5 C 92 % 1028,3 hPa 0,0 mm 0,0 km/h (0 Bft) W 270 0 min 0,000 mm 0,0 UV-I 0 W/m 8,3 C 0,0 km/h (0 Bft)
23.08.2016 02:25 9,4 C 9,5 C 92 % 1028,3 hPa 0,0 mm 0,0 km/h (0 Bft) W 270 0 min 0,000 mm 0,0 UV-I 0 W/m 8,2 C 0,0 km/h (0 Bft)
23.08.2016 02:26 9,4 C 9,4 C 92 % 1028,3 hPa 0,0 mm 0,0 km/h (0 Bft) W 270 0 min 0,000 mm 0,0 UV-I 0 W/m 8,2 C 0,0 km/h (0 Bft)
23.08.2016 02:27 9,4 C 9,4 C 92 % 1028,3 hPa 0,0 mm 0,0 km/h (0 Bft) W 270 0 min 0,000 mm 0,0 UV-I 0 W/m 8,2 C 0,0 km/h (0 Bft)
23.08.2016 02:28 9,4 C 9,4 C 92 % 1028,3 hPa 0,0 mm 0,0 km/h (0 Bft) W 270 0 min 0,000 mm 0,0 UV-I 0 W/m 8,2 C 0,0 km/h (0 Bft)
23.08.2016 02:29 9,3 C 9,4 C 92 % 1028,2 hPa 0,0 mm 0,0 km/h (0 Bft) W 270 0 min 0,000 mm 0,0 UV-I 0 W/m 8,1 C 0,0 km/h (0 Bft)
23.08.2016 02:30 9,3 C 9,4 C 92 % 1028,2 hPa 0,0 mm 0,0 km/h (0 Bft) W 270 0 min 0,000 mm 0,0 UV-I 0 W/m 8,1 C 0,0 km/h (0 Bft)
23.08.2016 02:31 9,3 C 9,3 C 92 % 1028,2 hPa 0,0 mm 0,0 km/h (0 Bft) W 270 0 min 0,000 mm 0,0 UV-I 0 W/m 8,1 C 0,0 km/h (0 Bft)
23.08.2016 02:32 9,3 C 9,3 C 92 % 1028,2 hPa 0,0 mm 0,0 km/h (0 Bft) W 270 0 min 0,000 mm 0,0 UV-I 0 W/m 8,1 C 0,0 km/h (0 Bft)
23.08.2016 02:33 9,3 C 9,3 C 93 % 1028,2 hPa 0,0 mm 0,0 km/h (0 Bft) W 270 0 min 0,000 mm 0,0 UV-I 0 W/m 8,2 C 0,0 km/h (0 Bft)
23.08.2016 02:34 9,3 C 9,3 C 92 % 1028,2 hPa 0,0 mm 0,0 km/h (0 Bft) W 270 0 min 0,000 mm 0,0 UV-I 0 W/m 8,1 C 0,0 km/h (0 Bft)
23.08.2016 02:35 9,3 C 9,3 C 93 % 1028,2 hPa 0,0 mm 0,0 km/h (0 Bft) W 270 0 min 0,000 mm 0,0 UV-I 0 W/m 8,2 C 0,0 km/h (0 Bft)
23.08.2016 02:36 9,3 C 9,3 C 93 % 1028,2 hPa 0,0 mm 0,0 km/h (0 Bft) W 270 0 min 0,000 mm 0,0 UV-I 0 W/m 8,2 C 0,0 km/h (0 Bft)
23.08.2016 02:37 9,3 C 9,3 C 92 % 1028,2 hPa 0,0 mm 0,0 km/h (0 Bft) W 270 0 min 0,000 mm 0,0 UV-I 0 W/m 8,1 C 0,0 km/h (0 Bft)
23.08.2016 02:38 9,3 C 9,3 C 92 % 1028,2 hPa 0,0 mm 0,0 km/h (0 Bft) W 270 0 min 0,000 mm 0,0 UV-I 0 W/m 8,1 C 0,0 km/h (0 Bft)
23.08.2016 02:39 9,3 C 9,3 C 93 % 1028,1 hPa 0,0 mm 0,0 km/h (0 Bft) W 270 0 min 0,000 mm 0,0 UV-I 0 W/m 8,2 C 0,0 km/h (0 Bft)
23.08.2016 02:40 9,3 C 9,3 C 93 % 1028,1 hPa 0,0 mm 0,0 km/h (0 Bft) W 270 0 min 0,000 mm 0,0 UV-I 0 W/m 8,2 C 0,0 km/h (0 Bft)
23.08.2016 02:41 9,3 C 9,3 C 93 % 1028,2 hPa 0,0 mm 0,0 km/h (0 Bft) W 270 0 min 0,000 mm 0,0 UV-I 0 W/m 8,2 C 0,0 km/h (0 Bft)
23.08.2016 02:42 9,2 C 9,3 C 93 % 1028,2 hPa 0,0 mm 0,0 km/h (0 Bft) W 270 0 min 0,000 mm 0,0 UV-I 0 W/m 8,1 C 0,0 km/h (0 Bft)
23.08.2016 02:43 9,2 C 9,3 C 93 % 1028,2 hPa 0,0 mm 0,0 km/h (0 Bft) W 270 0 min 0,000 mm 0,0 UV-I 0 W/m 8,1 C 0,0 km/h (0 Bft)
23.08.2016 02:44 9,3 C 9,3 C 93 % 1028,1 hPa 0,0 mm 0,0 km/h (0 Bft) W 270 0 min 0,000 mm 0,0 UV-I 0 W/m 8,2 C 0,0 km/h (0 Bft)
23.08.2016 02:45 9,3 C 9,3 C 93 % 1028,1 hPa 0,0 mm 0,0 km/h (0 Bft) W 270 0 min 0,000 mm 0,0 UV-I 0 W/m 8,2 C 0,0 km/h (0 Bft)
23.08.2016 02:46 9,3 C 9,3 C 93 % 1028,1 hPa 0,0 mm 0,0 km/h (0 Bft) W 270 0 min 0,000 mm 0,0 UV-I 0 W/m 8,2 C 0,0 km/h (0 Bft)
23.08.2016 02:47 9,3 C 9,3 C 93 % 1028,1 hPa 0,0 mm 0,0 km/h (0 Bft) W 270 0 min 0,000 mm 0,0 UV-I 0 W/m 8,2 C 0,0 km/h (0 Bft)
23.08.2016 02:48 9,3 C 9,3 C 93 % 1028,1 hPa 0,0 mm 0,0 km/h (0 Bft) W 270 0 min 0,000 mm 0,0 UV-I 0 W/m 8,2 C 0,0 km/h (0 Bft)
23.08.2016 02:49 9,3 C 9,3 C 93 % 1028,1 hPa 0,0 mm 0,0 km/h (0 Bft) W 270 0 min 0,000 mm 0,0 UV-I 0 W/m 8,2 C 0,0 km/h (0 Bft)
23.08.2016 02:50 9,3 C 9,3 C 93 % 1028,1 hPa 0,0 mm 0,0 km/h (0 Bft) W 270 0 min 0,000 mm 0,0 UV-I 0 W/m 8,2 C 0,0 km/h (0 Bft)
23.08.2016 02:51 9,3 C 9,3 C 93 % 1028,1 hPa 0,0 mm 0,0 km/h (0 Bft) W 270 0 min 0,000 mm 0,0 UV-I 0 W/m 8,2 C 0,0 km/h (0 Bft)
23.08.2016 02:52 9,3 C 9,3 C 93 % 1028,1 hPa 0,0 mm 0,0 km/h (0 Bft) W 270 0 min 0,000 mm 0,0 UV-I 0 W/m 8,2 C 0,0 km/h (0 Bft)
23.08.2016 02:53 9,3 C 9,3 C 93 % 1028,0 hPa 0,0 mm 0,0 km/h (0 Bft) W 270 0 min 0,000 mm 0,0 UV-I 0 W/m 8,2 C 0,0 km/h (0 Bft)
23.08.2016 02:54 9,3 C 9,3 C 93 % 1028,0 hPa 0,0 mm 0,0 km/h (0 Bft) W 270 0 min 0,000 mm 0,0 UV-I 0 W/m 8,2 C 0,0 km/h (0 Bft)
23.08.2016 02:55 9,3 C 9,3 C 93 % 1028,0 hPa 0,0 mm 0,0 km/h (0 Bft) W 270 0 min 0,000 mm 0,0 UV-I 0 W/m 8,2 C 0,0 km/h (0 Bft)
23.08.2016 02:56 9,3 C 9,4 C 93 % 1028,0 hPa 0,0 mm 0,0 km/h (0 Bft) W 270 0 min 0,000 mm 0,0 UV-I 0 W/m 8,2 C 0,0 km/h (0 Bft)
23.08.2016 02:57 9,4 C 9,4 C 93 % 1028,1 hPa 0,0 mm 0,0 km/h (0 Bft) W 270 0 min 0,000 mm 0,0 UV-I 0 W/m 8,3 C 0,0 km/h (0 Bft)
23.08.2016 02:58 9,4 C 9,4 C 93 % 1028,1 hPa 0,0 mm 0,0 km/h (0 Bft) W 270 0 min 0,000 mm 0,0 UV-I 0 W/m 8,3 C 0,0 km/h (0 Bft)
23.08.2016 02:59 9,4 C 9,4 C 93 % 1028,0 hPa 0,0 mm 0,0 km/h (0 Bft) W 270 0 min 0,000 mm 0,0 UV-I 0 W/m 8,3 C 0,0 km/h (0 Bft)
23.08.2016 03:00 9,4 C 9,4 C 93 % 1028,0 hPa 0,0 mm 0,0 km/h (0 Bft) W-NW 286 0 min 0,000 mm 0,0 UV-I 0 W/m 8,3 C 0,0 km/h (0 Bft)
23.08.2016 03:01 9,4 C 9,5 C 93 % 1028,0 hPa 0,0 mm 0,0 km/h (0 Bft) W-NW 286 0 min 0,000 mm 0,0 UV-I 0 W/m 8,3 C 0,0 km/h (0 Bft)
23.08.2016 03:02 9,5 C 9,6 C 93 % 1028,0 hPa 0,0 mm 0,0 km/h (0 Bft) W-NW 286 0 min 0,000 mm 0,0 UV-I 0 W/m 8,4 C 0,0 km/h (0 Bft)
23.08.2016 03:03 9,6 C 9,6 C 93 % 1028,1 hPa 0,0 mm 0,0 km/h (0 Bft) W-NW 286 0 min 0,000 mm 0,0 UV-I 0 W/m 8,5 C 0,0 km/h (0 Bft)
23.08.2016 03:04 9,6 C 9,6 C 93 % 1028,1 hPa 0,0 mm 0,0 km/h (0 Bft) W-NW 286 0 min 0,000 mm 0,0 UV-I 0 W/m 8,5 C 0,0 km/h (0 Bft)
23.08.2016 03:05 9,6 C 9,6 C 93 % 1028,1 hPa 0,0 mm 0,0 km/h (0 Bft) W-NW 286 0 min 0,000 mm 0,0 UV-I 0 W/m 8,5 C 0,0 km/h (0 Bft)
23.08.2016 03:06 9,6 C 9,6 C 93 % 1028,1 hPa 0,0 mm 0,0 km/h (0 Bft) W-NW 286 0 min 0,000 mm 0,0 UV-I 0 W/m 8,5 C 0,0 km/h (0 Bft)
23.08.2016 03:07 9,6 C 9,6 C 93 % 1028,1 hPa 0,0 mm 0,0 km/h (0 Bft) W-NW 286 0 min 0,000 mm 0,0 UV-I 0 W/m 8,5 C 0,0 km/h (0 Bft)
23.08.2016 03:08 9,6 C 9,6 C 93 % 1028,2 hPa 0,0 mm 0,0 km/h (0 Bft) W-NW 286 0 min 0,000 mm 0,0 UV-I 0 W/m 8,5 C 0,0 km/h (0 Bft)
23.08.2016 03:09 9,6 C 9,6 C 93 % 1028,1 hPa 0,0 mm 0,0 km/h (0 Bft) W-NW 286 0 min 0,000 mm 0,0 UV-I 0 W/m 8,5 C 0,0 km/h (0 Bft)
23.08.2016 03:10 9,7 C 9,7 C 93 % 1028,1 hPa 0,0 mm 0,0 km/h (0 Bft) W-NW 286 0 min 0,000 mm 0,0 UV-I 0 W/m 8,6 C 0,0 km/h (0 Bft)
23.08.2016 03:11 9,7 C 9,7 C 93 % 1028,1 hPa 0,0 mm 0,0 km/h (0 Bft) W-NW 286 0 min 0,000 mm 0,0 UV-I 0 W/m 8,6 C 0,0 km/h (0 Bft)
23.08.2016 03:12 9,7 C 9,7 C 93 % 1028,2 hPa 0,0 mm 0,0 km/h (0 Bft) W-NW 286 0 min 0,000 mm 0,0 UV-I 0 W/m 8,6 C 0,0 km/h (0 Bft)
23.08.2016 03:13 9,7 C 9,7 C 93 % 1028,2 hPa 0,0 mm 0,0 km/h (0 Bft) W-NW 286 0 min 0,000 mm 0,0 UV-I 0 W/m 8,6 C 0,0 km/h (0 Bft)
23.08.2016 03:14 9,8 C 9,8 C 92 % 1028,2 hPa 0,0 mm 0,0 km/h (0 Bft) W-NW 286 0 min 0,000 mm 0,0 UV-I 0 W/m 8,6 C 0,0 km/h (0 Bft)
23.08.2016 03:15 9,8 C 9,8 C 93 % 1028,2 hPa 0,0 mm 0,0 km/h (0 Bft) W-NW 286 0 min 0,000 mm 0,0 UV-I 0 W/m 8,7 C 0,0 km/h (0 Bft)
23.08.2016 03:16 9,8 C 9,8 C 92 % 1028,2 hPa 0,0 mm 0,0 km/h (0 Bft) W-NW 286 0 min 0,000 mm 0,0 UV-I 0 W/m 8,6 C 0,0 km/h (0 Bft)
23.08.2016 03:17 9,8 C 9,8 C 92 % 1028,2 hPa 0,0 mm 0,0 km/h (0 Bft) W-NW 286 0 min 0,000 mm 0,0 UV-I 0 W/m 8,6 C 0,0 km/h (0 Bft)
23.08.2016 03:18 9,8 C 9,8 C 92 % 1028,1 hPa 0,0 mm 0,0 km/h (0 Bft) W-NW 286 0 min 0,000 mm 0,0 UV-I 0 W/m 8,6 C 0,0 km/h (0 Bft)
23.08.2016 03:19 9,7 C 9,8 C 91 % 1028,1 hPa 0,0 mm 0,0 km/h (0 Bft) W-NW 286 0 min 0,000 mm 0,0 UV-I 0 W/m 8,3 C 0,0 km/h (0 Bft)
23.08.2016 03:20 9,7 C 9,7 C 91 % 1028,1 hPa 0,0 mm 0,0 km/h (0 Bft) W-NW 286 0 min 0,000 mm 0,0 UV-I 0 W/m 8,3 C 0,0 km/h (0 Bft)
23.08.2016 03:21 9,6 C 9,7 C 91 % 1028,1 hPa 0,0 mm 0,0 km/h (0 Bft) W-NW 286 0 min 0,000 mm 0,0 UV-I 0 W/m 8,2 C 0,0 km/h (0 Bft)
23.08.2016 03:22 9,6 C 9,6 C 91 % 1028,1 hPa 0,0 mm 0,0 km/h (0 Bft) W-NW 286 0 min 0,000 mm 0,0 UV-I 0 W/m 8,2 C 0,0 km/h (0 Bft)
23.08.2016 03:23 9,5 C 9,6 C 91 % 1028,1 hPa 0,0 mm 0,0 km/h (0 Bft) W-NW 286 0 min 0,000 mm 0,0 UV-I 0 W/m 8,1 C 0,0 km/h (0 Bft)
23.08.2016 03:24 9,4 C 9,5 C 91 % 1028,1 hPa 0,0 mm 0,0 km/h (0 Bft) W-NW 286 0 min 0,000 mm 0,0 UV-I 0 W/m 8,0 C 0,0 km/h (0 Bft)
23.08.2016 03:25 9,3 C 9,4 C 91 % 1028,2 hPa 0,0 mm 0,0 km/h (0 Bft) W-NW 286 0 min 0,000 mm 0,0 UV-I 0 W/m 7,9 C 0,0 km/h (0 Bft)
23.08.2016 03:26 9,3 C 9,3 C 92 % 1028,2 hPa 0,0 mm 0,0 km/h (0 Bft) W-NW 286 0 min 0,000 mm 0,0 UV-I 0 W/m 8,1 C 0,0 km/h (0 Bft)
23.08.2016 03:27 9,2 C 9,3 C 92 % 1028,2 hPa 0,0 mm 0,0 km/h (0 Bft) W-NW 286 0 min 0,000 mm 0,0 UV-I 0 W/m 8,0 C 0,0 km/h (0 Bft)
23.08.2016 03:28 9,2 C 9,2 C 91 % 1028,2 hPa 0,0 mm 0,0 km/h (0 Bft) W-NW 286 0 min 0,000 mm 0,0 UV-I 0 W/m 7,8 C 0,0 km/h (0 Bft)
23.08.2016 03:29 9,2 C 9,2 C 92 % 1028,2 hPa 0,0 mm 0,0 km/h (0 Bft) W-NW 286 0 min 0,000 mm 0,0 UV-I 0 W/m 8,0 C 0,0 km/h (0 Bft)
23.08.2016 03:30 9,1 C 9,2 C 92 % 1028,3 hPa 0,0 mm 0,0 km/h (0 Bft) W-NW 286 0 min 0,000 mm 0,0 UV-I 0 W/m 7,9 C 0,0 km/h (0 Bft)
23.08.2016 03:31 9,1 C 9,1 C 92 % 1028,2 hPa 0,0 mm 0,0 km/h (0 Bft) W-NW 286 0 min 0,000 mm 0,0 UV-I 0 W/m 7,9 C 0,0 km/h (0 Bft)
23.08.2016 03:32 9,0 C 9,1 C 92 % 1028,2 hPa 0,0 mm 0,0 km/h (0 Bft) W-NW 286 0 min 0,000 mm 0,0 UV-I 0 W/m 7,8 C 0,0 km/h (0 Bft)
23.08.2016 03:33 9,0 C 9,0 C 92 % 1028,2 hPa 0,0 mm 0,0 km/h (0 Bft) W-NW 286 0 min 0,000 mm 0,0 UV-I 0 W/m 7,8 C 0,0 km/h (0 Bft)
23.08.2016 03:34 9,0 C 9,0 C 92 % 1028,3 hPa 0,0 mm 0,0 km/h (0 Bft) W-NW 286 0 min 0,000 mm 0,0 UV-I 0 W/m 7,8 C 0,0 km/h (0 Bft)
23.08.2016 03:35 9,0 C 9,0 C 93 % 1028,3 hPa 0,0 mm 0,0 km/h (0 Bft) W-NW 286 0 min 0,000 mm 0,0 UV-I 0 W/m 7,9 C 0,0 km/h (0 Bft)
23.08.2016 03:36 9,1 C 9,1 C 93 % 1028,2 hPa 0,0 mm 0,0 km/h (0 Bft) W-NW 286 0 min 0,000 mm 0,0 UV-I 0 W/m 8,0 C 0,0 km/h (0 Bft)
23.08.2016 03:37 9,1 C 9,1 C 93 % 1028,2 hPa 0,0 mm 0,0 km/h (0 Bft) W-NW 286 0 min 0,000 mm 0,0 UV-I 0 W/m 8,0 C 0,0 km/h (0 Bft)
23.08.2016 03:38 9,1 C 9,1 C 93 % 1028,2 hPa 0,0 mm 0,0 km/h (0 Bft) W-NW 286 0 min 0,000 mm 0,0 UV-I 0 W/m 8,0 C 0,0 km/h (0 Bft)
23.08.2016 03:39 9,1 C 9,1 C 93 % 1028,2 hPa 0,0 mm 0,0 km/h (0 Bft) W-NW 286 0 min 0,000 mm 0,0 UV-I 0 W/m 8,0 C 0,0 km/h (0 Bft)
23.08.2016 03:40 9,2 C 9,2 C 93 % 1028,2 hPa 0,0 mm 0,0 km/h (0 Bft) W-NW 286 0 min 0,000 mm 0,0 UV-I 0 W/m 8,1 C 0,0 km/h (0 Bft)
23.08.2016 03:41 9,2 C 9,2 C 93 % 1028,2 hPa 0,0 mm 0,0 km/h (0 Bft) W-NW 286 0 min 0,000 mm 0,0 UV-I 0 W/m 8,1 C 0,0 km/h (0 Bft)
23.08.2016 03:42 9,3 C 9,3 C 93 % 1028,2 hPa 0,0 mm 0,0 km/h (0 Bft) W-NW 286 0 min 0,000 mm 0,0 UV-I 0 W/m 8,2 C 0,0 km/h (0 Bft)
23.08.2016 03:43 9,3 C 9,3 C 92 % 1028,3 hPa 0,0 mm 0,0 km/h (0 Bft) W-NW 286 0 min 0,000 mm 0,0 UV-I 0 W/m 8,1 C 0,0 km/h (0 Bft)
23.08.2016 03:44 9,3 C 9,3 C 92 % 1028,3 hPa 0,0 mm 0,0 km/h (0 Bft) W-NW 286 0 min 0,000 mm 0,0 UV-I 0 W/m 8,1 C 0,0 km/h (0 Bft)
23.08.2016 03:45 9,3 C 9,3 C 92 % 1028,3 hPa 0,0 mm 0,0 km/h (0 Bft) W-NW 286 0 min 0,000 mm 0,0 UV-I 0 W/m 8,1 C 0,0 km/h (0 Bft)
23.08.2016 03:46 9,3 C 9,3 C 92 % 1028,3 hPa 0,0 mm 0,0 km/h (0 Bft) W-NW 286 0 min 0,000 mm 0,0 UV-I 0 W/m 8,1 C 0,0 km/h (0 Bft)
23.08.2016 03:47 9,3 C 9,3 C 92 % 1028,2 hPa 0,0 mm 0,0 km/h (0 Bft) W-NW 286 0 min 0,000 mm 0,0 UV-I 0 W/m 8,1 C 0,0 km/h (0 Bft)
23.08.2016 03:48 9,3 C 9,3 C 92 % 1028,2 hPa 0,0 mm 0,0 km/h (0 Bft) W-NW 286 0 min 0,000 mm 0,0 UV-I 0 W/m 8,1 C 0,0 km/h (0 Bft)
23.08.2016 03:49 9,3 C 9,3 C 92 % 1028,2 hPa 0,0 mm 0,0 km/h (0 Bft) W-NW 286 0 min 0,000 mm 0,0 UV-I 0 W/m 8,1 C 0,0 km/h (0 Bft)
23.08.2016 03:50 9,3 C 9,3 C 92 % 1028,2 hPa 0,0 mm 0,0 km/h (0 Bft) W-NW 286 0 min 0,000 mm 0,0 UV-I 0 W/m 8,1 C 0,0 km/h (0 Bft)
23.08.2016 03:51 9,3 C 9,3 C 92 % 1028,2 hPa 0,0 mm 0,0 km/h (0 Bft) W-NW 286 0 min 0,000 mm 0,0 UV-I 0 W/m 8,1 C 0,0 km/h (0 Bft)
23.08.2016 03:52 9,3 C 9,3 C 92 % 1028,2 hPa 0,0 mm 0,0 km/h (0 Bft) W-NW 286 0 min 0,000 mm 0,0 UV-I 0 W/m 8,1 C 0,0 km/h (0 Bft)
23.08.2016 03:53 9,3 C 9,3 C 92 % 1028,1 hPa 0,0 mm 0,0 km/h (0 Bft) W-NW 286 0 min 0,000 mm 0,0 UV-I 0 W/m 8,1 C 0,0 km/h (0 Bft)
23.08.2016 03:54 9,3 C 9,3 C 92 % 1028,1 hPa 0,0 mm 0,0 km/h (0 Bft) W-NW 286 0 min 0,000 mm 0,0 UV-I 0 W/m 8,1 C 0,0 km/h (0 Bft)
23.08.2016 03:55 9,2 C 9,3 C 92 % 1028,2 hPa 0,0 mm 0,0 km/h (0 Bft) W-NW 286 0 min 0,000 mm 0,0 UV-I 0 W/m 8,0 C 0,0 km/h (0 Bft)
23.08.2016 03:56 9,2 C 9,2 C 92 % 1028,2 hPa 0,0 mm 0,0 km/h (0 Bft) W-NW 286 0 min 0,000 mm 0,0 UV-I 0 W/m 8,0 C 0,0 km/h (0 Bft)
23.08.2016 03:57 9,2 C 9,2 C 92 % 1028,1 hPa 0,0 mm 0,0 km/h (0 Bft) W-NW 286 0 min 0,000 mm 0,0 UV-I 0 W/m 8,0 C 0,0 km/h (0 Bft)
23.08.2016 03:58 9,1 C 9,2 C 92 % 1028,2 hPa 0,0 mm 0,0 km/h (0 Bft) W-NW 286 0 min 0,000 mm 0,0 UV-I 0 W/m 7,9 C 0,0 km/h (0 Bft)
23.08.2016 03:59 9,1 C 9,1 C 92 % 1028,2 hPa 0,0 mm 0,0 km/h (0 Bft) W-NW 286 0 min 0,000 mm 0,0 UV-I 0 W/m 7,9 C 0,0 km/h (0 Bft)
23.08.2016 04:00 9,1 C 9,1 C 92 % 1028,2 hPa 0,0 mm 0,0 km/h (0 Bft) W-NW 286 0 min 0,000 mm 0,0 UV-I 0 W/m 7,9 C 0,0 km/h (0 Bft)
23.08.2016 04:01 9,1 C 9,1 C 92 % 1028,2 hPa 0,0 mm 0,0 km/h (0 Bft) W-NW 286 0 min 0,000 mm 0,0 UV-I 0 W/m 7,9 C 0,0 km/h (0 Bft)
23.08.2016 04:02 8,9 C 9,1 C 92 % 1028,2 hPa 0,0 mm 0,0 km/h (0 Bft) W-NW 286 0 min 0,000 mm 0,0 UV-I 0 W/m 7,7 C 0,0 km/h (0 Bft)
23.08.2016 04:03 9,0 C 9,0 C 92 % 1028,2 hPa 0,0 mm 0,0 km/h (0 Bft) W-NW 286 0 min 0,000 mm 0,0 UV-I 0 W/m 7,8 C 0,0 km/h (0 Bft)
23.08.2016 04:04 8,9 C 9,0 C 93 % 1028,2 hPa 0,0 mm 0,0 km/h (0 Bft) W-NW 286 0 min 0,000 mm 0,0 UV-I 0 W/m 7,8 C 0,0 km/h (0 Bft)
23.08.2016 04:05 8,9 C 9,0 C 92 % 1028,2 hPa 0,0 mm 0,0 km/h (0 Bft) W-NW 286 0 min 0,000 mm 0,0 UV-I 0 W/m 7,7 C 0,0 km/h (0 Bft)
23.08.2016 04:06 8,9 C 8,9 C 93 % 1028,2 hPa 0,0 mm 0,0 km/h (0 Bft) W-NW 286 0 min 0,000 mm 0,0 UV-I 0 W/m 7,8 C 0,0 km/h (0 Bft)
23.08.2016 04:07 8,8 C 8,9 C 93 % 1028,3 hPa 0,0 mm 0,0 km/h (0 Bft) W-NW 286 0 min 0,000 mm 0,0 UV-I 0 W/m 7,7 C 0,0 km/h (0 Bft)
23.08.2016 04:08 8,8 C 8,8 C 93 % 1028,2 hPa 0,0 mm 0,0 km/h (0 Bft) W-NW 286 0 min 0,000 mm 0,0 UV-I 0 W/m 7,7 C 0,0 km/h (0 Bft)
23.08.2016 04:09 8,8 C 8,8 C 93 % 1028,2 hPa 0,0 mm 0,0 km/h (0 Bft) W-NW 286 0 min 0,000 mm 0,0 UV-I 0 W/m 7,7 C 0,0 km/h (0 Bft)
23.08.2016 04:10 8,8 C 8,8 C 93 % 1028,2 hPa 0,0 mm 0,0 km/h (0 Bft) W-NW 286 0 min 0,000 mm 0,0 UV-I 0 W/m 7,7 C 0,0 km/h (0 Bft)
23.08.2016 04:11 8,8 C 8,8 C 94 % 1028,2 hPa 0,0 mm 0,0 km/h (0 Bft) W-NW 286 0 min 0,000 mm 0,0 UV-I 0 W/m 7,9 C 0,0 km/h (0 Bft)
23.08.2016 04:12 8,9 C 8,9 C 94 % 1028,2 hPa 0,0 mm 0,0 km/h (0 Bft) W-NW 286 0 min 0,000 mm 0,0 UV-I 0 W/m 8,0 C 0,0 km/h (0 Bft)
23.08.2016 04:13 8,9 C 8,9 C 94 % 1028,2 hPa 0,0 mm 0,0 km/h (0 Bft) W-NW 286 0 min 0,000 mm 0,0 UV-I 0 W/m 8,0 C 0,0 km/h (0 Bft)
23.08.2016 04:14 8,9 C 8,9 C 93 % 1028,2 hPa 0,0 mm 0,0 km/h (0 Bft) W-NW 286 0 min 0,000 mm 0,0 UV-I 0 W/m 7,8 C 0,0 km/h (0 Bft)
23.08.2016 04:15 8,9 C 8,9 C 93 % 1028,2 hPa 0,0 mm 0,0 km/h (0 Bft) W-NW 286 0 min 0,000 mm 0,0 UV-I 0 W/m 7,8 C 0,0 km/h (0 Bft)
23.08.2016 04:16 8,9 C 8,9 C 93 % 1028,2 hPa 0,0 mm 0,0 km/h (0 Bft) W-NW 286 0 min 0,000 mm 0,0 UV-I 0 W/m 7,8 C 0,0 km/h (0 Bft)
23.08.2016 04:17 8,9 C 8,9 C 93 % 1028,2 hPa 0,0 mm 0,0 km/h (0 Bft) W-NW 286 0 min 0,000 mm 0,0 UV-I 0 W/m 7,8 C 0,0 km/h (0 Bft)
23.08.2016 04:18 8,9 C 8,9 C 93 % 1028,2 hPa 0,0 mm 0,0 km/h (0 Bft) W-NW 286 0 min 0,000 mm 0,0 UV-I 0 W/m 7,8 C 0,0 km/h (0 Bft)
23.08.2016 04:19 8,9 C 8,9 C 93 % 1028,2 hPa 0,0 mm 0,0 km/h (0 Bft) W-NW 286 0 min 0,000 mm 0,0 UV-I 0 W/m 7,8 C 0,0 km/h (0 Bft)
23.08.2016 04:20 8,9 C 9,0 C 93 % 1028,2 hPa 0,0 mm 0,0 km/h (0 Bft) W-NW 286 0 min 0,000 mm 0,0 UV-I 0 W/m 7,8 C 0,0 km/h (0 Bft)
23.08.2016 04:21 8,9 C 9,0 C 93 % 1028,2 hPa 0,0 mm 0,0 km/h (0 Bft) W-NW 286 0 min 0,000 mm 0,0 UV-I 0 W/m 7,8 C 0,0 km/h (0 Bft)
23.08.2016 04:22 9,0 C 9,0 C 93 % 1028,2 hPa 0,0 mm 0,0 km/h (0 Bft) W-NW 286 0 min 0,000 mm 0,0 UV-I 0 W/m 7,9 C 0,0 km/h (0 Bft)
23.08.2016 04:23 8,9 C 9,0 C 93 % 1028,2 hPa 0,0 mm 0,0 km/h (0 Bft) W-NW 286 0 min 0,000 mm 0,0 UV-I 0 W/m 7,8 C 0,0 km/h (0 Bft)
23.08.2016 04:24 8,9 C 8,9 C 93 % 1028,2 hPa 0,0 mm 0,0 km/h (0 Bft) W-NW 286 0 min 0,000 mm 0,0 UV-I 0 W/m 7,8 C 0,0 km/h (0 Bft)
23.08.2016 04:25 8,9 C 8,9 C 93 % 1028,2 hPa 0,0 mm 0,0 km/h (0 Bft) W-NW 286 0 min 0,000 mm 0,0 UV-I 0 W/m 7,8 C 0,0 km/h (0 Bft)
23.08.2016 04:26 8,9 C 8,9 C 93 % 1028,2 hPa 0,0 mm 0,0 km/h (0 Bft) W-NW 286 0 min 0,000 mm 0,0 UV-I 0 W/m 7,8 C 0,0 km/h (0 Bft)
23.08.2016 04:27 8,9 C 8,9 C 93 % 1028,1 hPa 0,0 mm 0,0 km/h (0 Bft) W-NW 286 0 min 0,000 mm 0,0 UV-I 0 W/m 7,8 C 0,0 km/h (0 Bft)
23.08.2016 04:28 8,9 C 8,9 C 93 % 1028,1 hPa 0,0 mm 0,0 km/h (0 Bft) W-NW 286 0 min 0,000 mm 0,0 UV-I 0 W/m 7,8 C 0,0 km/h (0 Bft)
23.08.2016 04:29 9,0 C 9,0 C 93 % 1028,2 hPa 0,0 mm 0,0 km/h (0 Bft) W-NW 286 0 min 0,000 mm 0,0 UV-I 0 W/m 7,9 C 0,0 km/h (0 Bft)
23.08.2016 04:30 9,0 C 9,0 C 93 % 1028,2 hPa 0,0 mm 0,0 km/h (0 Bft) W-NW 286 0 min 0,000 mm 0,0 UV-I 0 W/m 7,9 C 0,0 km/h (0 Bft)
23.08.2016 04:31 9,1 C 9,1 C 93 % 1028,2 hPa 0,0 mm 0,0 km/h (0 Bft) W-NW 286 0 min 0,000 mm 0,0 UV-I 0 W/m 8,0 C 0,0 km/h (0 Bft)
23.08.2016 04:32 9,1 C 9,1 C 93 % 1028,2 hPa 0,0 mm 0,0 km/h (0 Bft) W-NW 286 0 min 0,000 mm 0,0 UV-I 0 W/m 8,0 C 0,0 km/h (0 Bft)
23.08.2016 04:33 9,1 C 9,1 C 93 % 1028,1 hPa 0,0 mm 0,0 km/h (0 Bft) W-NW 286 0 min 0,000 mm 0,0 UV-I 0 W/m 8,0 C 0,0 km/h (0 Bft)
23.08.2016 04:34 9,1 C 9,1 C 93 % 1028,1 hPa 0,0 mm 0,0 km/h (0 Bft) W-NW 286 0 min 0,000 mm 0,0 UV-I 0 W/m 8,0 C 0,0 km/h (0 Bft)
23.08.2016 04:35 9,1 C 9,1 C 93 % 1028,1 hPa 0,0 mm 0,0 km/h (0 Bft) W-NW 286 0 min 0,000 mm 0,0 UV-I 0 W/m 8,0 C 0,0 km/h (0 Bft)
23.08.2016 04:36 9,1 C 9,1 C 93 % 1028,0 hPa 0,0 mm 0,0 km/h (0 Bft) W-NW 286 0 min 0,000 mm 0,0 UV-I 0 W/m 8,0 C 0,0 km/h (0 Bft)
23.08.2016 04:37 9,1 C 9,1 C 93 % 1028,1 hPa 0,0 mm 0,0 km/h (0 Bft) W-NW 286 0 min 0,000 mm 0,0 UV-I 0 W/m 8,0 C 0,0 km/h (0 Bft)
23.08.2016 04:38 9,1 C 9,1 C 92 % 1028,0 hPa 0,0 mm 0,0 km/h (0 Bft) W-NW 286 0 min 0,000 mm 0,0 UV-I 0 W/m 7,9 C 0,0 km/h (0 Bft)
23.08.2016 04:39 9,1 C 9,1 C 93 % 1028,0 hPa 0,0 mm 0,0 km/h (0 Bft) W-NW 286 0 min 0,000 mm 0,0 UV-I 0 W/m 8,0 C 0,0 km/h (0 Bft)
23.08.2016 04:40 9,1 C 9,1 C 93 % 1028,0 hPa 0,0 mm 0,0 km/h (0 Bft) W-NW 286 0 min 0,000 mm 0,0 UV-I 0 W/m 8,0 C 0,0 km/h (0 Bft)
23.08.2016 04:41 9,1 C 9,1 C 93 % 1028,0 hPa 0,0 mm 0,0 km/h (0 Bft) W-NW 286 0 min 0,000 mm 0,0 UV-I 0 W/m 8,0 C 0,0 km/h (0 Bft)
23.08.2016 04:42 9,1 C 9,1 C 93 % 1028,0 hPa 0,0 mm 0,0 km/h (0 Bft) W-NW 286 0 min 0,000 mm 0,0 UV-I 0 W/m 8,0 C 0,0 km/h (0 Bft)
23.08.2016 04:43 9,1 C 9,1 C 93 % 1028,0 hPa 0,0 mm 0,0 km/h (0 Bft) W-NW 286 0 min 0,000 mm 0,0 UV-I 0 W/m 8,0 C 0,0 km/h (0 Bft)
23.08.2016 04:44 9,1 C 9,1 C 93 % 1028,0 hPa 0,0 mm 0,0 km/h (0 Bft) W-NW 286 0 min 0,000 mm 0,0 UV-I 0 W/m 8,0 C 0,0 km/h (0 Bft)
23.08.2016 04:45 9,1 C 9,1 C 92 % 1028,1 hPa 0,0 mm 0,0 km/h (0 Bft) W-NW 286 0 min 0,000 mm 0,0 UV-I 0 W/m 7,9 C 0,0 km/h (0 Bft)
23.08.2016 04:46 9,1 C 9,1 C 93 % 1028,0 hPa 0,0 mm 0,0 km/h (0 Bft) W-NW 286 0 min 0,000 mm 0,0 UV-I 0 W/m 8,0 C 0,0 km/h (0 Bft)
23.08.2016 04:47 9,1 C 9,1 C 93 % 1028,0 hPa 0,0 mm 0,0 km/h (0 Bft) W-NW 286 0 min 0,000 mm 0,0 UV-I 0 W/m 8,0 C 0,0 km/h (0 Bft)
23.08.2016 04:48 9,1 C 9,1 C 93 % 1028,0 hPa 0,0 mm 0,0 km/h (0 Bft) W-NW 286 0 min 0,000 mm 0,0 UV-I 0 W/m 8,0 C 0,0 km/h (0 Bft)
23.08.2016 04:49 9,0 C 9,1 C 93 % 1028,0 hPa 0,0 mm 0,0 km/h (0 Bft) W-NW 286 0 min 0,000 mm 0,0 UV-I 0 W/m 7,9 C 0,0 km/h (0 Bft)
23.08.2016 04:50 9,0 C 9,0 C 93 % 1028,1 hPa 0,0 mm 0,0 km/h (0 Bft) W-NW 286 0 min 0,000 mm 0,0 UV-I 0 W/m 7,9 C 0,0 km/h (0 Bft)
23.08.2016 04:51 8,9 C 9,0 C 93 % 1028,0 hPa 0,0 mm 0,0 km/h (0 Bft) W-NW 286 0 min 0,000 mm 0,0 UV-I 0 W/m 7,8 C 0,0 km/h (0 Bft)
23.08.2016 04:52 8,9 C 8,9 C 93 % 1028,0 hPa 0,0 mm 0,0 km/h (0 Bft) W-NW 286 0 min 0,000 mm 0,0 UV-I 0 W/m 7,8 C 0,0 km/h (0 Bft)
23.08.2016 04:53 8,9 C 8,9 C 93 % 1028,0 hPa 0,0 mm 0,0 km/h (0 Bft) W-NW 286 0 min 0,000 mm 0,0 UV-I 0 W/m 7,8 C 0,0 km/h (0 Bft)
23.08.2016 04:54 8,9 C 8,9 C 93 % 1028,0 hPa 0,0 mm 0,0 km/h (0 Bft) W-NW 286 0 min 0,000 mm 0,0 UV-I 0 W/m 7,8 C 0,0 km/h (0 Bft)
23.08.2016 04:55 8,8 C 8,9 C 93 % 1028,0 hPa 0,0 mm 0,0 km/h (0 Bft) W-NW 286 0 min 0,000 mm 0,0 UV-I 0 W/m 7,7 C 0,0 km/h (0 Bft)
23.08.2016 04:56 8,8 C 8,8 C 93 % 1028,0 hPa 0,0 mm 0,0 km/h (0 Bft) W-NW 286 0 min 0,000 mm 0,0 UV-I 0 W/m 7,7 C 0,0 km/h (0 Bft)
23.08.2016 04:57 8,8 C 8,8 C 93 % 1028,0 hPa 0,0 mm 0,0 km/h (0 Bft) W-NW 286 0 min 0,000 mm 0,0 UV-I 0 W/m 7,7 C 0,0 km/h (0 Bft)
23.08.2016 04:58 8,8 C 8,8 C 93 % 1028,0 hPa 0,0 mm 0,0 km/h (0 Bft) W-NW 286 0 min 0,000 mm 0,0 UV-I 0 W/m 7,7 C 0,0 km/h (0 Bft)
23.08.2016 04:59 8,8 C 8,8 C 93 % 1028,0 hPa 0,0 mm 0,0 km/h (0 Bft) W-NW 286 0 min 0,000 mm 0,0 UV-I 0 W/m 7,7 C 0,0 km/h (0 Bft)
23.08.2016 05:00 8,7 C 8,8 C 93 % 1028,0 hPa 0,0 mm 0,0 km/h (0 Bft) W-NW 286 0 min 0,000 mm 0,0 UV-I 0 W/m 7,6 C 0,0 km/h (0 Bft)
23.08.2016 05:01 8,8 C 8,8 C 93 % 1028,0 hPa 0,0 mm 0,0 km/h (0 Bft) W-NW 286 0 min 0,000 mm 0,0 UV-I 0 W/m 7,7 C 0,0 km/h (0 Bft)
23.08.2016 05:02 8,8 C 8,8 C 93 % 1027,9 hPa 0,0 mm 0,0 km/h (0 Bft) W-NW 286 0 min 0,000 mm 0,0 UV-I 0 W/m 7,7 C 0,0 km/h (0 Bft)
23.08.2016 05:03 8,8 C 8,8 C 93 % 1028,0 hPa 0,0 mm 0,0 km/h (0 Bft) W-NW 286 0 min 0,000 mm 0,0 UV-I 0 W/m 7,7 C 0,0 km/h (0 Bft)
23.08.2016 05:04 8,8 C 8,8 C 93 % 1027,9 hPa 0,0 mm 0,0 km/h (0 Bft) W-NW 286 0 min 0,000 mm 0,0 UV-I 0 W/m 7,7 C 0,0 km/h (0 Bft)
23.08.2016 05:05 8,8 C 8,8 C 93 % 1027,9 hPa 0,0 mm 0,0 km/h (0 Bft) W-NW 286 0 min 0,000 mm 0,0 UV-I 0 W/m 7,7 C 0,0 km/h (0 Bft)
23.08.2016 05:06 8,8 C 8,8 C 93 % 1027,9 hPa 0,0 mm 0,0 km/h (0 Bft) W-NW 286 0 min 0,000 mm 0,0 UV-I 0 W/m 7,7 C 0,0 km/h (0 Bft)
23.08.2016 05:07 8,8 C 8,9 C 93 % 1027,9 hPa 0,0 mm 0,0 km/h (0 Bft) W-NW 286 0 min 0,000 mm 0,0 UV-I 0 W/m 7,7 C 0,0 km/h (0 Bft)
23.08.2016 05:08 8,9 C 8,9 C 93 % 1027,9 hPa 0,0 mm 0,0 km/h (0 Bft) W-NW 286 0 min 0,000 mm 0,0 UV-I 0 W/m 7,8 C 0,0 km/h (0 Bft)
23.08.2016 05:09 8,9 C 8,9 C 93 % 1027,9 hPa 0,0 mm 0,0 km/h (0 Bft) W-NW 286 0 min 0,000 mm 0,0 UV-I 0 W/m 7,8 C 0,0 km/h (0 Bft)
23.08.2016 05:10 8,8 C 8,9 C 93 % 1027,9 hPa 0,0 mm 0,0 km/h (0 Bft) W-NW 286 0 min 0,000 mm 0,0 UV-I 0 W/m 7,7 C 0,0 km/h (0 Bft)
23.08.2016 05:11 8,8 C 8,8 C 93 % 1027,9 hPa 0,0 mm 0,0 km/h (0 Bft) W-NW 286 0 min 0,000 mm 0,0 UV-I 0 W/m 7,7 C 0,0 km/h (0 Bft)
23.08.2016 05:12 8,8 C 8,8 C 93 % 1027,9 hPa 0,0 mm 0,0 km/h (0 Bft) W-NW 286 0 min 0,000 mm 0,0 UV-I 0 W/m 7,7 C 0,0 km/h (0 Bft)
23.08.2016 05:13 8,8 C 8,8 C 93 % 1027,9 hPa 0,0 mm 0,0 km/h (0 Bft) W-NW 286 0 min 0,000 mm 0,0 UV-I 0 W/m 7,7 C 0,0 km/h (0 Bft)
23.08.2016 05:14 8,8 C 8,8 C 93 % 1027,9 hPa 0,0 mm 0,0 km/h (0 Bft) W-NW 286 0 min 0,000 mm 0,0 UV-I 0 W/m 7,7 C 0,0 km/h (0 Bft)
23.08.2016 05:15 8,7 C 8,8 C 93 % 1027,9 hPa 0,0 mm 0,0 km/h (0 Bft) W-NW 286 0 min 0,000 mm 0,0 UV-I 0 W/m 7,6 C 0,0 km/h (0 Bft)
23.08.2016 05:16 8,6 C 8,7 C 93 % 1028,0 hPa 0,0 mm 0,0 km/h (0 Bft) W-NW 286 0 min 0,000 mm 0,0 UV-I 0 W/m 7,5 C 0,0 km/h (0 Bft)
23.08.2016 05:17 8,6 C 8,7 C 93 % 1027,9 hPa 0,0 mm 0,0 km/h (0 Bft) W-NW 286 0 min 0,000 mm 0,0 UV-I 0 W/m 7,5 C 0,0 km/h (0 Bft)
23.08.2016 05:18 8,6 C 8,6 C 93 % 1027,9 hPa 0,0 mm 0,0 km/h (0 Bft) W-NW 286 0 min 0,000 mm 0,0 UV-I 0 W/m 7,5 C 0,0 km/h (0 Bft)
23.08.2016 05:19 8,4 C 8,6 C 93 % 1027,9 hPa 0,0 mm 0,0 km/h (0 Bft) W-NW 286 0 min 0,000 mm 0,0 UV-I 0 W/m 7,3 C 0,0 km/h (0 Bft)
23.08.2016 05:20 8,4 C 8,5 C 93 % 1027,9 hPa 0,0 mm 0,0 km/h (0 Bft) W-NW 286 0 min 0,000 mm 0,0 UV-I 0 W/m 7,3 C 0,0 km/h (0 Bft)
23.08.2016 05:21 8,4 C 8,4 C 93 % 1027,9 hPa 0,0 mm 0,0 km/h (0 Bft) W-NW 286 0 min 0,000 mm 0,0 UV-I 0 W/m 7,3 C 0,0 km/h (0 Bft)
23.08.2016 05:22 8,3 C 8,4 C 93 % 1027,9 hPa 0,0 mm 0,0 km/h (0 Bft) W-NW 286 0 min 0,000 mm 0,0 UV-I 0 W/m 7,2 C 0,0 km/h (0 Bft)
23.08.2016 05:23 8,3 C 8,3 C 93 % 1027,9 hPa 0,0 mm 0,0 km/h (0 Bft) W-NW 286 0 min 0,000 mm 0,0 UV-I 0 W/m 7,2 C 0,0 km/h (0 Bft)
23.08.2016 05:24 8,3 C 8,3 C 94 % 1027,9 hPa 0,0 mm 0,0 km/h (0 Bft) W-NW 286 0 min 0,000 mm 0,0 UV-I 0 W/m 7,4 C 0,0 km/h (0 Bft)
23.08.2016 05:25 8,3 C 8,3 C 94 % 1027,8 hPa 0,0 mm 0,0 km/h (0 Bft) W-NW 286 0 min 0,000 mm 0,0 UV-I 0 W/m 7,4 C 0,0 km/h (0 Bft)
23.08.2016 05:26 8,3 C 8,3 C 94 % 1027,8 hPa 0,0 mm 0,0 km/h (0 Bft) W-NW 286 0 min 0,000 mm 0,0 UV-I 0 W/m 7,4 C 0,0 km/h (0 Bft)
23.08.2016 05:27 8,3 C 8,3 C 94 % 1027,8 hPa 0,0 mm 0,0 km/h (0 Bft) W-NW 286 0 min 0,000 mm 0,0 UV-I 0 W/m 7,4 C 0,0 km/h (0 Bft)
23.08.2016 05:28 8,3 C 8,3 C 94 % 1027,8 hPa 0,0 mm 0,0 km/h (0 Bft) W-NW 286 0 min 0,000 mm 0,0 UV-I 0 W/m 7,4 C 0,0 km/h (0 Bft)
23.08.2016 05:29 8,3 C 8,3 C 94 % 1027,8 hPa 0,0 mm 0,0 km/h (0 Bft) W-NW 286 0 min 0,000 mm 0,0 UV-I 0 W/m 7,4 C 0,0 km/h (0 Bft)
23.08.2016 05:30 8,3 C 8,3 C 94 % 1027,8 hPa 0,0 mm 0,0 km/h (0 Bft) W-NW 286 0 min 0,000 mm 0,0 UV-I 0 W/m 7,4 C 0,0 km/h (0 Bft)
23.08.2016 05:31 8,3 C 8,3 C 94 % 1027,8 hPa 0,0 mm 0,0 km/h (0 Bft) W-NW 286 0 min 0,000 mm 0,0 UV-I 0 W/m 7,4 C 0,0 km/h (0 Bft)
23.08.2016 05:32 8,4 C 8,4 C 95 % 1027,8 hPa 0,0 mm 0,0 km/h (0 Bft) W-NW 286 0 min 0,000 mm 0,0 UV-I 0 W/m 7,6 C 0,0 km/h (0 Bft)
23.08.2016 05:33 8,3 C 8,4 C 95 % 1027,8 hPa 0,0 mm 0,0 km/h (0 Bft) W-NW 286 0 min 0,000 mm 0,0 UV-I 0 W/m 7,5 C 0,0 km/h (0 Bft)
23.08.2016 05:34 8,4 C 8,4 C 94 % 1027,7 hPa 0,0 mm 0,0 km/h (0 Bft) W-NW 286 0 min 0,000 mm 0,0 UV-I 0 W/m 7,5 C 0,0 km/h (0 Bft)
23.08.2016 05:35 8,4 C 8,4 C 94 % 1027,7 hPa 0,0 mm 0,0 km/h (0 Bft) W-NW 286 0 min 0,000 mm 0,0 UV-I 0 W/m 7,5 C 0,0 km/h (0 Bft)
23.08.2016 05:36 8,4 C 8,4 C 94 % 1027,7 hPa 0,0 mm 0,0 km/h (0 Bft) W-NW 286 0 min 0,000 mm 0,0 UV-I 0 W/m 7,5 C 0,0 km/h (0 Bft)
23.08.2016 05:37 8,4 C 8,4 C 94 % 1027,8 hPa 0,0 mm 0,0 km/h (0 Bft) W-NW 286 0 min 0,000 mm 0,0 UV-I 0 W/m 7,5 C 0,0 km/h (0 Bft)
23.08.2016 05:38 8,4 C 8,4 C 94 % 1027,8 hPa 0,0 mm 0,0 km/h (0 Bft) W-NW 286 0 min 0,000 mm 0,0 UV-I 0 W/m 7,5 C 0,0 km/h (0 Bft)
23.08.2016 05:39 8,4 C 8,4 C 94 % 1027,9 hPa 0,0 mm 0,0 km/h (0 Bft) W-NW 286 0 min 0,000 mm 0,0 UV-I 0 W/m 7,5 C 0,0 km/h (0 Bft)
23.08.2016 05:40 8,4 C 8,4 C 94 % 1027,9 hPa 0,0 mm 0,0 km/h (0 Bft) W-NW 286 0 min 0,000 mm 0,0 UV-I 0 W/m 7,5 C 0,0 km/h (0 Bft)
23.08.2016 05:41 8,4 C 8,4 C 94 % 1027,9 hPa 0,0 mm 0,0 km/h (0 Bft) W-NW 286 0 min 0,000 mm 0,0 UV-I 0 W/m 7,5 C 0,0 km/h (0 Bft)
23.08.2016 05:42 8,3 C 8,4 C 94 % 1027,9 hPa 0,0 mm 0,0 km/h (0 Bft) W-NW 286 0 min 0,000 mm 0,0 UV-I 0 W/m 7,4 C 0,0 km/h (0 Bft)
23.08.2016 05:43 8,3 C 8,3 C 94 % 1027,9 hPa 0,0 mm 0,0 km/h (0 Bft) W-NW 286 0 min 0,000 mm 0,0 UV-I 0 W/m 7,4 C 0,0 km/h (0 Bft)
23.08.2016 05:44 8,3 C 8,3 C 94 % 1027,9 hPa 0,0 mm 0,0 km/h (0 Bft) W-NW 286 0 min 0,000 mm 0,0 UV-I 0 W/m 7,4 C 0,0 km/h (0 Bft)
23.08.2016 05:45 8,3 C 8,3 C 94 % 1027,9 hPa 0,0 mm 0,0 km/h (0 Bft) W-NW 286 0 min 0,000 mm 0,0 UV-I 0 W/m 7,4 C 0,0 km/h (0 Bft)
23.08.2016 05:46 8,3 C 8,3 C 94 % 1028,0 hPa 0,0 mm 0,0 km/h (0 Bft) W-NW 286 0 min 0,000 mm 0,0 UV-I 0 W/m 7,4 C 0,0 km/h (0 Bft)
23.08.2016 05:47 8,3 C 8,3 C 94 % 1027,9 hPa 0,0 mm 0,0 km/h (0 Bft) W-NW 286 0 min 0,000 mm 0,0 UV-I 0 W/m 7,4 C 0,0 km/h (0 Bft)
23.08.2016 05:48 8,2 C 8,3 C 94 % 1028,0 hPa 0,0 mm 0,0 km/h (0 Bft) W-NW 286 0 min 0,000 mm 0,0 UV-I 0 W/m 7,3 C 0,0 km/h (0 Bft)
23.08.2016 05:49 8,2 C 8,2 C 94 % 1028,0 hPa 0,0 mm 0,0 km/h (0 Bft) W-NW 286 0 min 0,000 mm 0,0 UV-I 0 W/m 7,3 C 0,0 km/h (0 Bft)
23.08.2016 05:50 8,2 C 8,3 C 94 % 1027,9 hPa 0,0 mm 0,0 km/h (0 Bft) W-NW 286 0 min 0,000 mm 0,0 UV-I 0 W/m 7,3 C 0,0 km/h (0 Bft)
23.08.2016 05:51 8,3 C 8,3 C 94 % 1028,0 hPa 0,0 mm 0,0 km/h (0 Bft) W-NW 286 0 min 0,000 mm 0,0 UV-I 0 W/m 7,4 C 0,0 km/h (0 Bft)
23.08.2016 05:52 8,3 C 8,3 C 94 % 1027,9 hPa 0,0 mm 0,0 km/h (0 Bft) W-NW 286 0 min 0,000 mm 0,0 UV-I 0 W/m 7,4 C 0,0 km/h (0 Bft)
23.08.2016 05:53 8,2 C 8,3 C 94 % 1028,0 hPa 0,0 mm 0,0 km/h (0 Bft) W-NW 286 0 min 0,000 mm 0,0 UV-I 0 W/m 7,3 C 0,0 km/h (0 Bft)
23.08.2016 05:54 8,2 C 8,2 C 94 % 1028,0 hPa 0,0 mm 0,0 km/h (0 Bft) W-NW 286 0 min 0,000 mm 0,0 UV-I 0 W/m 7,3 C 0,0 km/h (0 Bft)
23.08.2016 05:55 8,2 C 8,3 C 94 % 1028,0 hPa 0,0 mm 0,0 km/h (0 Bft) W-NW 286 0 min 0,000 mm 0,0 UV-I 0 W/m 7,3 C 0,0 km/h (0 Bft)
23.08.2016 05:56 8,3 C 8,3 C 95 % 1028,0 hPa 0,0 mm 0,0 km/h (0 Bft) W-NW 286 0 min 0,000 mm 0,0 UV-I 0 W/m 7,5 C 0,0 km/h (0 Bft)
23.08.2016 05:57 8,3 C 8,3 C 95 % 1028,0 hPa 0,0 mm 0,0 km/h (0 Bft) W-NW 286 0 min 0,000 mm 0,0 UV-I 0 W/m 7,5 C 0,0 km/h (0 Bft)
23.08.2016 05:58 8,3 C 8,3 C 95 % 1028,0 hPa 0,0 mm 0,0 km/h (0 Bft) W-NW 286 0 min 0,000 mm 0,0 UV-I 0 W/m 7,5 C 0,0 km/h (0 Bft)
23.08.2016 05:59 8,3 C 8,3 C 95 % 1028,0 hPa 0,0 mm 0,0 km/h (0 Bft) W-NW 286 0 min 0,000 mm 0,0 UV-I 0 W/m 7,5 C 0,0 km/h (0 Bft)
23.08.2016 06:00 8,3 C 8,4 C 95 % 1028,1 hPa 0,0 mm 0,0 km/h (0 Bft) W-NW 286 0 min 0,000 mm 0,0 UV-I 0 W/m 7,5 C 0,0 km/h (0 Bft)
23.08.2016 06:01 8,3 C 8,3 C 94 % 1028,0 hPa 0,0 mm 0,0 km/h (0 Bft) W-NW 286 0 min 0,000 mm 0,0 UV-I 0 W/m 7,4 C 0,0 km/h (0 Bft)
23.08.2016 06:02 8,3 C 8,3 C 94 % 1028,1 hPa 0,0 mm 0,0 km/h (0 Bft) W-NW 286 0 min 0,000 mm 0,0 UV-I 0 W/m 7,4 C 0,0 km/h (0 Bft)
23.08.2016 06:03 8,3 C 8,3 C 94 % 1028,1 hPa 0,0 mm 0,0 km/h (0 Bft) W-NW 286 0 min 0,000 mm 0,0 UV-I 0 W/m 7,4 C 0,0 km/h (0 Bft)
23.08.2016 06:04 8,3 C 8,3 C 94 % 1028,1 hPa 0,0 mm 0,0 km/h (0 Bft) W-NW 286 0 min 0,000 mm 0,0 UV-I 0 W/m 7,4 C 0,0 km/h (0 Bft)
23.08.2016 06:05 8,3 C 8,4 C 94 % 1028,1 hPa 0,0 mm 0,0 km/h (0 Bft) W-NW 286 0 min 0,000 mm 0,0 UV-I 0 W/m 7,4 C 0,0 km/h (0 Bft)
23.08.2016 06:06 8,3 C 8,4 C 94 % 1028,1 hPa 0,0 mm 0,0 km/h (0 Bft) W-NW 286 0 min 0,000 mm 0,0 UV-I 0 W/m 7,4 C 0,0 km/h (0 Bft)
23.08.2016 06:07 8,4 C 8,4 C 94 % 1028,1 hPa 0,0 mm 0,0 km/h (0 Bft) W-NW 286 0 min 0,000 mm 0,0 UV-I 0 W/m 7,5 C 0,0 km/h (0 Bft)
23.08.2016 06:08 8,4 C 8,4 C 94 % 1028,1 hPa 0,0 mm 0,0 km/h (0 Bft) W-NW 286 0 min 0,000 mm 0,0 UV-I 0 W/m 7,5 C 0,0 km/h (0 Bft)
23.08.2016 06:09 8,4 C 8,4 C 94 % 1028,2 hPa 0,0 mm 0,0 km/h (0 Bft) W-NW 286 0 min 0,000 mm 0,0 UV-I 0 W/m 7,5 C 0,0 km/h (0 Bft)
23.08.2016 06:10 8,4 C 8,4 C 94 % 1028,1 hPa 0,0 mm 0,0 km/h (0 Bft) W-NW 286 0 min 0,000 mm 0,0 UV-I 0 W/m 7,5 C 0,0 km/h (0 Bft)
23.08.2016 06:11 8,4 C 8,4 C 94 % 1028,1 hPa 0,0 mm 0,0 km/h (0 Bft) W-NW 286 0 min 0,000 mm 0,0 UV-I 0 W/m 7,5 C 0,0 km/h (0 Bft)
23.08.2016 06:12 8,3 C 8,4 C 94 % 1028,2 hPa 0,0 mm 0,0 km/h (0 Bft) W-NW 286 0 min 0,000 mm 0,0 UV-I 0 W/m 7,4 C 0,0 km/h (0 Bft)
23.08.2016 06:13 8,3 C 8,3 C 94 % 1028,1 hPa 0,0 mm 0,0 km/h (0 Bft) W-NW 286 0 min 0,000 mm 0,0 UV-I 0 W/m 7,4 C 0,0 km/h (0 Bft)
23.08.2016 06:14 8,3 C 8,3 C 94 % 1028,2 hPa 0,0 mm 0,0 km/h (0 Bft) W-NW 286 0 min 0,000 mm 0,0 UV-I 0 W/m 7,4 C 0,0 km/h (0 Bft)
23.08.2016 06:15 8,3 C 8,3 C 94 % 1028,2 hPa 0,0 mm 0,0 km/h (0 Bft) W-NW 286 0 min 0,000 mm 0,0 UV-I 0 W/m 7,4 C 0,0 km/h (0 Bft)
23.08.2016 06:16 8,3 C 8,3 C 94 % 1028,2 hPa 0,0 mm 0,0 km/h (0 Bft) W-NW 286 0 min 0,000 mm 0,0 UV-I 0 W/m 7,4 C 0,0 km/h (0 Bft)
23.08.2016 06:17 8,3 C 8,3 C 95 % 1028,2 hPa 0,0 mm 0,0 km/h (0 Bft) W-NW 286 0 min 0,000 mm 0,0 UV-I 0 W/m 7,5 C 0,0 km/h (0 Bft)
23.08.2016 06:18 8,3 C 8,3 C 95 % 1028,2 hPa 0,0 mm 0,0 km/h (0 Bft) W-NW 286 0 min 0,000 mm 0,0 UV-I 0 W/m 7,5 C 0,0 km/h (0 Bft)
23.08.2016 06:19 8,3 C 8,3 C 94 % 1028,2 hPa 0,0 mm 0,0 km/h (0 Bft) W-NW 286 0 min 0,000 mm 0,0 UV-I 0 W/m 7,4 C 0,0 km/h (0 Bft)
23.08.2016 06:20 8,2 C 8,3 C 94 % 1028,2 hPa 0,0 mm 0,0 km/h (0 Bft) W-NW 286 0 min 0,000 mm 0,0 UV-I 0 W/m 7,3 C 0,0 km/h (0 Bft)
23.08.2016 06:21 8,2 C 8,2 C 94 % 1028,2 hPa 0,0 mm 0,0 km/h (0 Bft) W-NW 286 0 min 0,000 mm 0,0 UV-I 0 W/m 7,3 C 0,0 km/h (0 Bft)
23.08.2016 06:22 8,2 C 8,2 C 94 % 1028,2 hPa 0,0 mm 0,0 km/h (0 Bft) W-NW 286 0 min 0,000 mm 0,0 UV-I 0 W/m 7,3 C 0,0 km/h (0 Bft)
23.08.2016 06:23 8,2 C 8,2 C 94 % 1028,2 hPa 0,0 mm 0,0 km/h (0 Bft) W-NW 286 0 min 0,000 mm 0,0 UV-I 0 W/m 7,3 C 0,0 km/h (0 Bft)
23.08.2016 06:24 8,2 C 8,2 C 95 % 1028,2 hPa 0,0 mm 0,0 km/h (0 Bft) W-NW 286 0 min 0,000 mm 0,0 UV-I 0 W/m 7,4 C 0,0 km/h (0 Bft)
23.08.2016 06:25 8,2 C 8,2 C 95 % 1028,2 hPa 0,0 mm 0,0 km/h (0 Bft) W-NW 286 0 min 0,000 mm 0,0 UV-I 5 W/m 7,4 C 0,0 km/h (0 Bft)
23.08.2016 06:26 8,2 C 8,2 C 95 % 1028,2 hPa 0,0 mm 0,0 km/h (0 Bft) W-NW 286 0 min 0,000 mm 0,0 UV-I 5 W/m 7,4 C 0,0 km/h (0 Bft)
23.08.2016 06:27 8,1 C 8,2 C 95 % 1028,2 hPa 0,0 mm 0,0 km/h (0 Bft) W-NW 286 0 min 0,000 mm 0,0 UV-I 5 W/m 7,3 C 0,0 km/h (0 Bft)
23.08.2016 06:28 8,1 C 8,1 C 95 % 1028,2 hPa 0,0 mm 0,0 km/h (0 Bft) W-NW 286 0 min 0,000 mm 0,0 UV-I 5 W/m 7,3 C 0,0 km/h (0 Bft)
23.08.2016 06:29 8,1 C 8,2 C 95 % 1028,2 hPa 0,0 mm 0,0 km/h (0 Bft) W-NW 286 0 min 0,000 mm 0,0 UV-I 5 W/m 7,3 C 0,0 km/h (0 Bft)
23.08.2016 06:30 8,1 C 8,2 C 95 % 1028,2 hPa 0,0 mm 0,0 km/h (0 Bft) W-NW 286 0 min 0,000 mm 0,0 UV-I 5 W/m 7,3 C 0,0 km/h (0 Bft)
23.08.2016 06:31 8,1 C 8,1 C 95 % 1028,2 hPa 0,0 mm 0,0 km/h (0 Bft) W-NW 286 0 min 0,000 mm 0,0 UV-I 7 W/m 7,3 C 0,0 km/h (0 Bft)
23.08.2016 06:32 8,1 C 8,1 C 95 % 1028,2 hPa 0,0 mm 0,0 km/h (0 Bft) W-NW 286 0 min 0,000 mm 0,0 UV-I 7 W/m 7,3 C 0,0 km/h (0 Bft)
23.08.2016 06:33 8,1 C 8,1 C 95 % 1028,2 hPa 0,0 mm 0,0 km/h (0 Bft) W-NW 286 0 min 0,000 mm 0,0 UV-I 7 W/m 7,3 C 0,0 km/h (0 Bft)
23.08.2016 06:34 8,0 C 8,1 C 95 % 1028,2 hPa 0,0 mm 0,0 km/h (0 Bft) W-NW 286 0 min 0,000 mm 0,0 UV-I 7 W/m 7,2 C 0,0 km/h (0 Bft)
23.08.2016 06:35 8,0 C 8,1 C 95 % 1028,2 hPa 0,0 mm 0,0 km/h (0 Bft) W-NW 286 0 min 0,000 mm 0,0 UV-I 7 W/m 7,2 C 0,0 km/h (0 Bft)
23.08.2016 06:36 8,1 C 8,1 C 95 % 1028,2 hPa 0,0 mm 0,0 km/h (0 Bft) W-NW 286 0 min 0,000 mm 0,0 UV-I 7 W/m 7,3 C 0,0 km/h (0 Bft)
23.08.2016 06:37 8,1 C 8,1 C 95 % 1028,2 hPa 0,0 mm 0,0 km/h (0 Bft) W-NW 286 0 min 0,000 mm 0,0 UV-I 7 W/m 7,3 C 0,0 km/h (0 Bft)
23.08.2016 06:38 8,0 C 8,1 C 95 % 1028,2 hPa 0,0 mm 0,0 km/h (0 Bft) W-NW 286 0 min 0,000 mm 0,0 UV-I 9 W/m 7,2 C 0,0 km/h (0 Bft)
23.08.2016 06:39 8,0 C 8,0 C 95 % 1028,2 hPa 0,0 mm 0,0 km/h (0 Bft) W-NW 286 0 min 0,000 mm 0,0 UV-I 9 W/m 7,2 C 0,0 km/h (0 Bft)
23.08.2016 06:40 8,0 C 8,0 C 95 % 1028,1 hPa 0,0 mm 0,0 km/h (0 Bft) W-NW 286 0 min 0,000 mm 0,0 UV-I 9 W/m 7,2 C 0,0 km/h (0 Bft)
23.08.2016 06:41 8,0 C 8,0 C 95 % 1028,2 hPa 0,0 mm 0,0 km/h (0 Bft) W-NW 286 0 min 0,000 mm 0,0 UV-I 9 W/m 7,2 C 0,0 km/h (0 Bft)
23.08.2016 06:42 8,0 C 8,0 C 95 % 1028,2 hPa 0,0 mm 0,0 km/h (0 Bft) W-NW 286 0 min 0,000 mm 0,0 UV-I 11 W/m 7,2 C 0,0 km/h (0 Bft)
23.08.2016 06:43 8,1 C 8,1 C 95 % 1028,2 hPa 0,0 mm 0,0 km/h (0 Bft) W-NW 286 0 min 0,000 mm 0,0 UV-I 11 W/m 7,3 C 0,0 km/h (0 Bft)
23.08.2016 06:44 8,0 C 8,1 C 95 % 1028,2 hPa 0,0 mm 0,0 km/h (0 Bft) W-NW 286 0 min 0,000 mm 0,0 UV-I 11 W/m 7,2 C 0,0 km/h (0 Bft)
23.08.2016 06:45 8,0 C 8,1 C 95 % 1028,2 hPa 0,0 mm 0,0 km/h (0 Bft) W-NW 286 0 min 0,000 mm 0,0 UV-I 11 W/m 7,2 C 0,0 km/h (0 Bft)
23.08.2016 06:46 8,0 C 8,0 C 95 % 1028,3 hPa 0,0 mm 0,0 km/h (0 Bft) W-NW 286 0 min 0,000 mm 0,0 UV-I 11 W/m 7,2 C 0,0 km/h (0 Bft)
23.08.2016 06:47 8,0 C 8,0 C 95 % 1028,3 hPa 0,0 mm 0,0 km/h (0 Bft) W-NW 286 0 min 0,000 mm 0,0 UV-I 12 W/m 7,2 C 0,0 km/h (0 Bft)
23.08.2016 06:48 8,0 C 8,0 C 95 % 1028,2 hPa 0,0 mm 0,0 km/h (0 Bft) W-NW 286 0 min 0,000 mm 0,0 UV-I 12 W/m 7,2 C 0,0 km/h (0 Bft)
23.08.2016 06:49 8,1 C 8,1 C 95 % 1028,2 hPa 0,0 mm 0,0 km/h (0 Bft) W-NW 286 0 min 0,000 mm 0,0 UV-I 12 W/m 7,3 C 0,0 km/h (0 Bft)
23.08.2016 06:50 8,1 C 8,1 C 95 % 1028,3 hPa 0,0 mm 0,0 km/h (0 Bft) W-NW 286 0 min 0,000 mm 0,0 UV-I 12 W/m 7,3 C 0,0 km/h (0 Bft)
23.08.2016 06:51 8,1 C 8,1 C 95 % 1028,3 hPa 0,0 mm 0,0 km/h (0 Bft) W-NW 286 0 min 0,000 mm 0,0 UV-I 12 W/m 7,3 C 0,0 km/h (0 Bft)
23.08.2016 06:52 8,1 C 8,1 C 95 % 1028,3 hPa 0,0 mm 0,0 km/h (0 Bft) W-NW 286 0 min 0,000 mm 0,0 UV-I 12 W/m 7,3 C 0,0 km/h (0 Bft)
23.08.2016 06:53 8,1 C 8,1 C 95 % 1028,3 hPa 0,0 mm 0,0 km/h (0 Bft) W-NW 286 0 min 0,000 mm 0,0 UV-I 12 W/m 7,3 C 0,0 km/h (0 Bft)
23.08.2016 06:54 8,1 C 8,1 C 95 % 1028,3 hPa 0,0 mm 0,0 km/h (0 Bft) W-NW 286 0 min 0,000 mm 0,0 UV-I 12 W/m 7,3 C 0,0 km/h (0 Bft)
23.08.2016 06:55 8,1 C 8,1 C 95 % 1028,3 hPa 0,0 mm 0,0 km/h (0 Bft) W-NW 286 0 min 0,000 mm 0,0 UV-I 14 W/m 7,3 C 0,0 km/h (0 Bft)
23.08.2016 06:56 8,1 C 8,1 C 95 % 1028,3 hPa 0,0 mm 0,0 km/h (0 Bft) W-NW 286 0 min 0,000 mm 0,0 UV-I 14 W/m 7,3 C 0,0 km/h (0 Bft)
23.08.2016 06:57 8,1 C 8,1 C 95 % 1028,4 hPa 0,0 mm 0,0 km/h (0 Bft) W-NW 286 0 min 0,000 mm 0,0 UV-I 14 W/m 7,3 C 0,0 km/h (0 Bft)
23.08.2016 06:58 8,2 C 8,2 C 95 % 1028,4 hPa 0,0 mm 0,0 km/h (0 Bft) W-NW 286 0 min 0,000 mm 0,0 UV-I 14 W/m 7,4 C 0,0 km/h (0 Bft)
23.08.2016 06:59 8,2 C 8,2 C 96 % 1028,4 hPa 0,0 mm 0,0 km/h (0 Bft) W-NW 286 0 min 0,000 mm 0,0 UV-I 14 W/m 7,6 C 0,0 km/h (0 Bft)
23.08.2016 07:00 8,3 C 8,3 C 96 % 1028,4 hPa 0,0 mm 0,0 km/h (0 Bft) W-NW 286 0 min 0,000 mm 0,0 UV-I 14 W/m 7,7 C 0,0 km/h (0 Bft)
23.08.2016 07:01 8,3 C 8,3 C 95 % 1028,4 hPa 0,0 mm 0,0 km/h (0 Bft) W-NW 286 0 min 0,000 mm 0,0 UV-I 14 W/m 7,5 C 0,0 km/h (0 Bft)
23.08.2016 07:02 8,3 C 8,3 C 95 % 1028,4 hPa 0,0 mm 0,0 km/h (0 Bft) W-NW 286 0 min 0,000 mm 0,0 UV-I 14 W/m 7,5 C 0,0 km/h (0 Bft)
23.08.2016 07:03 8,4 C 8,4 C 95 % 1028,4 hPa 0,0 mm 0,0 km/h (0 Bft) W-NW 286 0 min 0,000 mm 0,0 UV-I 14 W/m 7,6 C 0,0 km/h (0 Bft)
23.08.2016 07:04 8,4 C 8,4 C 95 % 1028,4 hPa 0,0 mm 0,0 km/h (0 Bft) W-NW 286 0 min 0,000 mm 0,0 UV-I 16 W/m 7,6 C 0,0 km/h (0 Bft)
23.08.2016 07:05 8,4 C 8,4 C 95 % 1028,4 hPa 0,0 mm 0,0 km/h (0 Bft) W-NW 286 0 min 0,000 mm 0,0 UV-I 16 W/m 7,6 C 0,0 km/h (0 Bft)
23.08.2016 07:06 8,4 C 8,4 C 95 % 1028,4 hPa 0,0 mm 0,0 km/h (0 Bft) W-NW 286 0 min 0,000 mm 0,0 UV-I 16 W/m 7,6 C 0,0 km/h (0 Bft)
23.08.2016 07:07 8,4 C 8,4 C 95 % 1028,4 hPa 0,0 mm 0,0 km/h (0 Bft) W-NW 286 0 min 0,000 mm 0,0 UV-I 16 W/m 7,6 C 0,0 km/h (0 Bft)
23.08.2016 07:08 8,5 C 8,5 C 95 % 1028,4 hPa 0,0 mm 0,0 km/h (0 Bft) W-NW 286 0 min 0,000 mm 0,0 UV-I 16 W/m 7,7 C 0,0 km/h (0 Bft)
23.08.2016 07:09 8,6 C 8,6 C 95 % 1028,4 hPa 0,0 mm 0,0 km/h (0 Bft) W-NW 286 0 min 0,000 mm 0,0 UV-I 16 W/m 7,8 C 0,0 km/h (0 Bft)
23.08.2016 07:10 8,6 C 8,6 C 95 % 1028,4 hPa 0,0 mm 0,0 km/h (0 Bft) W-NW 286 0 min 0,000 mm 0,0 UV-I 16 W/m 7,8 C 0,0 km/h (0 Bft)
23.08.2016 07:11 8,6 C 8,6 C 95 % 1028,4 hPa 0,0 mm 0,0 km/h (0 Bft) W-NW 286 0 min 0,000 mm 0,0 UV-I 18 W/m 7,8 C 0,0 km/h (0 Bft)
23.08.2016 07:12 8,6 C 8,6 C 95 % 1028,4 hPa 0,0 mm 0,0 km/h (0 Bft) W-NW 286 0 min 0,000 mm 0,0 UV-I 18 W/m 7,8 C 0,0 km/h (0 Bft)
23.08.2016 07:13 8,6 C 8,6 C 95 % 1028,3 hPa 0,0 mm 0,0 km/h (0 Bft) W-NW 286 0 min 0,000 mm 0,0 UV-I 18 W/m 7,8 C 0,0 km/h (0 Bft)
23.08.2016 07:14 8,7 C 8,7 C 95 % 1028,4 hPa 0,0 mm 0,0 km/h (0 Bft) W-NW 286 0 min 0,000 mm 0,0 UV-I 18 W/m 7,9 C 0,0 km/h (0 Bft)
23.08.2016 07:15 8,7 C 8,7 C 95 % 1028,4 hPa 0,0 mm 0,0 km/h (0 Bft) W-NW 286 0 min 0,000 mm 0,0 UV-I 18 W/m 7,9 C 0,0 km/h (0 Bft)
23.08.2016 07:16 8,7 C 8,7 C 94 % 1028,4 hPa 0,0 mm 0,0 km/h (0 Bft) W-NW 286 0 min 0,000 mm 0,0 UV-I 19 W/m 7,8 C 0,0 km/h (0 Bft)
23.08.2016 07:17 8,7 C 8,7 C 94 % 1028,4 hPa 0,0 mm 0,0 km/h (0 Bft) W-NW 286 0 min 0,000 mm 0,0 UV-I 19 W/m 7,8 C 0,0 km/h (0 Bft)
23.08.2016 07:18 8,8 C 8,8 C 94 % 1028,4 hPa 0,0 mm 0,0 km/h (0 Bft) W-NW 286 0 min 0,000 mm 0,0 UV-I 19 W/m 7,9 C 0,0 km/h (0 Bft)
23.08.2016 07:19 8,8 C 8,8 C 94 % 1028,4 hPa 0,0 mm 0,0 km/h (0 Bft) W-NW 286 0 min 0,000 mm 0,0 UV-I 19 W/m 7,9 C 0,0 km/h (0 Bft)
23.08.2016 07:20 8,8 C 8,9 C 94 % 1028,4 hPa 0,0 mm 0,0 km/h (0 Bft) W-NW 286 0 min 0,000 mm 0,0 UV-I 19 W/m 7,9 C 0,0 km/h (0 Bft)
23.08.2016 07:21 8,9 C 8,9 C 94 % 1028,4 hPa 0,0 mm 0,0 km/h (0 Bft) W-NW 286 0 min 0,000 mm 0,0 UV-I 21 W/m 8,0 C 0,0 km/h (0 Bft)
23.08.2016 07:22 8,9 C 8,9 C 94 % 1028,4 hPa 0,0 mm 0,0 km/h (0 Bft) W-NW 286 0 min 0,000 mm 0,0 UV-I 21 W/m 8,0 C 0,0 km/h (0 Bft)
23.08.2016 07:23 8,9 C 8,9 C 94 % 1028,5 hPa 0,0 mm 0,0 km/h (0 Bft) W-NW 286 0 min 0,000 mm 0,0 UV-I 21 W/m 8,0 C 0,0 km/h (0 Bft)
23.08.2016 07:24 8,9 C 8,9 C 94 % 1028,4 hPa 0,0 mm 0,0 km/h (0 Bft) W-NW 286 0 min 0,000 mm 0,0 UV-I 21 W/m 8,0 C 0,0 km/h (0 Bft)
23.08.2016 07:25 8,9 C 8,9 C 94 % 1028,4 hPa 0,0 mm 0,0 km/h (0 Bft) W-NW 286 0 min 0,000 mm 0,0 UV-I 21 W/m 8,0 C 0,0 km/h (0 Bft)
23.08.2016 07:26 8,9 C 9,0 C 94 % 1028,4 hPa 0,0 mm 0,0 km/h (0 Bft) W-NW 286 0 min 0,000 mm 0,0 UV-I 21 W/m 8,0 C 0,0 km/h (0 Bft)
23.08.2016 07:27 9,0 C 9,0 C 94 % 1028,5 hPa 0,0 mm 0,0 km/h (0 Bft) W-NW 286 0 min 0,000 mm 0,0 UV-I 23 W/m 8,1 C 0,0 km/h (0 Bft)
23.08.2016 07:28 9,1 C 9,1 C 94 % 1028,5 hPa 0,0 mm 0,0 km/h (0 Bft) W-NW 286 0 min 0,000 mm 0,0 UV-I 23 W/m 8,2 C 0,0 km/h (0 Bft)
23.08.2016 07:29 9,0 C 9,1 C 94 % 1028,5 hPa 0,0 mm 0,0 km/h (0 Bft) W-NW 286 0 min 0,000 mm 0,0 UV-I 23 W/m 8,1 C 0,0 km/h (0 Bft)
23.08.2016 07:30 9,0 C 9,0 C 94 % 1028,4 hPa 0,0 mm 0,0 km/h (0 Bft) W-NW 286 0 min 0,000 mm 0,0 UV-I 23 W/m 8,1 C 0,0 km/h (0 Bft)
23.08.2016 07:31 9,1 C 9,1 C 94 % 1028,5 hPa 0,0 mm 0,0 km/h (0 Bft) W-NW 286 0 min 0,000 mm 0,0 UV-I 23 W/m 8,2 C 0,0 km/h (0 Bft)
23.08.2016 07:32 9,1 C 9,1 C 94 % 1028,4 hPa 0,0 mm 0,0 km/h (0 Bft) W-NW 286 0 min 0,000 mm 0,0 UV-I 25 W/m 8,2 C 0,0 km/h (0 Bft)
23.08.2016 07:33 9,1 C 9,1 C 94 % 1028,5 hPa 0,0 mm 0,0 km/h (0 Bft) W-NW 286 0 min 0,000 mm 0,0 UV-I 25 W/m 8,2 C 0,0 km/h (0 Bft)
23.08.2016 07:34 9,2 C 9,2 C 94 % 1028,5 hPa 0,0 mm 0,0 km/h (0 Bft) W-NW 286 0 min 0,000 mm 0,0 UV-I 25 W/m 8,3 C 0,0 km/h (0 Bft)
23.08.2016 07:35 9,2 C 9,2 C 94 % 1028,5 hPa 0,0 mm 0,0 km/h (0 Bft) W-NW 286 0 min 0,000 mm 0,0 UV-I 25 W/m 8,3 C 0,0 km/h (0 Bft)
23.08.2016 07:36 9,2 C 9,2 C 94 % 1028,5 hPa 0,0 mm 0,0 km/h (0 Bft) W-NW 286 0 min 0,000 mm 0,0 UV-I 25 W/m 8,3 C 0,0 km/h (0 Bft)
23.08.2016 07:37 9,3 C 9,3 C 93 % 1028,6 hPa 0,0 mm 0,0 km/h (0 Bft) W-NW 286 0 min 0,000 mm 0,0 UV-I 25 W/m 8,2 C 0,0 km/h (0 Bft)
23.08.2016 07:38 9,3 C 9,3 C 93 % 1028,6 hPa 0,0 mm 0,0 km/h (0 Bft) W-NW 286 0 min 0,000 mm 0,0 UV-I 25 W/m 8,2 C 0,0 km/h (0 Bft)
23.08.2016 07:39 9,4 C 9,4 C 93 % 1028,5 hPa 0,0 mm 0,0 km/h (0 Bft) W-NW 286 0 min 0,000 mm 0,0 UV-I 26 W/m 8,3 C 0,0 km/h (0 Bft)
23.08.2016 07:40 9,6 C 9,6 C 93 % 1028,6 hPa 0,0 mm 0,0 km/h (0 Bft) W-NW 286 0 min 0,000 mm 0,0 UV-I 26 W/m 8,5 C 0,0 km/h (0 Bft)
23.08.2016 07:41 9,7 C 9,7 C 93 % 1028,6 hPa 0,0 mm 0,0 km/h (0 Bft) W-NW 286 0 min 0,000 mm 0,0 UV-I 26 W/m 8,6 C 0,0 km/h (0 Bft)
23.08.2016 07:42 9,8 C 9,8 C 92 % 1028,6 hPa 0,0 mm 0,0 km/h (0 Bft) W-NW 286 0 min 0,000 mm 0,0 UV-I 26 W/m 8,6 C 0,0 km/h (0 Bft)
23.08.2016 07:43 9,8 C 9,8 C 92 % 1028,6 hPa 0,0 mm 0,0 km/h (0 Bft) W-NW 286 0 min 0,000 mm 0,0 UV-I 33 W/m 8,6 C 0,0 km/h (0 Bft)
23.08.2016 07:44 10,0 C 10,0 C 92 % 1028,5 hPa 0,0 mm 0,0 km/h (0 Bft) W-NW 286 0 min 0,000 mm 0,5 UV-I 109 W/m 8,8 C 0,0 km/h (0 Bft)
23.08.2016 07:45 10,0 C 10,0 C 92 % 1028,6 hPa 0,0 mm 0,0 km/h (0 Bft) W-NW 286 1 min 0,000 mm 0,6 UV-I 156 W/m 8,8 C 0,0 km/h (0 Bft)
23.08.2016 07:46 10,0 C 10,0 C 92 % 1028,6 hPa 0,0 mm 0,0 km/h (0 Bft) W-NW 286 1 min 0,000 mm 0,6 UV-I 171 W/m 8,8 C 0,0 km/h (0 Bft)
23.08.2016 07:47 10,1 C 10,1 C 93 % 1028,5 hPa 0,0 mm 0,0 km/h (0 Bft) W-NW 286 1 min 0,000 mm 0,6 UV-I 174 W/m 9,0 C 0,0 km/h (0 Bft)
23.08.2016 07:48 10,0 C 10,1 C 92 % 1028,5 hPa 0,0 mm 0,0 km/h (0 Bft) W-NW 286 1 min 0,000 mm 0,6 UV-I 176 W/m 8,8 C 0,0 km/h (0 Bft)
23.08.2016 07:49 10,0 C 10,0 C 93 % 1028,5 hPa 0,0 mm 0,0 km/h (0 Bft) W-NW 286 1 min 0,000 mm 0,6 UV-I 179 W/m 8,9 C 0,0 km/h (0 Bft)
23.08.2016 07:50 10,0 C 10,0 C 93 % 1028,5 hPa 0,0 mm 0,0 km/h (0 Bft) W-NW 286 1 min 0,000 mm 0,6 UV-I 185 W/m 8,9 C 0,0 km/h (0 Bft)
23.08.2016 07:51 10,1 C 10,1 C 93 % 1028,5 hPa 0,0 mm 0,0 km/h (0 Bft) W-NW 286 1 min 0,000 mm 0,7 UV-I 186 W/m 9,0 C 0,0 km/h (0 Bft)
23.08.2016 07:52 10,2 C 10,2 C 93 % 1028,6 hPa 0,0 mm 0,0 km/h (0 Bft) W-NW 286 1 min 0,000 mm 0,7 UV-I 188 W/m 9,1 C 0,0 km/h (0 Bft)
23.08.2016 07:53 10,4 C 10,4 C 94 % 1028,6 hPa 0,0 mm 0,0 km/h (0 Bft) W-NW 286 1 min 0,000 mm 0,7 UV-I 188 W/m 9,5 C 0,0 km/h (0 Bft)
23.08.2016 07:54 10,6 C 10,6 C 94 % 1028,6 hPa 0,0 mm 0,0 km/h (0 Bft) W-NW 286 1 min 0,000 mm 0,7 UV-I 192 W/m 9,7 C 0,0 km/h (0 Bft)
23.08.2016 07:55 10,8 C 10,8 C 94 % 1028,6 hPa 0,0 mm 0,0 km/h (0 Bft) W-NW 286 1 min 0,000 mm 0,7 UV-I 190 W/m 9,9 C 0,0 km/h (0 Bft)
23.08.2016 07:56 10,9 C 10,9 C 93 % 1028,6 hPa 0,0 mm 0,0 km/h (0 Bft) W-NW 286 1 min 0,000 mm 0,7 UV-I 195 W/m 9,8 C 0,0 km/h (0 Bft)
23.08.2016 07:57 11,0 C 11,0 C 92 % 1028,6 hPa 0,0 mm 0,0 km/h (0 Bft) W-NW 286 1 min 0,000 mm 0,8 UV-I 197 W/m 9,8 C 0,0 km/h (0 Bft)
23.08.2016 07:58 11,1 C 11,1 C 92 % 1028,6 hPa 0,0 mm 0,0 km/h (0 Bft) W-NW 286 1 min 0,000 mm 0,8 UV-I 199 W/m 9,8 C 0,0 km/h (0 Bft)
23.08.2016 07:59 11,3 C 11,3 C 92 % 1028,6 hPa 0,0 mm 0,0 km/h (0 Bft) W-NW 286 1 min 0,000 mm 0,8 UV-I 202 W/m 10,0 C 0,0 km/h (0 Bft)
23.08.2016 08:00 11,4 C 11,4 C 93 % 1028,6 hPa 0,0 mm 0,0 km/h (0 Bft) W-NW 286 1 min 0,000 mm 0,8 UV-I 204 W/m 10,3 C 0,0 km/h (0 Bft)
23.08.2016 08:01 11,5 C 11,5 C 91 % 1028,6 hPa 0,0 mm 0,0 km/h (0 Bft) W-NW 286 1 min 0,025 mm 0,8 UV-I 206 W/m 10,1 C 0,0 km/h (0 Bft)
23.08.2016 08:02 11,6 C 11,6 C 91 % 1028,6 hPa 0,0 mm 0,0 km/h (0 Bft) W-NW 286 1 min 0,000 mm 0,8 UV-I 211 W/m 10,2 C 0,0 km/h (0 Bft)
23.08.2016 08:03 11,7 C 11,7 C 92 % 1028,6 hPa 0,0 mm 0,0 km/h (0 Bft) W-NW 286 1 min 0,000 mm 0,8 UV-I 213 W/m 10,4 C 0,0 km/h (0 Bft)
23.08.2016 08:04 11,7 C 11,7 C 89 % 1028,7 hPa 0,0 mm 0,0 km/h (0 Bft) W-NW 286 1 min 0,000 mm 0,9 UV-I 214 W/m 9,9 C 0,0 km/h (0 Bft)
23.08.2016 08:05 11,6 C 11,7 C 89 % 1028,6 hPa 0,0 mm 0,0 km/h (0 Bft) W-NW 286 1 min 0,000 mm 0,9 UV-I 216 W/m 9,8 C 0,0 km/h (0 Bft)
23.08.2016 08:06 11,6 C 11,6 C 89 % 1028,6 hPa 0,0 mm 0,0 km/h (0 Bft) W-NW 286 1 min 0,000 mm 0,9 UV-I 218 W/m 9,8 C 0,0 km/h (0 Bft)
23.08.2016 08:07 11,7 C 11,7 C 91 % 1028,7 hPa 0,0 mm 0,0 km/h (0 Bft) W-NW 286 1 min 0,000 mm 0,9 UV-I 223 W/m 10,3 C 0,0 km/h (0 Bft)
23.08.2016 08:08 11,7 C 11,8 C 90 % 1028,6 hPa 0,0 mm 0,0 km/h (0 Bft) W-NW 286 1 min 0,000 mm 0,9 UV-I 225 W/m 10,1 C 0,0 km/h (0 Bft)
23.08.2016 08:09 11,8 C 11,8 C 90 % 1028,7 hPa 0,0 mm 0,0 km/h (0 Bft) W-NW 286 1 min 0,000 mm 0,9 UV-I 227 W/m 10,2 C 0,0 km/h (0 Bft)
23.08.2016 08:10 11,8 C 11,8 C 90 % 1028,7 hPa 0,0 mm 0,0 km/h (0 Bft) W-NW 286 1 min 0,000 mm 1,0 UV-I 229 W/m 10,2 C 0,0 km/h (0 Bft)
23.08.2016 08:11 12,0 C 12,0 C 89 % 1028,7 hPa 0,0 mm 0,0 km/h (0 Bft) W-NW 286 1 min 0,000 mm 1,0 UV-I 232 W/m 10,2 C 0,0 km/h (0 Bft)
23.08.2016 08:12 12,0 C 12,0 C 88 % 1028,6 hPa 0,0 mm 0,0 km/h (0 Bft) W-NW 286 1 min 0,000 mm 1,0 UV-I 234 W/m 10,1 C 0,0 km/h (0 Bft)
23.08.2016 08:13 12,1 C 12,1 C 89 % 1028,6 hPa 0,0 mm 0,0 km/h (0 Bft) W-NW 286 1 min 0,000 mm 1,0 UV-I 236 W/m 10,3 C 0,0 km/h (0 Bft)
23.08.2016 08:14 12,2 C 12,2 C 88 % 1028,7 hPa 0,0 mm 0,0 km/h (0 Bft) W-NW 286 1 min 0,000 mm 1,0 UV-I 241 W/m 10,3 C 0,0 km/h (0 Bft)
23.08.2016 08:15 12,2 C 12,2 C 88 % 1028,7 hPa 0,0 mm 0,0 km/h (0 Bft) W-NW 286 1 min 0,000 mm 1,0 UV-I 243 W/m 10,3 C 0,0 km/h (0 Bft)
23.08.2016 08:16 12,3 C 12,3 C 87 % 1028,6 hPa 0,0 mm 0,0 km/h (0 Bft) W-NW 286 1 min 0,000 mm 1,1 UV-I 246 W/m 10,2 C 0,0 km/h (0 Bft)
23.08.2016 08:17 12,3 C 12,3 C 87 % 1028,7 hPa 0,0 mm 0,0 km/h (0 Bft) W-NW 286 1 min 0,000 mm 1,1 UV-I 248 W/m 10,2 C 0,0 km/h (0 Bft)
23.08.2016 08:18 12,4 C 12,4 C 90 % 1028,7 hPa 0,0 mm 0,0 km/h (0 Bft) W-NW 286 1 min 0,000 mm 1,1 UV-I 250 W/m 10,8 C 0,0 km/h (0 Bft)
23.08.2016 08:19 12,4 C 12,4 C 87 % 1028,6 hPa 0,0 mm 0,0 km/h (0 Bft) W-NW 286 1 min 0,000 mm 1,1 UV-I 255 W/m 10,3 C 0,0 km/h (0 Bft)
23.08.2016 08:20 12,5 C 12,5 C 88 % 1028,6 hPa 0,0 mm 0,0 km/h (0 Bft) W-NW 286 1 min 0,000 mm 1,1 UV-I 257 W/m 10,6 C 0,0 km/h (0 Bft)
23.08.2016 08:21 12,6 C 12,6 C 88 % 1028,6 hPa 0,0 mm 0,0 km/h (0 Bft) W-NW 286 1 min 0,000 mm 1,2 UV-I 260 W/m 10,7 C 0,0 km/h (0 Bft)
23.08.2016 08:22 12,7 C 12,7 C 89 % 1028,6 hPa 0,0 mm 0,0 km/h (0 Bft) W-NW 286 1 min 0,000 mm 1,2 UV-I 262 W/m 10,9 C 0,0 km/h (0 Bft)
23.08.2016 08:23 12,8 C 12,8 C 86 % 1028,6 hPa 0,0 mm 0,0 km/h (0 Bft) W-NW 286 1 min 0,000 mm 1,2 UV-I 265 W/m 10,5 C 0,0 km/h (0 Bft)
23.08.2016 08:24 12,7 C 12,8 C 87 % 1028,6 hPa 0,0 mm 0,0 km/h (0 Bft) W-NW 286 1 min 0,000 mm 1,2 UV-I 265 W/m 10,6 C 0,0 km/h (0 Bft)
23.08.2016 08:25 12,7 C 12,7 C 88 % 1028,6 hPa 0,0 mm 0,0 km/h (0 Bft) W-NW 286 1 min 0,000 mm 1,2 UV-I 272 W/m 10,8 C 0,0 km/h (0 Bft)
23.08.2016 08:26 12,7 C 12,7 C 88 % 1028,6 hPa 0,0 mm 0,0 km/h (0 Bft) W-NW 286 1 min 0,000 mm 1,3 UV-I 276 W/m 10,8 C 0,0 km/h (0 Bft)
23.08.2016 08:27 12,7 C 12,7 C 87 % 1028,6 hPa 0,0 mm 0,0 km/h (0 Bft) W-NW 286 1 min 0,000 mm 1,3 UV-I 278 W/m 10,6 C 0,0 km/h (0 Bft)
23.08.2016 08:28 12,7 C 12,7 C 86 % 1028,6 hPa 0,0 mm 0,0 km/h (0 Bft) W-NW 286 1 min 0,000 mm 1,3 UV-I 281 W/m 10,4 C 0,0 km/h (0 Bft)
23.08.2016 08:29 12,7 C 12,7 C 89 % 1028,6 hPa 0,0 mm 0,0 km/h (0 Bft) W-NW 286 1 min 0,000 mm 1,3 UV-I 283 W/m 10,9 C 0,0 km/h (0 Bft)
23.08.2016 08:30 12,8 C 12,8 C 87 % 1028,6 hPa 0,0 mm 0,0 km/h (0 Bft) W-NW 286 1 min 0,000 mm 1,3 UV-I 285 W/m 10,7 C 0,0 km/h (0 Bft)
23.08.2016 08:31 12,9 C 12,9 C 88 % 1028,5 hPa 0,0 mm 0,0 km/h (0 Bft) W-NW 286 1 min 0,000 mm 1,4 UV-I 292 W/m 11,0 C 0,0 km/h (0 Bft)
23.08.2016 08:32 13,1 C 13,1 C 88 % 1028,6 hPa 0,0 mm 0,0 km/h (0 Bft) W-NW 286 1 min 0,000 mm 1,4 UV-I 294 W/m 11,2 C 0,0 km/h (0 Bft)
23.08.2016 08:33 13,1 C 13,1 C 88 % 1028,5 hPa 0,0 mm 0,0 km/h (0 Bft) W-NW 286 1 min 0,000 mm 1,4 UV-I 297 W/m 11,2 C 0,0 km/h (0 Bft)
23.08.2016 08:34 13,2 C 13,2 C 86 % 1028,5 hPa 0,0 mm 0,0 km/h (0 Bft) W-NW 286 1 min 0,000 mm 1,5 UV-I 301 W/m 10,9 C 0,0 km/h (0 Bft)
23.08.2016 08:35 13,2 C 13,2 C 86 % 1028,5 hPa 0,0 mm 0,0 km/h (0 Bft) W-NW 286 1 min 0,000 mm 1,5 UV-I 304 W/m 10,9 C 0,0 km/h (0 Bft)
23.08.2016 08:36 13,3 C 13,3 C 87 % 1028,5 hPa 0,0 mm 0,0 km/h (0 Bft) W-NW 286 1 min 0,000 mm 1,5 UV-I 308 W/m 11,2 C 0,0 km/h (0 Bft)
23.08.2016 08:37 13,3 C 13,4 C 88 % 1028,5 hPa 0,0 mm 0,0 km/h (0 Bft) W-NW 286 1 min 0,000 mm 1,5 UV-I 315 W/m 11,4 C 0,0 km/h (0 Bft)
23.08.2016 08:38 13,4 C 13,4 C 86 % 1028,5 hPa 0,0 mm 0,0 km/h (0 Bft) W-NW 286 1 min 0,000 mm 1,6 UV-I 318 W/m 11,1 C 0,0 km/h (0 Bft)
23.08.2016 08:39 13,4 C 13,4 C 88 % 1028,5 hPa 0,0 mm 0,0 km/h (0 Bft) W-NW 286 1 min 0,000 mm 1,6 UV-I 322 W/m 11,5 C 0,0 km/h (0 Bft)
23.08.2016 08:40 13,4 C 13,4 C 85 % 1028,5 hPa 0,0 mm 0,0 km/h (0 Bft) W-NW 286 1 min 0,000 mm 1,6 UV-I 327 W/m 10,9 C 0,0 km/h (0 Bft)
23.08.2016 08:41 13,5 C 13,5 C 85 % 1028,5 hPa 0,0 mm 0,0 km/h (0 Bft) W-NW 286 1 min 0,000 mm 1,7 UV-I 329 W/m 11,0 C 0,0 km/h (0 Bft)
23.08.2016 08:42 13,6 C 13,6 C 86 % 1028,5 hPa 0,0 mm 0,0 km/h (0 Bft) W-NW 286 1 min 0,000 mm 1,7 UV-I 332 W/m 11,3 C 0,0 km/h (0 Bft)
23.08.2016 08:43 13,7 C 13,7 C 89 % 1028,5 hPa 0,0 mm 0,0 km/h (0 Bft) W-NW 286 1 min 0,000 mm 1,7 UV-I 338 W/m 11,9 C 0,0 km/h (0 Bft)
23.08.2016 08:44 13,8 C 13,8 C 87 % 1028,5 hPa 0,0 mm 0,0 km/h (0 Bft) W-NW 286 1 min 0,000 mm 1,7 UV-I 339 W/m 11,7 C 0,0 km/h (0 Bft)
23.08.2016 08:45 13,8 C 13,8 C 84 % 1028,5 hPa 0,0 mm 0,0 km/h (0 Bft) W-NW 286 1 min 0,000 mm 1,8 UV-I 341 W/m 11,1 C 0,0 km/h (0 Bft)
23.08.2016 08:46 13,9 C 13,9 C 85 % 1028,5 hPa 0,0 mm 0,0 km/h (0 Bft) W-NW 286 1 min 0,000 mm 1,8 UV-I 345 W/m 11,4 C 0,0 km/h (0 Bft)
23.08.2016 08:47 14,0 C 14,1 C 84 % 1028,5 hPa 0,0 mm 0,0 km/h (0 Bft) W-NW 286 1 min 0,000 mm 1,8 UV-I 346 W/m 11,3 C 0,0 km/h (0 Bft)
23.08.2016 08:48 14,0 C 14,0 C 83 % 1028,5 hPa 0,0 mm 0,0 km/h (0 Bft) W-NW 286 1 min 0,000 mm 1,8 UV-I 352 W/m 11,2 C 0,0 km/h (0 Bft)
23.08.2016 08:49 14,0 C 14,0 C 85 % 1028,5 hPa 0,0 mm 0,0 km/h (0 Bft) W-NW 286 1 min 0,000 mm 1,9 UV-I 355 W/m 11,5 C 0,0 km/h (0 Bft)
23.08.2016 08:50 14,1 C 14,1 C 86 % 1028,5 hPa 0,0 mm 0,0 km/h (0 Bft) W-NW 286 1 min 0,000 mm 1,9 UV-I 357 W/m 11,8 C 0,0 km/h (0 Bft)
23.08.2016 08:51 14,2 C 14,2 C 84 % 1028,5 hPa 0,0 mm 0,0 km/h (0 Bft) W-NW 286 1 min 0,000 mm 1,9 UV-I 359 W/m 11,5 C 0,0 km/h (0 Bft)
23.08.2016 08:52 14,2 C 14,2 C 83 % 1028,5 hPa 0,0 mm 0,0 km/h (0 Bft) W-NW 286 1 min 0,000 mm 1,9 UV-I 362 W/m 11,4 C 0,0 km/h (0 Bft)
23.08.2016 08:53 14,1 C 14,2 C 83 % 1028,5 hPa 0,0 mm 0,0 km/h (0 Bft) W-NW 286 1 min 0,000 mm 2,0 UV-I 364 W/m 11,3 C 0,0 km/h (0 Bft)
23.08.2016 08:54 14,1 C 14,1 C 85 % 1028,5 hPa 0,0 mm 0,0 km/h (0 Bft) W-NW 286 1 min 0,000 mm 2,0 UV-I 369 W/m 11,6 C 0,0 km/h (0 Bft)
23.08.2016 08:55 14,2 C 14,2 C 84 % 1028,5 hPa 0,0 mm 0,0 km/h (0 Bft) W-NW 286 1 min 0,000 mm 2,0 UV-I 373 W/m 11,5 C 0,0 km/h (0 Bft)
23.08.2016 08:56 14,3 C 14,3 C 84 % 1028,5 hPa 0,0 mm 0,0 km/h (0 Bft) W-NW 286 1 min 0,000 mm 2,0 UV-I 376 W/m 11,6 C 0,0 km/h (0 Bft)
23.08.2016 08:57 14,4 C 14,4 C 86 % 1028,5 hPa 0,0 mm 0,0 km/h (0 Bft) W-NW 286 1 min 0,000 mm 2,1 UV-I 378 W/m 12,1 C 0,0 km/h (0 Bft)
23.08.2016 08:58 14,3 C 14,4 C 83 % 1028,4 hPa 0,0 mm 0,0 km/h (0 Bft) W-NW 286 1 min 0,000 mm 2,1 UV-I 380 W/m 11,5 C 0,0 km/h (0 Bft)
23.08.2016 08:59 14,3 C 14,4 C 83 % 1028,5 hPa 0,0 mm 0,0 km/h (0 Bft) W-NW 286 1 min 0,000 mm 2,1 UV-I 381 W/m 11,5 C 0,0 km/h (0 Bft)
23.08.2016 09:00 14,4 C 14,4 C 86 % 1028,5 hPa 0,0 mm 0,0 km/h (0 Bft) W-NW 286 1 min 0,153 mm 2,1 UV-I 387 W/m 12,1 C 0,0 km/h (0 Bft)
23.08.2016 09:01 14,4 C 14,4 C 83 % 1028,5 hPa 0,0 mm 0,0 km/h (0 Bft) W-NW 286 1 min 0,000 mm 2,2 UV-I 390 W/m 11,5 C 0,0 km/h (0 Bft)
23.08.2016 09:02 14,6 C 14,6 C 82 % 1028,5 hPa 0,0 mm 0,0 km/h (0 Bft) W-NW 286 1 min 0,000 mm 2,2 UV-I 392 W/m 11,6 C 0,0 km/h (0 Bft)
23.08.2016 09:03 14,8 C 14,8 C 84 % 1028,4 hPa 0,0 mm 0,0 km/h (0 Bft) W-NW 286 1 min 0,000 mm 2,2 UV-I 394 W/m 12,1 C 0,0 km/h (0 Bft)
23.08.2016 09:04 14,9 C 14,9 C 84 % 1028,4 hPa 0,0 mm 0,0 km/h (0 Bft) W-NW 286 1 min 0,000 mm 2,2 UV-I 397 W/m 12,2 C 0,0 km/h (0 Bft)
23.08.2016 09:05 14,9 C 14,9 C 81 % 1028,4 hPa 0,0 mm 0,0 km/h (0 Bft) W-NW 286 1 min 0,000 mm 2,2 UV-I 399 W/m 11,7 C 0,0 km/h (0 Bft)
23.08.2016 09:06 14,8 C 14,9 C 80 % 1028,4 hPa 0,0 mm 0,0 km/h (0 Bft) W-NW 286 1 min 0,000 mm 2,2 UV-I 404 W/m 11,4 C 0,0 km/h (0 Bft)
23.08.2016 09:07 14,8 C 14,8 C 80 % 1028,4 hPa 0,0 mm 0,0 km/h (0 Bft) W-NW 286 1 min 0,000 mm 2,3 UV-I 406 W/m 11,4 C 0,0 km/h (0 Bft)
23.08.2016 09:08 14,7 C 14,8 C 81 % 1028,4 hPa 0,0 mm 0,0 km/h (0 Bft) W-NW 286 1 min 0,000 mm 2,3 UV-I 408 W/m 11,5 C 0,0 km/h (0 Bft)
23.08.2016 09:09 14,8 C 14,8 C 79 % 1028,4 hPa 0,0 mm 0,0 km/h (0 Bft) W-NW 286 1 min 0,000 mm 2,3 UV-I 411 W/m 11,2 C 0,0 km/h (0 Bft)
23.08.2016 09:10 14,8 C 14,8 C 79 % 1028,4 hPa 0,0 mm 0,0 km/h (0 Bft) W-NW 285 1 min 0,000 mm 2,3 UV-I 413 W/m 11,2 C 0,0 km/h (0 Bft)
23.08.2016 09:11 14,8 C 14,8 C 81 % 1028,4 hPa 0,0 mm 0,0 km/h (0 Bft) W-NW 289 1 min 0,000 mm 2,4 UV-I 413 W/m 11,6 C 0,0 km/h (0 Bft)
23.08.2016 09:12 15,0 C 15,0 C 80 % 1028,4 hPa 0,0 mm 0,0 km/h (0 Bft) W-NW 289 1 min 0,000 mm 2,4 UV-I 422 W/m 11,6 C 0,0 km/h (0 Bft)
23.08.2016 09:13 15,2 C 15,2 C 81 % 1028,4 hPa 0,0 mm 0,0 km/h (0 Bft) W-NW 289 1 min 0,000 mm 2,4 UV-I 424 W/m 12,0 C 0,0 km/h (0 Bft)
23.08.2016 09:14 15,2 C 15,2 C 78 % 1028,4 hPa 0,0 mm 0,0 km/h (0 Bft) W-NW 290 1 min 0,000 mm 2,4 UV-I 425 W/m 11,4 C 0,0 km/h (0 Bft)
23.08.2016 09:15 15,2 C 15,2 C 80 % 1028,4 hPa 0,0 mm 0,0 km/h (0 Bft) N 5 1 min 0,000 mm 2,5 UV-I 427 W/m 11,8 C 0,0 km/h (0 Bft)
23.08.2016 09:16 15,2 C 15,2 C 78 % 1028,4 hPa 0,0 mm 0,0 km/h (0 Bft) N 5 1 min 0,000 mm 2,5 UV-I 429 W/m 11,4 C 0,0 km/h (0 Bft)
23.08.2016 09:17 15,3 C 15,3 C 79 % 1028,4 hPa 0,0 mm 0,0 km/h (0 Bft) N 5 1 min 0,000 mm 2,5 UV-I 429 W/m 11,7 C 0,0 km/h (0 Bft)
23.08.2016 09:18 15,3 C 15,3 C 80 % 1028,4 hPa 0,0 mm 0,0 km/h (0 Bft) N 5 1 min 0,000 mm 2,5 UV-I 438 W/m 11,9 C 0,0 km/h (0 Bft)
23.08.2016 09:19 15,2 C 15,3 C 78 % 1028,3 hPa 0,0 mm 0,0 km/h (0 Bft) N 5 1 min 0,000 mm 2,6 UV-I 441 W/m 11,4 C 0,0 km/h (0 Bft)
23.08.2016 09:20 15,2 C 15,2 C 82 % 1028,4 hPa 0,0 mm 0,0 km/h (0 Bft) N 5 1 min 0,000 mm 2,6 UV-I 443 W/m 12,1 C 0,0 km/h (0 Bft)
23.08.2016 09:21 15,2 C 15,2 C 79 % 1028,4 hPa 0,0 mm 0,0 km/h (0 Bft) N 5 1 min 0,000 mm 2,6 UV-I 446 W/m 11,6 C 0,0 km/h (0 Bft)
23.08.2016 09:22 15,3 C 15,3 C 80 % 1028,4 hPa 0,0 mm 0,0 km/h (0 Bft) N 5 1 min 0,000 mm 2,6 UV-I 448 W/m 11,9 C 0,0 km/h (0 Bft)
23.08.2016 09:23 15,4 C 15,4 C 80 % 1028,3 hPa 0,0 mm 0,0 km/h (0 Bft) N 5 1 min 0,000 mm 2,6 UV-I 450 W/m 12,0 C 0,0 km/h (0 Bft)
23.08.2016 09:24 15,6 C 15,6 C 82 % 1028,3 hPa 0,0 mm 0,0 km/h (0 Bft) N 5 1 min 0,000 mm 2,7 UV-I 455 W/m 12,5 C 0,0 km/h (0 Bft)
23.08.2016 09:25 15,6 C 15,6 C 82 % 1028,3 hPa 0,0 mm 0,0 km/h (0 Bft) N 5 1 min 0,000 mm 2,7 UV-I 457 W/m 12,5 C 0,0 km/h (0 Bft)
23.08.2016 09:26 15,6 C 15,6 C 79 % 1028,3 hPa 0,0 mm 0,0 km/h (0 Bft) N 5 1 min 0,000 mm 2,7 UV-I 459 W/m 12,0 C 0,0 km/h (0 Bft)
23.08.2016 09:27 15,6 C 15,6 C 81 % 1028,4 hPa 0,0 mm 0,0 km/h (0 Bft) N 5 1 min 0,000 mm 2,7 UV-I 462 W/m 12,3 C 0,0 km/h (0 Bft)
23.08.2016 09:28 15,5 C 15,6 C 81 % 1028,3 hPa 0,0 mm 0,0 km/h (0 Bft) N 360 1 min 0,000 mm 2,8 UV-I 464 W/m 12,3 C 0,0 km/h (0 Bft)
23.08.2016 09:29 15,6 C 15,6 C 80 % 1028,3 hPa 0,0 mm 0,0 km/h (0 Bft) N 360 1 min 0,000 mm 2,8 UV-I 466 W/m 12,2 C 0,0 km/h (0 Bft)
23.08.2016 09:30 15,6 C 15,6 C 84 % 1028,3 hPa 0,0 mm 1,5 km/h (1 Bft) N-NO 21 1 min 0,000 mm 2,8 UV-I 471 W/m 12,9 C 3,2 km/h (1 Bft)
23.08.2016 09:31 15,6 C 15,6 C 80 % 1028,3 hPa 0,0 mm 1,5 km/h (1 Bft) N-NO 21 1 min 0,000 mm 2,8 UV-I 473 W/m 12,2 C 3,2 km/h (1 Bft)
23.08.2016 09:32 15,7 C 15,7 C 78 % 1028,3 hPa 0,0 mm 3,1 km/h (1 Bft) NO 42 1 min 0,000 mm 2,9 UV-I 476 W/m 11,9 C 4,8 km/h (1 Bft)
23.08.2016 09:33 15,8 C 15,8 C 77 % 1028,3 hPa 0,0 mm 0,9 km/h (0 Bft) NO 43 1 min 0,000 mm 2,9 UV-I 478 W/m 11,8 C 1,6 km/h (1 Bft)
23.08.2016 09:34 16,0 C 16,0 C 80 % 1028,3 hPa 0,0 mm 1,6 km/h (1 Bft) NO 43 1 min 0,000 mm 2,9 UV-I 480 W/m 12,5 C 3,2 km/h (1 Bft)
23.08.2016 09:35 16,1 C 16,1 C 77 % 1028,3 hPa 0,0 mm 2,0 km/h (1 Bft) NO 36 1 min 0,000 mm 2,9 UV-I 483 W/m 12,1 C 3,2 km/h (1 Bft)
23.08.2016 09:36 16,1 C 16,1 C 82 % 1028,3 hPa 0,0 mm 1,5 km/h (1 Bft) N-NO 29 1 min 0,000 mm 3,0 UV-I 487 W/m 13,0 C 4,8 km/h (1 Bft)
23.08.2016 09:37 16,0 C 16,1 C 78 % 1028,3 hPa 0,0 mm 0,9 km/h (0 Bft) N-NO 29 1 min 0,000 mm 3,0 UV-I 489 W/m 12,2 C 1,6 km/h (1 Bft)
23.08.2016 09:38 15,9 C 16,0 C 77 % 1028,3 hPa 0,0 mm 1,7 km/h (1 Bft) N-NO 29 1 min 0,000 mm 3,0 UV-I 492 W/m 11,9 C 3,2 km/h (1 Bft)
23.08.2016 09:39 15,9 C 15,9 C 80 % 1028,3 hPa 0,0 mm 0,7 km/h (0 Bft) N-NO 29 1 min 0,000 mm 3,0 UV-I 494 W/m 12,5 C 1,6 km/h (1 Bft)
23.08.2016 09:40 16,1 C 16,1 C 78 % 1028,3 hPa 0,0 mm 1,2 km/h (1 Bft) N-NO 29 1 min 0,000 mm 3,1 UV-I 496 W/m 12,3 C 3,2 km/h (1 Bft)
23.08.2016 09:41 16,4 C 16,4 C 82 % 1028,4 hPa 0,0 mm 2,6 km/h (1 Bft) N 5 1 min 0,000 mm 3,1 UV-I 499 W/m 13,3 C 6,4 km/h (2 Bft)
23.08.2016 09:42 16,6 C 16,6 C 79 % 1028,3 hPa 0,0 mm 3,3 km/h (1 Bft) N 355 1 min 0,000 mm 3,1 UV-I 503 W/m 12,9 C 6,4 km/h (2 Bft)
23.08.2016 09:43 16,4 C 16,6 C 76 % 1028,4 hPa 0,0 mm 3,6 km/h (1 Bft) N-NW 348 1 min 0,000 mm 3,1 UV-I 504 W/m 12,2 C 4,8 km/h (1 Bft)
23.08.2016 09:44 16,3 C 16,4 C 77 % 1028,3 hPa 0,0 mm 3,0 km/h (1 Bft) N 350 1 min 0,000 mm 3,1 UV-I 508 W/m 12,3 C 4,8 km/h (1 Bft)
23.08.2016 09:45 16,3 C 16,3 C 78 % 1028,3 hPa 0,0 mm 3,7 km/h (1 Bft) N 355 1 min 0,000 mm 3,2 UV-I 508 W/m 12,5 C 4,8 km/h (1 Bft)
23.08.2016 09:46 16,4 C 16,4 C 78 % 1028,3 hPa 0,0 mm 3,0 km/h (1 Bft) N 355 1 min 0,000 mm 3,2 UV-I 510 W/m 12,6 C 4,8 km/h (1 Bft)
23.08.2016 09:47 16,6 C 16,6 C 76 % 1028,4 hPa 0,0 mm 3,1 km/h (1 Bft) NW 308 1 min 0,000 mm 3,2 UV-I 515 W/m 12,3 C 4,8 km/h (1 Bft)
23.08.2016 09:48 16,7 C 16,7 C 78 % 1028,3 hPa 0,0 mm 3,3 km/h (1 Bft) N-NW 348 1 min 0,000 mm 3,3 UV-I 517 W/m 12,8 C 4,8 km/h (1 Bft)
23.08.2016 09:49 16,8 C 16,8 C 79 % 1028,3 hPa 0,0 mm 3,4 km/h (1 Bft) N 360 1 min 0,000 mm 3,3 UV-I 519 W/m 13,1 C 4,8 km/h (1 Bft)
23.08.2016 09:50 16,8 C 16,8 C 77 % 1028,3 hPa 0,0 mm 1,4 km/h (1 Bft) N 360 1 min 0,000 mm 3,3 UV-I 522 W/m 12,7 C 3,2 km/h (1 Bft)
23.08.2016 09:51 16,8 C 16,8 C 78 % 1028,3 hPa 0,0 mm 2,1 km/h (1 Bft) NO 50 1 min 0,000 mm 3,3 UV-I 524 W/m 12,9 C 4,8 km/h (1 Bft)
23.08.2016 09:52 16,8 C 16,9 C 76 % 1028,3 hPa 0,0 mm 2,4 km/h (1 Bft) NO 50 1 min 0,000 mm 3,3 UV-I 526 W/m 12,5 C 3,2 km/h (1 Bft)
23.08.2016 09:53 16,8 C 16,9 C 75 % 1028,3 hPa 0,0 mm 3,0 km/h (1 Bft) O-NO 67 1 min 0,000 mm 3,4 UV-I 531 W/m 12,3 C 4,8 km/h (1 Bft)
23.08.2016 09:54 16,9 C 16,9 C 76 % 1028,3 hPa 0,0 mm 2,9 km/h (1 Bft) NO 36 1 min 0,000 mm 3,4 UV-I 533 W/m 12,6 C 6,4 km/h (2 Bft)
23.08.2016 09:55 16,9 C 16,9 C 75 % 1028,3 hPa 0,0 mm 2,5 km/h (1 Bft) O-NO 61 1 min 0,000 mm 3,4 UV-I 536 W/m 12,4 C 3,2 km/h (1 Bft)
23.08.2016 09:56 17,0 C 17,0 C 77 % 1028,3 hPa 0,0 mm 1,7 km/h (1 Bft) O-NO 61 1 min 0,000 mm 3,4 UV-I 538 W/m 12,9 C 3,2 km/h (1 Bft)
23.08.2016 09:57 17,1 C 17,1 C 76 % 1028,3 hPa 0,0 mm 1,0 km/h (0 Bft) O-NO 63 1 min 0,000 mm 3,5 UV-I 540 W/m 12,8 C 1,6 km/h (1 Bft)
23.08.2016 09:58 17,0 C 17,1 C 77 % 1028,3 hPa 0,0 mm 2,1 km/h (1 Bft) N-NO 32 1 min 0,000 mm 3,5 UV-I 541 W/m 12,9 C 3,2 km/h (1 Bft)
23.08.2016 09:59 17,2 C 17,2 C 77 % 1028,2 hPa 0,0 mm 1,3 km/h (1 Bft) N-NO 14 1 min 0,000 mm 3,5 UV-I 545 W/m 13,1 C 4,8 km/h (1 Bft)
23.08.2016 10:00 17,3 C 17,3 C 76 % 1028,2 hPa 0,0 mm 3,0 km/h (1 Bft) N-NO 15 1 min 0,254 mm 3,6 UV-I 548 W/m 13,0 C 4,8 km/h (1 Bft)
23.08.2016 10:01 17,2 C 17,3 C 74 % 1028,2 hPa 0,0 mm 0,9 km/h (0 Bft) N-NO 15 1 min 0,000 mm 3,6 UV-I 550 W/m 12,5 C 3,2 km/h (1 Bft)
23.08.2016 10:02 17,2 C 17,2 C 74 % 1028,2 hPa 0,0 mm 1,8 km/h (1 Bft) N-NO 15 1 min 0,000 mm 3,6 UV-I 552 W/m 12,5 C 4,8 km/h (1 Bft)
23.08.2016 10:03 17,2 C 17,3 C 78 % 1028,2 hPa 0,0 mm 4,3 km/h (1 Bft) NO 44 1 min 0,000 mm 3,6 UV-I 555 W/m 13,3 C 6,4 km/h (2 Bft)
23.08.2016 10:04 17,2 C 17,2 C 77 % 1028,3 hPa 0,0 mm 1,9 km/h (1 Bft) NO 44 1 min 0,000 mm 3,7 UV-I 559 W/m 13,1 C 4,8 km/h (1 Bft)
23.08.2016 10:05 17,2 C 17,2 C 76 % 1028,2 hPa 0,0 mm 1,9 km/h (1 Bft) NO 43 1 min 0,000 mm 3,7 UV-I 561 W/m 12,9 C 3,2 km/h (1 Bft)
23.08.2016 10:06 17,4 C 17,4 C 75 % 1028,2 hPa 0,0 mm 3,4 km/h (1 Bft) N 10 1 min 0,000 mm 3,7 UV-I 563 W/m 12,9 C 4,8 km/h (1 Bft)
23.08.2016 10:07 17,4 C 17,4 C 79 % 1028,2 hPa 0,0 mm 1,7 km/h (1 Bft) N 9 1 min 0,000 mm 3,7 UV-I 566 W/m 13,7 C 3,2 km/h (1 Bft)
23.08.2016 10:08 17,4 C 17,4 C 74 % 1028,2 hPa 0,0 mm 1,9 km/h (1 Bft) N-NW 340 1 min 0,000 mm 3,8 UV-I 568 W/m 12,7 C 3,2 km/h (1 Bft)
23.08.2016 10:09 17,5 C 17,5 C 76 % 1028,2 hPa 0,0 mm 3,2 km/h (1 Bft) N-NW 327 1 min 0,000 mm 3,8 UV-I 570 W/m 13,2 C 4,8 km/h (1 Bft)
23.08.2016 10:10 17,7 C 17,7 C 76 % 1028,2 hPa 0,0 mm 2,4 km/h (1 Bft) N 360 1 min 0,000 mm 3,8 UV-I 573 W/m 13,4 C 3,2 km/h (1 Bft)
23.08.2016 10:11 17,7 C 17,7 C 78 % 1028,2 hPa 0,0 mm 3,2 km/h (1 Bft) N-NW 346 1 min 0,000 mm 3,8 UV-I 575 W/m 13,8 C 4,8 km/h (1 Bft)
23.08.2016 10:12 17,8 C 17,8 C 76 % 1028,2 hPa 0,0 mm 3,2 km/h (1 Bft) N 360 1 min 0,000 mm 3,9 UV-I 577 W/m 13,5 C 4,8 km/h (1 Bft)
23.08.2016 10:13 17,9 C 17,9 C 73 % 1028,2 hPa 0,0 mm 2,7 km/h (1 Bft) N 355 1 min 0,000 mm 3,9 UV-I 578 W/m 13,0 C 4,8 km/h (1 Bft)
23.08.2016 10:14 18,1 C 18,1 C 71 % 1028,2 hPa 0,0 mm 4,0 km/h (1 Bft) N-NO 28 1 min 0,000 mm 3,9 UV-I 582 W/m 12,8 C 6,4 km/h (2 Bft)
23.08.2016 10:15 18,1 C 18,1 C 68 % 1028,1 hPa 0,0 mm 4,6 km/h (1 Bft) NO 36 1 min 0,000 mm 3,9 UV-I 584 W/m 12,1 C 6,4 km/h (2 Bft)
23.08.2016 10:16 18,0 C 18,1 C 68 % 1028,1 hPa 0,0 mm 2,6 km/h (1 Bft) N-NO 30 1 min 0,000 mm 3,9 UV-I 587 W/m 12,0 C 6,4 km/h (2 Bft)
23.08.2016 10:17 18,1 C 18,1 C 70 % 1028,1 hPa 0,0 mm 5,3 km/h (1 Bft) O-NO 62 1 min 0,000 mm 4,0 UV-I 591 W/m 12,5 C 8,0 km/h (2 Bft)
23.08.2016 10:18 18,1 C 18,1 C 69 % 1028,1 hPa 0,0 mm 6,7 km/h (2 Bft) N-NO 19 1 min 0,000 mm 4,0 UV-I 591 W/m 12,3 C 8,0 km/h (2 Bft)
23.08.2016 10:19 18,2 C 18,2 C 69 % 1028,0 hPa 0,0 mm 5,9 km/h (2 Bft) O-NO 64 1 min 0,000 mm 4,0 UV-I 596 W/m 12,4 C 6,4 km/h (2 Bft)
23.08.2016 10:20 18,1 C 18,2 C 76 % 1028,1 hPa 0,0 mm 2,8 km/h (1 Bft) N-NO 29 1 min 0,000 mm 4,0 UV-I 594 W/m 13,8 C 4,8 km/h (1 Bft)
23.08.2016 10:21 18,2 C 18,2 C 70 % 1028,1 hPa 0,0 mm 4,2 km/h (1 Bft) NO 36 1 min 0,000 mm 4,0 UV-I 596 W/m 12,6 C 6,4 km/h (2 Bft)
23.08.2016 10:22 18,2 C 18,3 C 71 % 1028,1 hPa 0,0 mm 4,4 km/h (1 Bft) NO 44 1 min 0,000 mm 4,0 UV-I 601 W/m 12,9 C 6,4 km/h (2 Bft)
23.08.2016 10:23 18,2 C 18,2 C 74 % 1028,1 hPa 0,0 mm 3,5 km/h (1 Bft) O-NO 59 1 min 0,000 mm 4,1 UV-I 603 W/m 13,5 C 4,8 km/h (1 Bft)
23.08.2016 10:24 18,3 C 18,3 C 69 % 1028,1 hPa 0,0 mm 2,9 km/h (1 Bft) O-NO 78 1 min 0,000 mm 4,1 UV-I 605 W/m 12,5 C 4,8 km/h (1 Bft)
23.08.2016 10:25 18,3 C 18,3 C 71 % 1028,0 hPa 0,0 mm 3,2 km/h (1 Bft) N-NO 15 1 min 0,000 mm 4,1 UV-I 606 W/m 12,9 C 4,8 km/h (1 Bft)
23.08.2016 10:26 18,2 C 18,3 C 69 % 1028,1 hPa 0,0 mm 0,7 km/h (0 Bft) N-NO 15 1 min 0,000 mm 4,1 UV-I 608 W/m 12,4 C 3,2 km/h (1 Bft)
23.08.2016 10:27 18,3 C 18,3 C 74 % 1027,9 hPa 0,0 mm 0,3 km/h (0 Bft) N-NO 15 1 min 0,000 mm 4,2 UV-I 610 W/m 13,6 C 1,6 km/h (1 Bft)
23.08.2016 10:28 18,4 C 18,4 C 70 % 1028,0 hPa 0,0 mm 3,1 km/h (1 Bft) NO 40 1 min 0,000 mm 4,2 UV-I 613 W/m 12,8 C 4,8 km/h (1 Bft)
23.08.2016 10:29 18,4 C 18,4 C 69 % 1028,0 hPa 0,0 mm 5,0 km/h (1 Bft) N 5 1 min 0,000 mm 4,2 UV-I 615 W/m 12,6 C 8,0 km/h (2 Bft)
23.08.2016 10:30 18,4 C 18,4 C 69 % 1028,0 hPa 0,0 mm 5,0 km/h (1 Bft) N-NO 32 1 min 0,000 mm 4,2 UV-I 617 W/m 12,6 C 6,4 km/h (2 Bft)
23.08.2016 10:31 18,4 C 18,5 C 73 % 1027,9 hPa 0,0 mm 2,2 km/h (1 Bft) NO 37 1 min 0,000 mm 4,2 UV-I 619 W/m 13,5 C 4,8 km/h (1 Bft)
23.08.2016 10:32 18,2 C 18,4 C 72 % 1028,0 hPa 0,0 mm 2,6 km/h (1 Bft) S 171 1 min 0,000 mm 4,3 UV-I 621 W/m 13,1 C 3,2 km/h (1 Bft)
23.08.2016 10:33 18,1 C 18,2 C 70 % 1028,0 hPa 0,0 mm 1,6 km/h (1 Bft) SO 140 1 min 0,000 mm 4,3 UV-I 624 W/m 12,5 C 3,2 km/h (1 Bft)
23.08.2016 10:34 18,0 C 18,1 C 72 % 1028,0 hPa 0,0 mm 2,1 km/h (1 Bft) N-NO 13 1 min 0,000 mm 4,3 UV-I 628 W/m 12,9 C 3,2 km/h (1 Bft)
23.08.2016 10:35 18,1 C 18,1 C 74 % 1028,0 hPa 0,0 mm 3,4 km/h (1 Bft) N-NO 26 1 min 0,000 mm 4,4 UV-I 628 W/m 13,4 C 4,8 km/h (1 Bft)
23.08.2016 10:36 18,2 C 18,2 C 71 % 1028,0 hPa 0,0 mm 4,2 km/h (1 Bft) N-NO 13 1 min 0,000 mm 4,4 UV-I 631 W/m 12,9 C 6,4 km/h (2 Bft)
23.08.2016 10:37 18,3 C 18,3 C 70 % 1028,0 hPa 0,0 mm 1,1 km/h (1 Bft) N-NO 13 1 min 0,000 mm 4,4 UV-I 633 W/m 12,7 C 4,8 km/h (1 Bft)
23.08.2016 10:38 18,4 C 18,4 C 70 % 1028,0 hPa 0,0 mm 3,4 km/h (1 Bft) N 360 1 min 0,000 mm 4,4 UV-I 633 W/m 12,8 C 4,8 km/h (1 Bft)
23.08.2016 10:39 18,7 C 18,7 C 71 % 1028,0 hPa 0,0 mm 5,4 km/h (1 Bft) N-NO 26 1 min 0,000 mm 4,4 UV-I 635 W/m 13,3 C 8,0 km/h (2 Bft)
23.08.2016 10:40 18,9 C 18,9 C 70 % 1028,0 hPa 0,0 mm 5,1 km/h (1 Bft) NO 55 1 min 0,000 mm 4,5 UV-I 638 W/m 13,3 C 6,4 km/h (2 Bft)
23.08.2016 10:41 18,9 C 18,9 C 67 % 1028,0 hPa 0,0 mm 6,0 km/h (2 Bft) N 355 1 min 0,000 mm 4,5 UV-I 640 W/m 12,6 C 9,7 km/h (2 Bft)
23.08.2016 10:42 18,9 C 18,9 C 67 % 1028,0 hPa 0,0 mm 6,3 km/h (2 Bft) N-NO 17 1 min 0,000 mm 4,5 UV-I 642 W/m 12,6 C 6,4 km/h (2 Bft)
23.08.2016 10:43 18,8 C 18,9 C 67 % 1027,9 hPa 0,0 mm 5,2 km/h (1 Bft) O-NO 69 1 min 0,000 mm 4,5 UV-I 643 W/m 12,5 C 9,7 km/h (2 Bft)
23.08.2016 10:44 18,8 C 18,8 C 67 % 1028,0 hPa 0,0 mm 2,5 km/h (1 Bft) O-NO 76 1 min 0,000 mm 4,5 UV-I 647 W/m 12,5 C 6,4 km/h (2 Bft)
23.08.2016 10:45 18,7 C 18,8 C 68 % 1028,0 hPa 0,0 mm 6,8 km/h (2 Bft) NO 53 1 min 0,000 mm 4,6 UV-I 647 W/m 12,7 C 9,7 km/h (2 Bft)
23.08.2016 10:46 18,7 C 18,7 C 68 % 1027,9 hPa 0,0 mm 6,2 km/h (2 Bft) NO 42 1 min 0,000 mm 4,6 UV-I 650 W/m 12,7 C 9,7 km/h (2 Bft)
23.08.2016 10:47 18,7 C 18,7 C 71 % 1028,0 hPa 0,0 mm 6,6 km/h (2 Bft) N 351 1 min 0,000 mm 4,6 UV-I 652 W/m 13,3 C 11,3 km/h (2 Bft)
23.08.2016 10:48 18,7 C 18,7 C 67 % 1028,0 hPa 0,0 mm 4,7 km/h (1 Bft) N 355 1 min 0,000 mm 4,6 UV-I 652 W/m 12,4 C 6,4 km/h (2 Bft)
23.08.2016 10:49 18,8 C 18,8 C 67 % 1028,0 hPa 0,0 mm 6,1 km/h (2 Bft) N-NO 19 1 min 0,000 mm 4,7 UV-I 656 W/m 12,5 C 8,0 km/h (2 Bft)
23.08.2016 10:50 18,9 C 18,9 C 70 % 1028,0 hPa 0,0 mm 4,7 km/h (1 Bft) N-NO 17 1 min 0,000 mm 4,7 UV-I 657 W/m 13,3 C 6,4 km/h (2 Bft)
23.08.2016 10:51 19,2 C 19,2 C 71 % 1028,0 hPa 0,0 mm 5,0 km/h (1 Bft) NO 34 1 min 0,000 mm 4,7 UV-I 659 W/m 13,8 C 8,0 km/h (2 Bft)
23.08.2016 10:52 19,3 C 19,3 C 65 % 1027,9 hPa 0,0 mm 3,5 km/h (1 Bft) N-NO 13 1 min 0,000 mm 4,7 UV-I 661 W/m 12,6 C 6,4 km/h (2 Bft)
23.08.2016 10:53 19,3 C 19,3 C 67 % 1027,9 hPa 0,0 mm 3,5 km/h (1 Bft) NO 44 1 min 0,000 mm 4,8 UV-I 663 W/m 13,0 C 6,4 km/h (2 Bft)
23.08.2016 10:54 19,2 C 19,3 C 67 % 1028,0 hPa 0,0 mm 4,7 km/h (1 Bft) N-NO 22 1 min 0,000 mm 4,8 UV-I 664 W/m 12,9 C 6,4 km/h (2 Bft)
23.08.2016 10:55 19,1 C 19,2 C 67 % 1028,0 hPa 0,0 mm 4,8 km/h (1 Bft) O-SO 102 1 min 0,000 mm 4,8 UV-I 668 W/m 12,8 C 6,4 km/h (2 Bft)
23.08.2016 10:56 18,9 C 19,1 C 65 % 1028,0 hPa 0,0 mm 4,1 km/h (1 Bft) O 83 1 min 0,000 mm 4,8 UV-I 668 W/m 12,2 C 9,7 km/h (2 Bft)
23.08.2016 10:57 18,9 C 18,9 C 67 % 1028,0 hPa 0,0 mm 5,1 km/h (1 Bft) O 84 1 min 0,000 mm 4,8 UV-I 671 W/m 12,6 C 8,0 km/h (2 Bft)
23.08.2016 10:58 18,9 C 18,9 C 65 % 1028,0 hPa 0,0 mm 6,7 km/h (2 Bft) NO 45 1 min 0,000 mm 4,8 UV-I 673 W/m 12,2 C 8,0 km/h (2 Bft)
23.08.2016 10:59 18,9 C 18,9 C 66 % 1028,0 hPa 0,0 mm 4,9 km/h (1 Bft) O-NO 63 1 min 0,000 mm 4,9 UV-I 673 W/m 12,4 C 6,4 km/h (2 Bft)
23.08.2016 11:00 18,9 C 18,9 C 72 % 1028,0 hPa 0,0 mm 5,9 km/h (2 Bft) NO 55 1 min 0,000 mm 4,9 UV-I 675 W/m 13,7 C 9,7 km/h (2 Bft)
23.08.2016 11:01 18,9 C 18,9 C 69 % 1028,0 hPa 0,0 mm 5,9 km/h (2 Bft) O-NO 66 1 min 0,355 mm 4,9 UV-I 677 W/m 13,1 C 8,0 km/h (2 Bft)
23.08.2016 11:02 18,9 C 18,9 C 68 % 1028,0 hPa 0,0 mm 3,2 km/h (1 Bft) O-NO 67 1 min 0,000 mm 4,9 UV-I 679 W/m 12,9 C 6,4 km/h (2 Bft)
23.08.2016 11:03 19,1 C 19,1 C 71 % 1028,0 hPa 0,0 mm 4,6 km/h (1 Bft) N 11 1 min 0,000 mm 4,9 UV-I 680 W/m 13,7 C 8,0 km/h (2 Bft)
23.08.2016 11:04 19,1 C 19,2 C 70 % 1028,0 hPa 0,0 mm 2,7 km/h (1 Bft) O-NO 58 1 min 0,000 mm 5,0 UV-I 682 W/m 13,5 C 4,8 km/h (1 Bft)
23.08.2016 11:05 19,2 C 19,2 C 71 % 1028,0 hPa 0,0 mm 5,3 km/h (1 Bft) NO 42 1 min 0,000 mm 5,0 UV-I 682 W/m 13,8 C 8,0 km/h (2 Bft)
23.08.2016 11:06 19,1 C 19,2 C 69 % 1028,0 hPa 0,0 mm 8,3 km/h (2 Bft) NO 34 1 min 0,000 mm 5,0 UV-I 686 W/m 13,3 C 12,9 km/h (3 Bft)
23.08.2016 11:07 19,1 C 19,1 C 66 % 1028,0 hPa 0,0 mm 7,2 km/h (2 Bft) N-NO 26 1 min 0,000 mm 5,0 UV-I 687 W/m 12,6 C 12,9 km/h (3 Bft)
23.08.2016 11:08 19,1 C 19,1 C 65 % 1027,9 hPa 0,0 mm 7,5 km/h (2 Bft) NO 46 1 min 0,000 mm 5,0 UV-I 691 W/m 12,4 C 9,7 km/h (2 Bft)
23.08.2016 11:09 19,1 C 19,1 C 66 % 1027,9 hPa 0,0 mm 5,6 km/h (1 Bft) N-NO 25 1 min 0,000 mm 5,0 UV-I 691 W/m 12,6 C 6,4 km/h (2 Bft)
23.08.2016 11:10 19,1 C 19,1 C 66 % 1027,9 hPa 0,0 mm 4,8 km/h (1 Bft) O-NO 74 1 min 0,000 mm 5,1 UV-I 694 W/m 12,6 C 8,0 km/h (2 Bft)
23.08.2016 11:11 19,2 C 19,2 C 68 % 1027,9 hPa 0,0 mm 4,9 km/h (1 Bft) N-NO 31 1 min 0,000 mm 5,1 UV-I 694 W/m 13,1 C 6,4 km/h (2 Bft)
23.08.2016 11:12 19,3 C 19,3 C 68 % 1028,0 hPa 0,0 mm 6,2 km/h (2 Bft) NO 37 1 min 0,000 mm 5,1 UV-I 696 W/m 13,2 C 8,0 km/h (2 Bft)
23.08.2016 11:13 19,3 C 19,3 C 67 % 1027,9 hPa 0,0 mm 3,1 km/h (1 Bft) NO 36 1 min 0,000 mm 5,1 UV-I 696 W/m 13,0 C 6,4 km/h (2 Bft)
23.08.2016 11:14 19,2 C 19,3 C 68 % 1027,9 hPa 0,0 mm 3,4 km/h (1 Bft) NO 55 1 min 0,000 mm 5,1 UV-I 700 W/m 13,1 C 6,4 km/h (2 Bft)
23.08.2016 11:15 19,3 C 19,3 C 74 % 1027,9 hPa 0,0 mm 2,6 km/h (1 Bft) O 81 1 min 0,000 mm 5,2 UV-I 701 W/m 14,5 C 4,8 km/h (1 Bft)
23.08.2016 11:16 19,3 C 19,3 C 67 % 1027,9 hPa 0,0 mm 4,4 km/h (1 Bft) NO 52 1 min 0,000 mm 5,2 UV-I 703 W/m 13,0 C 9,7 km/h (2 Bft)
23.08.2016 11:17 19,3 C 19,3 C 65 % 1028,0 hPa 0,0 mm 7,1 km/h (2 Bft) O-NO 61 1 min 0,000 mm 5,2 UV-I 705 W/m 12,6 C 11,3 km/h (2 Bft)
23.08.2016 11:18 19,4 C 19,4 C 64 % 1028,0 hPa 0,0 mm 6,2 km/h (2 Bft) N 5 1 min 0,000 mm 5,3 UV-I 707 W/m 12,4 C 8,0 km/h (2 Bft)
23.08.2016 11:19 19,5 C 19,5 C 67 % 1028,0 hPa 0,0 mm 6,5 km/h (2 Bft) NO 36 1 min 0,000 mm 5,3 UV-I 708 W/m 13,2 C 11,3 km/h (2 Bft)
23.08.2016 11:20 19,6 C 19,6 C 64 % 1028,0 hPa 0,0 mm 7,8 km/h (2 Bft) N-NO 13 1 min 0,000 mm 5,3 UV-I 710 W/m 12,6 C 9,7 km/h (2 Bft)
23.08.2016 11:21 19,7 C 19,7 C 69 % 1027,9 hPa 0,0 mm 3,4 km/h (1 Bft) O 95 1 min 0,000 mm 5,3 UV-I 712 W/m 13,8 C 6,4 km/h (2 Bft)
23.08.2016 11:22 19,7 C 19,7 C 65 % 1027,9 hPa 0,0 mm 5,2 km/h (1 Bft) NO 54 1 min 0,000 mm 5,3 UV-I 714 W/m 12,9 C 12,9 km/h (3 Bft)
23.08.2016 11:23 19,7 C 19,7 C 62 % 1028,0 hPa 0,0 mm 6,4 km/h (2 Bft) NO 38 1 min 0,000 mm 5,3 UV-I 714 W/m 12,2 C 12,9 km/h (3 Bft)
23.08.2016 11:24 19,6 C 19,7 C 61 % 1028,0 hPa 0,0 mm 9,4 km/h (2 Bft) NO 35 1 min 0,000 mm 5,4 UV-I 715 W/m 11,9 C 14,5 km/h (3 Bft)
23.08.2016 11:25 19,5 C 19,6 C 61 % 1027,9 hPa 0,0 mm 5,7 km/h (1 Bft) O-NO 69 1 min 0,000 mm 5,4 UV-I 717 W/m 11,8 C 8,0 km/h (2 Bft)
23.08.2016 11:26 19,4 C 19,5 C 62 % 1028,0 hPa 0,0 mm 10,5 km/h (2 Bft) O-NO 63 1 min 0,000 mm 5,4 UV-I 719 W/m 11,9 C 14,5 km/h (3 Bft)
23.08.2016 11:27 19,4 C 19,4 C 63 % 1027,9 hPa 0,0 mm 6,9 km/h (2 Bft) O-SO 122 1 min 0,000 mm 5,4 UV-I 722 W/m 12,2 C 11,3 km/h (2 Bft)
23.08.2016 11:28 19,4 C 19,4 C 62 % 1027,9 hPa 0,0 mm 4,4 km/h (1 Bft) NO 51 1 min 0,000 mm 5,4 UV-I 724 W/m 11,9 C 6,4 km/h (2 Bft)
23.08.2016 11:29 19,3 C 19,4 C 64 % 1027,9 hPa 0,0 mm 5,6 km/h (1 Bft) NO 38 1 min 0,000 mm 5,4 UV-I 724 W/m 12,3 C 8,0 km/h (2 Bft)
23.08.2016 11:30 19,4 C 19,4 C 63 % 1027,9 hPa 0,0 mm 3,6 km/h (1 Bft) NO 34 1 min 0,000 mm 5,5 UV-I 724 W/m 12,2 C 4,8 km/h (1 Bft)
23.08.2016 11:31 19,5 C 19,5 C 66 % 1027,9 hPa 0,0 mm 5,1 km/h (1 Bft) N-NO 24 1 min 0,000 mm 5,5 UV-I 726 W/m 13,0 C 9,7 km/h (2 Bft)
23.08.2016 11:32 19,4 C 19,5 C 63 % 1027,9 hPa 0,0 mm 3,6 km/h (1 Bft) N 5 1 min 0,000 mm 5,5 UV-I 726 W/m 12,2 C 8,0 km/h (2 Bft)
23.08.2016 11:33 19,4 C 19,4 C 64 % 1027,9 hPa 0,0 mm 3,3 km/h (1 Bft) O 80 1 min 0,000 mm 5,5 UV-I 729 W/m 12,4 C 6,4 km/h (2 Bft)
23.08.2016 11:34 19,4 C 19,4 C 62 % 1027,8 hPa 0,0 mm 6,2 km/h (2 Bft) NO 34 1 min 0,000 mm 5,5 UV-I 731 W/m 11,9 C 12,9 km/h (3 Bft)
23.08.2016 11:35 19,4 C 19,4 C 64 % 1027,8 hPa 0,0 mm 6,4 km/h (2 Bft) N-NW 339 1 min 0,000 mm 5,5 UV-I 731 W/m 12,4 C 12,9 km/h (3 Bft)
23.08.2016 11:36 19,6 C 19,6 C 62 % 1027,9 hPa 0,0 mm 5,9 km/h (2 Bft) N-NO 15 1 min 0,000 mm 5,6 UV-I 733 W/m 12,1 C 9,7 km/h (2 Bft)
23.08.2016 11:37 19,7 C 19,7 C 63 % 1027,8 hPa 0,0 mm 5,5 km/h (1 Bft) O-NO 63 1 min 0,000 mm 5,6 UV-I 733 W/m 12,5 C 8,0 km/h (2 Bft)
23.08.2016 11:38 19,7 C 19,8 C 63 % 1027,8 hPa 0,0 mm 6,7 km/h (2 Bft) N 355 1 min 0,000 mm 5,6 UV-I 737 W/m 12,5 C 9,7 km/h (2 Bft)
23.08.2016 11:39 19,7 C 19,7 C 63 % 1027,8 hPa 0,0 mm 4,3 km/h (1 Bft) NO 53 1 min 0,000 mm 5,6 UV-I 737 W/m 12,5 C 6,4 km/h (2 Bft)
23.08.2016 11:40 19,8 C 19,8 C 66 % 1027,8 hPa 0,0 mm 4,1 km/h (1 Bft) NO 51 1 min 0,000 mm 5,6 UV-I 738 W/m 13,3 C 6,4 km/h (2 Bft)
23.08.2016 11:41 19,8 C 19,8 C 64 % 1027,9 hPa 0,0 mm 7,2 km/h (2 Bft) N-NO 32 1 min 0,000 mm 5,7 UV-I 740 W/m 12,8 C 11,3 km/h (2 Bft)
23.08.2016 11:42 19,7 C 19,8 C 61 % 1027,8 hPa 0,0 mm 6,4 km/h (2 Bft) N-NO 18 1 min 0,000 mm 5,7 UV-I 742 W/m 12,0 C 9,7 km/h (2 Bft)
23.08.2016 11:43 19,7 C 19,7 C 63 % 1027,8 hPa 0,0 mm 7,4 km/h (2 Bft) N-NO 28 1 min 0,000 mm 5,7 UV-I 740 W/m 12,5 C 11,3 km/h (2 Bft)
23.08.2016 11:44 19,7 C 19,7 C 61 % 1027,8 hPa 0,0 mm 5,5 km/h (1 Bft) O 101 1 min 0,000 mm 5,7 UV-I 744 W/m 12,0 C 9,7 km/h (2 Bft)
23.08.2016 11:45 19,7 C 19,7 C 66 % 1027,9 hPa 0,0 mm 5,9 km/h (2 Bft) N-NW 345 1 min 0,000 mm 5,7 UV-I 745 W/m 13,2 C 11,3 km/h (2 Bft)
23.08.2016 11:46 19,7 C 19,7 C 64 % 1027,8 hPa 0,0 mm 7,8 km/h (2 Bft) O-NO 78 1 min 0,000 mm 5,7 UV-I 745 W/m 12,7 C 12,9 km/h (3 Bft)
23.08.2016 11:47 19,6 C 19,7 C 61 % 1027,8 hPa 0,0 mm 6,5 km/h (2 Bft) O-NO 63 1 min 0,000 mm 5,7 UV-I 745 W/m 11,9 C 9,7 km/h (2 Bft)
23.08.2016 11:48 19,6 C 19,7 C 64 % 1027,8 hPa 0,0 mm 4,8 km/h (1 Bft) N-NO 31 1 min 0,000 mm 5,8 UV-I 745 W/m 12,6 C 9,7 km/h (2 Bft)
23.08.2016 11:49 19,8 C 19,8 C 63 % 1027,8 hPa 0,0 mm 5,0 km/h (1 Bft) N-NO 22 1 min 0,000 mm 5,8 UV-I 749 W/m 12,5 C 8,0 km/h (2 Bft)
23.08.2016 11:50 19,9 C 19,9 C 65 % 1027,9 hPa 0,0 mm 7,3 km/h (2 Bft) N 350 1 min 0,000 mm 5,8 UV-I 751 W/m 13,1 C 9,7 km/h (2 Bft)
23.08.2016 11:51 19,9 C 19,9 C 63 % 1027,9 hPa 0,0 mm 7,0 km/h (2 Bft) N 5 1 min 0,000 mm 5,8 UV-I 752 W/m 12,6 C 9,7 km/h (2 Bft)
23.08.2016 11:52 19,9 C 19,9 C 64 % 1027,8 hPa 0,0 mm 5,6 km/h (1 Bft) N 360 1 min 0,000 mm 5,8 UV-I 754 W/m 12,9 C 6,4 km/h (2 Bft)
23.08.2016 11:54 20,3 C 20,3 C 63 % 1027,8 hPa 0,0 mm 4,6 km/h (1 Bft) O-NO 69 2 min 0,000 mm 5,9 UV-I 754 W/m 13,0 C 11,3 km/h (2 Bft)
23.08.2016 11:55 20,3 C 20,3 C 64 % 1027,8 hPa 0,0 mm 7,1 km/h (2 Bft) O 82 1 min 0,000 mm 5,9 UV-I 756 W/m 13,3 C 11,3 km/h (2 Bft)
23.08.2016 11:56 20,1 C 20,3 C 63 % 1027,8 hPa 0,0 mm 6,8 km/h (2 Bft) NO 51 1 min 0,000 mm 5,9 UV-I 756 W/m 12,8 C 9,7 km/h (2 Bft)
23.08.2016 11:57 20,0 C 20,1 C 65 % 1027,8 hPa 0,0 mm 5,0 km/h (1 Bft) NO 45 1 min 0,000 mm 5,9 UV-I 759 W/m 13,2 C 6,4 km/h (2 Bft)
23.08.2016 11:58 20,1 C 20,1 C 63 % 1027,8 hPa 0,0 mm 6,8 km/h (2 Bft) NO 51 1 min 0,000 mm 5,9 UV-I 759 W/m 12,8 C 9,7 km/h (2 Bft)
23.08.2016 11:59 20,1 C 20,1 C 68 % 1027,8 hPa 0,0 mm 8,4 km/h (2 Bft) NO 48 1 min 0,000 mm 5,9 UV-I 759 W/m 14,0 C 12,9 km/h (3 Bft)
23.08.2016 12:00 20,2 C 20,2 C 59 % 1027,8 hPa 0,0 mm 4,8 km/h (1 Bft) SO 134 1 min 0,432 mm 6,0 UV-I 763 W/m 11,9 C 11,3 km/h (2 Bft)
23.08.2016 12:01 20,1 C 20,2 C 61 % 1027,8 hPa 0,0 mm 5,5 km/h (1 Bft) O-SO 105 1 min 0,000 mm 6,0 UV-I 763 W/m 12,3 C 11,3 km/h (2 Bft)
23.08.2016 12:02 20,0 C 20,1 C 60 % 1027,8 hPa 0,0 mm 8,6 km/h (2 Bft) O-NO 59 1 min 0,000 mm 6,0 UV-I 765 W/m 12,0 C 16,1 km/h (3 Bft)
23.08.2016 12:03 19,9 C 20,0 C 62 % 1027,8 hPa 0,0 mm 3,7 km/h (1 Bft) S-SO 163 1 min 0,000 mm 6,0 UV-I 766 W/m 12,4 C 9,7 km/h (2 Bft)
23.08.2016 12:04 19,9 C 19,9 C 60 % 1027,8 hPa 0,0 mm 3,8 km/h (1 Bft) NO 53 1 min 0,000 mm 6,0 UV-I 768 W/m 11,9 C 9,7 km/h (2 Bft)
23.08.2016 12:05 19,9 C 19,9 C 62 % 1027,8 hPa 0,0 mm 3,7 km/h (1 Bft) S-SO 155 1 min 0,000 mm 6,0 UV-I 768 W/m 12,4 C 4,8 km/h (1 Bft)
23.08.2016 12:06 20,0 C 20,0 C 63 % 1027,8 hPa 0,0 mm 3,0 km/h (1 Bft) O-NO 58 1 min 0,000 mm 6,0 UV-I 768 W/m 12,7 C 6,4 km/h (2 Bft)
23.08.2016 12:07 20,0 C 20,1 C 63 % 1027,8 hPa 0,0 mm 3,8 km/h (1 Bft) O-NO 66 1 min 0,000 mm 6,0 UV-I 770 W/m 12,7 C 8,0 km/h (2 Bft)
23.08.2016 12:08 20,0 C 20,0 C 59 % 1027,8 hPa 0,0 mm 3,4 km/h (1 Bft) SO 140 1 min 0,000 mm 6,1 UV-I 770 W/m 11,7 C 6,4 km/h (2 Bft)
23.08.2016 12:09 19,9 C 20,0 C 61 % 1027,8 hPa 0,0 mm 1,3 km/h (1 Bft) SO 139 1 min 0,000 mm 6,1 UV-I 772 W/m 12,2 C 3,2 km/h (1 Bft)
23.08.2016 12:10 20,0 C 20,0 C 65 % 1027,8 hPa 0,0 mm 6,8 km/h (2 Bft) N-NO 32 1 min 0,000 mm 6,1 UV-I 772 W/m 13,2 C 11,3 km/h (2 Bft)
23.08.2016 12:11 20,1 C 20,1 C 60 % 1027,8 hPa 0,0 mm 3,4 km/h (1 Bft) N-NO 26 1 min 0,000 mm 6,1 UV-I 773 W/m 12,1 C 4,8 km/h (1 Bft)
23.08.2016 12:12 20,2 C 20,2 C 65 % 1027,7 hPa 0,0 mm 3,5 km/h (1 Bft) N 5 1 min 0,000 mm 6,1 UV-I 773 W/m 13,4 C 6,4 km/h (2 Bft)
23.08.2016 12:13 20,5 C 20,5 C 64 % 1027,7 hPa 0,0 mm 5,4 km/h (1 Bft) N-NO 30 1 min 0,000 mm 6,2 UV-I 775 W/m 13,5 C 12,9 km/h (3 Bft)
23.08.2016 12:14 20,7 C 20,7 C 65 % 1027,7 hPa 0,0 mm 9,4 km/h (2 Bft) NO 51 1 min 0,000 mm 6,2 UV-I 777 W/m 13,9 C 12,9 km/h (3 Bft)
23.08.2016 12:15 20,7 C 20,7 C 56 % 1027,7 hPa 0,0 mm 9,8 km/h (2 Bft) O-NO 78 1 min 0,000 mm 6,2 UV-I 779 W/m 11,6 C 14,5 km/h (3 Bft)
23.08.2016 12:16 20,6 C 20,7 C 57 % 1027,7 hPa 0,0 mm 5,2 km/h (1 Bft) O 90 1 min 0,000 mm 6,2 UV-I 780 W/m 11,8 C 9,7 km/h (2 Bft)
23.08.2016 12:17 20,5 C 20,6 C 58 % 1027,6 hPa 0,0 mm 7,6 km/h (2 Bft) O 80 1 min 0,000 mm 6,2 UV-I 775 W/m 11,9 C 11,3 km/h (2 Bft)
23.08.2016 12:18 20,4 C 20,5 C 57 % 1027,7 hPa 0,0 mm 8,2 km/h (2 Bft) O 80 1 min 0,000 mm 6,3 UV-I 775 W/m 11,6 C 14,5 km/h (3 Bft)
23.08.2016 12:19 20,4 C 20,5 C 57 % 1027,6 hPa 0,0 mm 4,5 km/h (1 Bft) N-NO 22 1 min 0,000 mm 6,3 UV-I 789 W/m 11,6 C 6,4 km/h (2 Bft)
23.08.2016 12:20 20,3 C 20,4 C 58 % 1027,6 hPa 0,0 mm 6,9 km/h (2 Bft) NO 54 1 min 0,000 mm 6,2 UV-I 782 W/m 11,8 C 12,9 km/h (3 Bft)
23.08.2016 12:21 20,3 C 20,3 C 57 % 1027,6 hPa 0,0 mm 6,2 km/h (2 Bft) O 94 1 min 0,000 mm 6,2 UV-I 791 W/m 11,5 C 11,3 km/h (2 Bft)
23.08.2016 12:22 20,2 C 20,3 C 56 % 1027,6 hPa 0,0 mm 7,2 km/h (2 Bft) O-NO 64 1 min 0,000 mm 5,4 UV-I 791 W/m 11,1 C 11,3 km/h (2 Bft)
23.08.2016 12:23 20,2 C 20,2 C 57 % 1027,6 hPa 0,0 mm 6,3 km/h (2 Bft) NO 36 1 min 0,000 mm 6,0 UV-I 791 W/m 11,4 C 12,9 km/h (3 Bft)
23.08.2016 12:24 20,2 C 20,2 C 62 % 1027,6 hPa 0,0 mm 10,4 km/h (2 Bft) O-NO 76 1 min 0,000 mm 6,3 UV-I 789 W/m 12,7 C 16,1 km/h (3 Bft)
23.08.2016 12:25 20,2 C 20,3 C 62 % 1027,6 hPa 0,0 mm 6,8 km/h (2 Bft) O 94 1 min 0,000 mm 6,3 UV-I 780 W/m 12,7 C 11,3 km/h (2 Bft)
23.08.2016 12:26 20,3 C 20,3 C 61 % 1027,6 hPa 0,0 mm 3,1 km/h (1 Bft) NO 38 1 min 0,000 mm 6,3 UV-I 751 W/m 12,5 C 6,4 km/h (2 Bft)
23.08.2016 12:27 20,3 C 20,3 C 60 % 1027,6 hPa 0,0 mm 3,7 km/h (1 Bft) O-NO 72 1 min 0,000 mm 6,3 UV-I 751 W/m 12,3 C 6,4 km/h (2 Bft)
23.08.2016 12:28 20,4 C 20,4 C 62 % 1027,5 hPa 0,0 mm 5,2 km/h (1 Bft) N-NO 18 1 min 0,000 mm 6,1 UV-I 751 W/m 12,9 C 9,7 km/h (2 Bft)
23.08.2016 12:29 20,4 C 20,4 C 57 % 1027,5 hPa 0,0 mm 8,0 km/h (2 Bft) NO 51 1 min 0,000 mm 6,3 UV-I 788 W/m 11,6 C 12,9 km/h (3 Bft)
23.08.2016 12:30 20,4 C 20,4 C 60 % 1027,5 hPa 0,0 mm 8,9 km/h (2 Bft) O 89 1 min 0,000 mm 6,3 UV-I 788 W/m 12,4 C 12,9 km/h (3 Bft)
23.08.2016 12:31 20,4 C 20,5 C 58 % 1027,5 hPa 0,0 mm 6,2 km/h (2 Bft) NO 50 1 min 0,000 mm 6,3 UV-I 788 W/m 11,9 C 11,3 km/h (2 Bft)
23.08.2016 12:32 20,5 C 20,5 C 58 % 1027,5 hPa 0,0 mm 4,5 km/h (1 Bft) N-NO 22 1 min 0,000 mm 6,3 UV-I 789 W/m 11,9 C 8,0 km/h (2 Bft)
23.08.2016 12:33 20,5 C 20,5 C 60 % 1027,5 hPa 0,0 mm 7,8 km/h (2 Bft) O-SO 103 1 min 0,000 mm 4,2 UV-I 789 W/m 12,5 C 12,9 km/h (3 Bft)
23.08.2016 12:34 20,4 C 20,5 C 59 % 1027,5 hPa 0,0 mm 10,3 km/h (2 Bft) NO 36 1 min 0,000 mm 2,5 UV-I 789 W/m 12,1 C 16,1 km/h (3 Bft)
23.08.2016 12:35 20,4 C 20,4 C 59 % 1027,4 hPa 0,0 mm 8,0 km/h (2 Bft) N-NO 30 1 min 0,000 mm 6,3 UV-I 714 W/m 12,1 C 11,3 km/h (2 Bft)
23.08.2016 12:36 20,4 C 20,4 C 61 % 1027,5 hPa 0,0 mm 7,2 km/h (2 Bft) NO 56 1 min 0,000 mm 6,3 UV-I 714 W/m 12,6 C 11,3 km/h (2 Bft)
23.08.2016 12:37 20,4 C 20,4 C 58 % 1027,5 hPa 0,0 mm 7,9 km/h (2 Bft) N-NO 22 1 min 0,000 mm 6,3 UV-I 789 W/m 11,9 C 14,5 km/h (3 Bft)
23.08.2016 12:38 20,4 C 20,4 C 60 % 1027,5 hPa 0,0 mm 9,9 km/h (2 Bft) N-NO 20 1 min 0,000 mm 6,4 UV-I 789 W/m 12,4 C 16,1 km/h (3 Bft)
23.08.2016 12:39 20,5 C 20,5 C 60 % 1027,5 hPa 0,0 mm 10,3 km/h (2 Bft) N-NO 19 1 min 0,000 mm 6,4 UV-I 789 W/m 12,5 C 14,5 km/h (3 Bft)
23.08.2016 12:40 20,6 C 20,6 C 60 % 1027,5 hPa 0,0 mm 7,0 km/h (2 Bft) NO 36 1 min 0,000 mm 5,2 UV-I 789 W/m 12,6 C 12,9 km/h (3 Bft)
23.08.2016 12:41 20,5 C 20,6 C 59 % 1027,5 hPa 0,0 mm 7,1 km/h (2 Bft) NO 40 1 min 0,000 mm 6,4 UV-I 793 W/m 12,2 C 11,3 km/h (2 Bft)
23.08.2016 12:42 20,6 C 20,6 C 60 % 1027,5 hPa 0,0 mm 7,2 km/h (2 Bft) N 355 1 min 0,000 mm 6,4 UV-I 791 W/m 12,6 C 9,7 km/h (2 Bft)
23.08.2016 12:43 20,7 C 20,7 C 66 % 1027,4 hPa 0,0 mm 8,5 km/h (2 Bft) NO 39 1 min 0,000 mm 6,4 UV-I 793 W/m 14,1 C 14,5 km/h (3 Bft)
23.08.2016 12:44 20,7 C 20,7 C 60 % 1027,4 hPa 0,0 mm 6,1 km/h (2 Bft) NO 38 1 min 0,000 mm 6,4 UV-I 793 W/m 12,7 C 8,0 km/h (2 Bft)
23.08.2016 12:45 20,6 C 20,7 C 58 % 1027,4 hPa 0,0 mm 5,0 km/h (1 Bft) NO 50 1 min 0,000 mm 6,4 UV-I 793 W/m 12,0 C 8,0 km/h (2 Bft)
23.08.2016 12:46 20,7 C 20,7 C 62 % 1027,4 hPa 0,0 mm 8,8 km/h (2 Bft) O-NO 67 1 min 0,000 mm 6,4 UV-I 793 W/m 13,2 C 14,5 km/h (3 Bft)
23.08.2016 12:47 20,7 C 20,7 C 60 % 1027,3 hPa 0,0 mm 6,8 km/h (2 Bft) NO 49 1 min 0,000 mm 6,4 UV-I 795 W/m 12,7 C 11,3 km/h (2 Bft)
23.08.2016 12:48 20,7 C 20,7 C 60 % 1027,3 hPa 0,0 mm 7,6 km/h (2 Bft) NO 39 1 min 0,000 mm 6,4 UV-I 795 W/m 12,7 C 12,9 km/h (3 Bft)
23.08.2016 12:49 20,8 C 20,8 C 63 % 1027,3 hPa 0,0 mm 6,1 km/h (2 Bft) N-NO 32 1 min 0,000 mm 6,4 UV-I 793 W/m 13,5 C 9,7 km/h (2 Bft)
23.08.2016 12:50 20,7 C 20,8 C 61 % 1027,3 hPa 0,0 mm 5,1 km/h (1 Bft) N-NO 26 1 min 0,000 mm 6,4 UV-I 795 W/m 12,9 C 12,9 km/h (3 Bft)
23.08.2016 12:51 20,8 C 20,8 C 63 % 1027,3 hPa 0,0 mm 8,4 km/h (2 Bft) O 92 1 min 0,000 mm 6,4 UV-I 796 W/m 13,5 C 12,9 km/h (3 Bft)
23.08.2016 12:52 20,8 C 20,8 C 64 % 1027,3 hPa 0,0 mm 5,3 km/h (1 Bft) N 351 1 min 0,000 mm 4,8 UV-I 796 W/m 13,7 C 8,0 km/h (2 Bft)
23.08.2016 12:53 20,9 C 20,9 C 60 % 1027,3 hPa 0,0 mm 5,4 km/h (1 Bft) N 355 1 min 0,000 mm 5,2 UV-I 795 W/m 12,8 C 9,7 km/h (2 Bft)
23.08.2016 12:54 20,9 C 20,9 C 58 % 1027,3 hPa 0,0 mm 7,9 km/h (2 Bft) N-NO 14 1 min 0,000 mm 6,4 UV-I 796 W/m 12,3 C 9,7 km/h (2 Bft)
23.08.2016 12:55 20,9 C 20,9 C 59 % 1027,2 hPa 0,0 mm 8,0 km/h (2 Bft) W-NW 298 1 min 0,000 mm 6,4 UV-I 796 W/m 12,6 C 14,5 km/h (3 Bft)
23.08.2016 12:56 20,9 C 21,0 C 63 % 1027,3 hPa 0,0 mm 8,0 km/h (2 Bft) N-NO 19 1 min 0,000 mm 6,5 UV-I 798 W/m 13,6 C 12,9 km/h (3 Bft)
23.08.2016 12:57 20,9 C 21,0 C 64 % 1027,2 hPa 0,0 mm 9,5 km/h (2 Bft) N-NO 33 1 min 0,000 mm 6,5 UV-I 798 W/m 13,8 C 17,7 km/h (3 Bft)
23.08.2016 12:58 20,8 C 20,9 C 62 % 1027,2 hPa 0,0 mm 6,6 km/h (2 Bft) NO 50 1 min 0,000 mm 6,5 UV-I 798 W/m 13,2 C 14,5 km/h (3 Bft)
23.08.2016 12:59 20,9 C 20,9 C 62 % 1027,2 hPa 0,0 mm 7,9 km/h (2 Bft) NO 41 1 min 0,000 mm 6,5 UV-I 798 W/m 13,3 C 14,5 km/h (3 Bft)
23.08.2016 13:00 21,0 C 21,0 C 65 % 1027,2 hPa 0,0 mm 7,6 km/h (2 Bft) NO 41 1 min 0,483 mm 6,5 UV-I 796 W/m 14,2 C 11,3 km/h (2 Bft)
23.08.2016 13:01 21,1 C 21,1 C 63 % 1027,2 hPa 0,0 mm 7,2 km/h (2 Bft) NO 42 1 min 0,000 mm 6,5 UV-I 796 W/m 13,8 C 9,7 km/h (2 Bft)
23.08.2016 13:02 21,1 C 21,1 C 60 % 1027,2 hPa 0,0 mm 7,5 km/h (2 Bft) N-NO 15 1 min 0,000 mm 6,5 UV-I 798 W/m 13,0 C 11,3 km/h (2 Bft)
23.08.2016 13:03 21,0 C 21,1 C 59 % 1027,2 hPa 0,0 mm 4,5 km/h (1 Bft) NO 51 1 min 0,000 mm 6,5 UV-I 798 W/m 12,7 C 6,4 km/h (2 Bft)
23.08.2016 13:04 21,0 C 21,0 C 60 % 1027,1 hPa 0,0 mm 10,3 km/h (2 Bft) NO 55 1 min 0,000 mm 6,5 UV-I 798 W/m 12,9 C 14,5 km/h (3 Bft)
23.08.2016 13:05 21,0 C 21,0 C 63 % 1027,1 hPa 0,0 mm 7,1 km/h (2 Bft) NO 48 1 min 0,000 mm 6,5 UV-I 798 W/m 13,7 C 12,9 km/h (3 Bft)
23.08.2016 13:06 21,0 C 21,0 C 61 % 1027,1 hPa 0,0 mm 8,6 km/h (2 Bft) O-NO 77 1 min 0,000 mm 6,5 UV-I 798 W/m 13,2 C 14,5 km/h (3 Bft)
23.08.2016 13:07 20,9 C 21,0 C 60 % 1027,1 hPa 0,0 mm 8,2 km/h (2 Bft) N 355 1 min 0,000 mm 6,5 UV-I 798 W/m 12,8 C 17,7 km/h (3 Bft)
23.08.2016 13:08 20,8 C 20,9 C 60 % 1027,1 hPa 0,0 mm 8,2 km/h (2 Bft) NW 324 1 min 0,000 mm 6,5 UV-I 798 W/m 12,7 C 12,9 km/h (3 Bft)
23.08.2016 13:09 20,9 C 20,9 C 63 % 1027,1 hPa 0,0 mm 5,0 km/h (1 Bft) N 9 1 min 0,000 mm 6,5 UV-I 798 W/m 13,6 C 8,0 km/h (2 Bft)
23.08.2016 13:10 21,1 C 21,1 C 62 % 1027,1 hPa 0,0 mm 9,6 km/h (2 Bft) N 5 1 min 0,000 mm 6,5 UV-I 798 W/m 13,5 C 16,1 km/h (3 Bft)
23.08.2016 13:11 21,2 C 21,2 C 61 % 1027,0 hPa 0,0 mm 9,3 km/h (2 Bft) N-NO 33 1 min 0,000 mm 6,5 UV-I 798 W/m 13,4 C 12,9 km/h (3 Bft)
23.08.2016 13:12 21,3 C 21,3 C 60 % 1027,1 hPa 0,0 mm 6,4 km/h (2 Bft) N 5 1 min 0,000 mm 6,5 UV-I 800 W/m 13,2 C 9,7 km/h (2 Bft)
23.08.2016 13:13 21,2 C 21,3 C 58 % 1027,1 hPa 0,0 mm 11,6 km/h (2 Bft) N 9 1 min 0,000 mm 6,5 UV-I 798 W/m 12,6 C 16,1 km/h (3 Bft)
23.08.2016 13:14 21,3 C 21,3 C 59 % 1027,1 hPa 0,0 mm 6,7 km/h (2 Bft) N-NO 26 1 min 0,000 mm 6,5 UV-I 800 W/m 13,0 C 12,9 km/h (3 Bft)
23.08.2016 13:15 21,3 C 21,3 C 62 % 1027,1 hPa 0,0 mm 7,9 km/h (2 Bft) N 360 1 min 0,000 mm 6,5 UV-I 798 W/m 13,7 C 12,9 km/h (3 Bft)
23.08.2016 13:16 21,3 C 21,3 C 59 % 1027,1 hPa 0,0 mm 7,0 km/h (2 Bft) N 5 1 min 0,000 mm 6,5 UV-I 798 W/m 13,0 C 9,7 km/h (2 Bft)
23.08.2016 13:17 21,3 C 21,3 C 61 % 1027,1 hPa 0,0 mm 9,2 km/h (2 Bft) NO 36 1 min 0,000 mm 6,5 UV-I 800 W/m 13,5 C 16,1 km/h (3 Bft)
23.08.2016 13:18 21,2 C 21,3 C 58 % 1027,1 hPa 0,0 mm 3,4 km/h (1 Bft) N-NO 20 1 min 0,000 mm 6,5 UV-I 798 W/m 12,6 C 8,0 km/h (2 Bft)
23.08.2016 13:19 21,2 C 21,2 C 62 % 1027,0 hPa 0,0 mm 6,6 km/h (2 Bft) O-NO 73 1 min 0,000 mm 6,5 UV-I 798 W/m 13,6 C 14,5 km/h (3 Bft)
23.08.2016 13:20 21,2 C 21,2 C 61 % 1027,0 hPa 0,0 mm 5,1 km/h (1 Bft) N-NO 27 1 min 0,000 mm 6,5 UV-I 798 W/m 13,4 C 8,0 km/h (2 Bft)
23.08.2016 13:21 21,2 C 21,2 C 65 % 1027,1 hPa 0,0 mm 10,4 km/h (2 Bft) NO 51 1 min 0,000 mm 6,5 UV-I 798 W/m 14,4 C 14,5 km/h (3 Bft)
23.08.2016 13:22 21,1 C 21,2 C 61 % 1027,1 hPa 0,0 mm 6,4 km/h (2 Bft) NO 43 1 min 0,000 mm 6,5 UV-I 798 W/m 13,3 C 11,3 km/h (2 Bft)
23.08.2016 13:23 21,1 C 21,1 C 59 % 1027,0 hPa 0,0 mm 7,7 km/h (2 Bft) N 5 1 min 0,000 mm 6,5 UV-I 798 W/m 12,8 C 14,5 km/h (3 Bft)
23.08.2016 13:24 21,1 C 21,1 C 61 % 1027,0 hPa 0,0 mm 3,8 km/h (1 Bft) N-NO 28 1 min 0,000 mm 6,5 UV-I 798 W/m 13,3 C 6,4 km/h (2 Bft)
23.08.2016 13:25 21,1 C 21,1 C 62 % 1027,0 hPa 0,0 mm 8,6 km/h (2 Bft) N-NO 12 1 min 0,000 mm 6,5 UV-I 800 W/m 13,5 C 12,9 km/h (3 Bft)
23.08.2016 13:26 21,2 C 21,2 C 60 % 1027,0 hPa 0,0 mm 8,6 km/h (2 Bft) N-NO 23 1 min 0,000 mm 6,5 UV-I 798 W/m 13,1 C 16,1 km/h (3 Bft)
23.08.2016 13:27 21,2 C 21,2 C 60 % 1027,0 hPa 0,0 mm 7,8 km/h (2 Bft) O-NO 59 1 min 0,000 mm 6,5 UV-I 800 W/m 13,1 C 12,9 km/h (3 Bft)
23.08.2016 13:28 21,2 C 21,2 C 60 % 1027,0 hPa 0,0 mm 7,4 km/h (2 Bft) NO 36 1 min 0,000 mm 6,5 UV-I 798 W/m 13,1 C 9,7 km/h (2 Bft)
23.08.2016 13:29 21,2 C 21,2 C 63 % 1027,0 hPa 0,0 mm 7,1 km/h (2 Bft) O-NO 61 1 min 0,000 mm 6,5 UV-I 796 W/m 13,9 C 11,3 km/h (2 Bft)
23.08.2016 13:30 21,2 C 21,2 C 60 % 1027,0 hPa 0,0 mm 6,8 km/h (2 Bft) N 5 1 min 0,000 mm 6,5 UV-I 798 W/m 13,1 C 12,9 km/h (3 Bft)
23.08.2016 13:31 21,2 C 21,2 C 62 % 1027,0 hPa 0,0 mm 5,6 km/h (1 Bft) N-NW 338 1 min 0,000 mm 6,5 UV-I 798 W/m 13,6 C 9,7 km/h (2 Bft)
23.08.2016 13:32 21,2 C 21,2 C 63 % 1027,0 hPa 0,0 mm 9,4 km/h (2 Bft) NO 38 1 min 0,000 mm 6,5 UV-I 796 W/m 13,9 C 16,1 km/h (3 Bft)
23.08.2016 13:33 21,3 C 21,3 C 60 % 1027,0 hPa 0,0 mm 8,6 km/h (2 Bft) N-NO 24 1 min 0,000 mm 6,5 UV-I 798 W/m 13,2 C 14,5 km/h (3 Bft)
23.08.2016 13:34 21,3 C 21,3 C 60 % 1027,0 hPa 0,0 mm 9,8 km/h (2 Bft) O 95 1 min 0,000 mm 6,5 UV-I 800 W/m 13,2 C 16,1 km/h (3 Bft)
23.08.2016 13:35 21,3 C 21,3 C 65 % 1026,9 hPa 0,0 mm 8,9 km/h (2 Bft) O-NO 78 1 min 0,000 mm 6,5 UV-I 796 W/m 14,4 C 14,5 km/h (3 Bft)
23.08.2016 13:36 21,2 C 21,3 C 61 % 1026,9 hPa 0,0 mm 7,2 km/h (2 Bft) O-NO 71 1 min 0,000 mm 6,5 UV-I 796 W/m 13,4 C 12,9 km/h (3 Bft)
23.08.2016 13:37 21,2 C 21,2 C 60 % 1026,9 hPa 0,0 mm 7,0 km/h (2 Bft) N 5 1 min 0,000 mm 6,5 UV-I 795 W/m 13,1 C 8,0 km/h (2 Bft)
23.08.2016 13:38 21,2 C 21,2 C 58 % 1026,9 hPa 0,0 mm 7,9 km/h (2 Bft) NO 37 1 min 0,000 mm 6,5 UV-I 796 W/m 12,6 C 9,7 km/h (2 Bft)
23.08.2016 13:39 21,2 C 21,2 C 59 % 1026,9 hPa 0,0 mm 6,4 km/h (2 Bft) N-NO 15 1 min 0,000 mm 6,5 UV-I 796 W/m 12,9 C 11,3 km/h (2 Bft)
23.08.2016 13:40 21,3 C 21,3 C 61 % 1026,9 hPa 0,0 mm 4,4 km/h (1 Bft) N-NO 30 1 min 0,000 mm 6,4 UV-I 796 W/m 13,5 C 6,4 km/h (2 Bft)
23.08.2016 13:41 21,4 C 21,4 C 62 % 1026,9 hPa 0,0 mm 5,0 km/h (1 Bft) N-NW 348 1 min 0,000 mm 6,4 UV-I 796 W/m 13,8 C 8,0 km/h (2 Bft)
23.08.2016 13:42 21,6 C 21,6 C 62 % 1026,8 hPa 0,0 mm 8,1 km/h (2 Bft) N-NW 346 1 min 0,000 mm 6,4 UV-I 793 W/m 14,0 C 12,9 km/h (3 Bft)
23.08.2016 13:43 21,6 C 21,6 C 59 % 1026,8 hPa 0,0 mm 10,5 km/h (2 Bft) N 11 1 min 0,000 mm 6,4 UV-I 795 W/m 13,2 C 14,5 km/h (3 Bft)
23.08.2016 13:44 21,6 C 21,6 C 59 % 1026,8 hPa 0,0 mm 5,4 km/h (1 Bft) N 355 1 min 0,000 mm 6,4 UV-I 793 W/m 13,2 C 8,0 km/h (2 Bft)
23.08.2016 13:45 21,8 C 21,8 C 59 % 1026,8 hPa 0,0 mm 5,8 km/h (2 Bft) N-NO 17 1 min 0,000 mm 6,4 UV-I 793 W/m 13,4 C 8,0 km/h (2 Bft)
23.08.2016 13:46 21,8 C 21,8 C 62 % 1026,8 hPa 0,0 mm 5,5 km/h (1 Bft) O-NO 66 1 min 0,000 mm 6,4 UV-I 793 W/m 14,2 C 9,7 km/h (2 Bft)
23.08.2016 13:47 21,8 C 21,8 C 63 % 1026,8 hPa 0,0 mm 6,3 km/h (2 Bft) NO 49 1 min 0,000 mm 6,4 UV-I 791 W/m 14,4 C 9,7 km/h (2 Bft)
23.08.2016 13:48 21,8 C 21,8 C 58 % 1026,8 hPa 0,0 mm 7,1 km/h (2 Bft) NO 40 1 min 0,000 mm 6,4 UV-I 791 W/m 13,2 C 16,1 km/h (3 Bft)
23.08.2016 13:49 21,8 C 21,8 C 57 % 1026,8 hPa 0,0 mm 11,8 km/h (2 Bft) O-SO 109 1 min 0,000 mm 6,4 UV-I 793 W/m 12,9 C 14,5 km/h (3 Bft)
23.08.2016 13:50 21,7 C 21,8 C 59 % 1026,8 hPa 0,0 mm 9,9 km/h (2 Bft) SO 141 1 min 0,000 mm 6,4 UV-I 791 W/m 13,3 C 14,5 km/h (3 Bft)
23.08.2016 13:51 21,6 C 21,7 C 58 % 1026,8 hPa 0,0 mm 8,9 km/h (2 Bft) N-NO 33 1 min 0,000 mm 6,4 UV-I 791 W/m 13,0 C 12,9 km/h (3 Bft)
23.08.2016 13:52 21,6 C 21,6 C 59 % 1026,8 hPa 0,0 mm 4,0 km/h (1 Bft) NO 53 1 min 0,000 mm 6,4 UV-I 791 W/m 13,2 C 8,0 km/h (2 Bft)
23.08.2016 13:53 21,5 C 21,6 C 58 % 1026,7 hPa 0,0 mm 6,3 km/h (2 Bft) NO 48 1 min 0,000 mm 6,4 UV-I 791 W/m 12,9 C 14,5 km/h (3 Bft)
23.08.2016 13:54 21,5 C 21,5 C 61 % 1026,7 hPa 0,0 mm 8,0 km/h (2 Bft) W-NW 287 1 min 0,000 mm 6,4 UV-I 789 W/m 13,7 C 12,9 km/h (3 Bft)
23.08.2016 13:55 21,5 C 21,5 C 59 % 1026,7 hPa 0,0 mm 4,0 km/h (1 Bft) N-NO 22 1 min 0,000 mm 6,4 UV-I 788 W/m 13,1 C 4,8 km/h (1 Bft)
23.08.2016 13:56 21,5 C 21,6 C 58 % 1026,7 hPa 0,0 mm 5,6 km/h (1 Bft) O-NO 71 1 min 0,000 mm 6,4 UV-I 788 W/m 12,9 C 6,4 km/h (2 Bft)
23.08.2016 13:57 21,5 C 21,5 C 59 % 1026,7 hPa 0,0 mm 5,7 km/h (1 Bft) O-NO 59 1 min 0,000 mm 6,4 UV-I 788 W/m 13,1 C 11,3 km/h (2 Bft)
23.08.2016 13:58 21,5 C 21,6 C 58 % 1026,7 hPa 0,0 mm 11,3 km/h (2 Bft) O-NO 73 1 min 0,000 mm 6,4 UV-I 786 W/m 12,9 C 16,1 km/h (3 Bft)
23.08.2016 13:59 21,6 C 21,6 C 61 % 1026,7 hPa 0,0 mm 6,9 km/h (2 Bft) NO 54 1 min 0,000 mm 6,3 UV-I 786 W/m 13,7 C 12,9 km/h (3 Bft)
23.08.2016 14:00 21,6 C 21,6 C 58 % 1026,7 hPa 0,0 mm 7,0 km/h (2 Bft) N-NO 17 1 min 0,000 mm 6,3 UV-I 786 W/m 13,0 C 11,3 km/h (2 Bft)
23.08.2016 14:01 21,6 C 21,6 C 59 % 1026,7 hPa 0,0 mm 8,5 km/h (2 Bft) O-NO 68 1 min 0,508 mm 6,3 UV-I 782 W/m 13,2 C 16,1 km/h (3 Bft)
23.08.2016 14:02 21,7 C 21,7 C 58 % 1026,7 hPa 0,0 mm 7,6 km/h (2 Bft) N-NO 31 1 min 0,000 mm 6,3 UV-I 784 W/m 13,1 C 14,5 km/h (3 Bft)
23.08.2016 14:03 21,6 C 21,7 C 57 % 1026,7 hPa 0,0 mm 4,0 km/h (1 Bft) N-NO 28 1 min 0,000 mm 6,3 UV-I 782 W/m 12,7 C 8,0 km/h (2 Bft)
23.08.2016 14:04 21,6 C 21,6 C 58 % 1026,7 hPa 0,0 mm 4,0 km/h (1 Bft) O-NO 59 1 min 0,000 mm 6,3 UV-I 782 W/m 13,0 C 8,0 km/h (2 Bft)
23.08.2016 14:05 21,6 C 21,6 C 57 % 1026,6 hPa 0,0 mm 6,2 km/h (2 Bft) S-SO 158 1 min 0,000 mm 6,3 UV-I 782 W/m 12,7 C 9,7 km/h (2 Bft)
23.08.2016 14:06 21,6 C 21,6 C 57 % 1026,6 hPa 0,0 mm 3,6 km/h (1 Bft) O-NO 67 1 min 0,000 mm 6,3 UV-I 780 W/m 12,7 C 6,4 km/h (2 Bft)
23.08.2016 14:07 21,6 C 21,6 C 60 % 1026,6 hPa 0,0 mm 5,2 km/h (1 Bft) O-NO 66 1 min 0,000 mm 6,3 UV-I 779 W/m 13,5 C 8,0 km/h (2 Bft)
23.08.2016 14:08 21,6 C 21,6 C 60 % 1026,6 hPa 0,0 mm 8,3 km/h (2 Bft) O 87 1 min 0,000 mm 6,3 UV-I 779 W/m 13,5 C 14,5 km/h (3 Bft)
23.08.2016 14:09 21,7 C 21,7 C 61 % 1026,6 hPa 0,0 mm 7,4 km/h (2 Bft) N-NO 29 1 min 0,000 mm 6,3 UV-I 779 W/m 13,8 C 12,9 km/h (3 Bft)
23.08.2016 14:10 21,7 C 21,7 C 59 % 1026,6 hPa 0,0 mm 8,3 km/h (2 Bft) NO 52 1 min 0,000 mm 6,3 UV-I 779 W/m 13,3 C 16,1 km/h (3 Bft)
23.08.2016 14:11 21,7 C 21,7 C 58 % 1026,6 hPa 0,0 mm 9,4 km/h (2 Bft) O-NO 61 1 min 0,000 mm 6,2 UV-I 777 W/m 13,1 C 14,5 km/h (3 Bft)
23.08.2016 14:12 21,6 C 21,7 C 62 % 1026,6 hPa 0,0 mm 4,2 km/h (1 Bft) O-NO 72 1 min 0,000 mm 6,2 UV-I 775 W/m 14,0 C 6,4 km/h (2 Bft)
23.08.2016 14:13 21,7 C 21,7 C 65 % 1026,6 hPa 0,0 mm 5,4 km/h (1 Bft) O-NO 61 1 min 0,000 mm 6,2 UV-I 772 W/m 14,8 C 8,0 km/h (2 Bft)
23.08.2016 14:14 21,7 C 21,7 C 57 % 1026,6 hPa 0,0 mm 7,6 km/h (2 Bft) N 360 1 min 0,000 mm 6,2 UV-I 775 W/m 12,8 C 12,9 km/h (3 Bft)
23.08.2016 14:15 21,8 C 21,8 C 60 % 1026,5 hPa 0,0 mm 4,7 km/h (1 Bft) NO 39 1 min 0,000 mm 6,2 UV-I 773 W/m 13,7 C 6,4 km/h (2 Bft)
23.08.2016 14:16 21,8 C 21,8 C 61 % 1026,5 hPa 0,0 mm 3,8 km/h (1 Bft) O-NO 74 1 min 0,000 mm 6,2 UV-I 773 W/m 13,9 C 8,0 km/h (2 Bft)
23.08.2016 14:17 21,9 C 21,9 C 61 % 1026,5 hPa 0,0 mm 5,6 km/h (1 Bft) N-NO 18 1 min 0,000 mm 6,2 UV-I 772 W/m 14,0 C 11,3 km/h (2 Bft)
23.08.2016 14:18 21,8 C 21,9 C 60 % 1026,6 hPa 0,0 mm 6,4 km/h (2 Bft) NO 38 1 min 0,000 mm 6,2 UV-I 770 W/m 13,7 C 9,7 km/h (2 Bft)
23.08.2016 14:19 21,8 C 21,8 C 59 % 1026,6 hPa 0,0 mm 6,8 km/h (2 Bft) NO 38 1 min 0,000 mm 6,2 UV-I 770 W/m 13,4 C 11,3 km/h (2 Bft)
23.08.2016 14:20 21,8 C 21,8 C 58 % 1026,4 hPa 0,0 mm 5,8 km/h (2 Bft) N-NO 19 1 min 0,000 mm 6,1 UV-I 770 W/m 13,2 C 8,0 km/h (2 Bft)
23.08.2016 14:21 21,9 C 21,9 C 60 % 1026,5 hPa 0,0 mm 5,2 km/h (1 Bft) SO 128 1 min 0,000 mm 6,1 UV-I 768 W/m 13,8 C 8,0 km/h (2 Bft)
23.08.2016 14:22 21,9 C 21,9 C 62 % 1026,4 hPa 0,0 mm 4,7 km/h (1 Bft) NO 44 1 min 0,000 mm 6,1 UV-I 766 W/m 14,3 C 8,0 km/h (2 Bft)
23.08.2016 14:23 21,9 C 21,9 C 60 % 1026,4 hPa 0,0 mm 6,9 km/h (2 Bft) NO 51 1 min 0,000 mm 6,1 UV-I 765 W/m 13,8 C 12,9 km/h (3 Bft)
23.08.2016 14:24 21,9 C 21,9 C 60 % 1026,4 hPa 0,0 mm 4,7 km/h (1 Bft) O-NO 69 1 min 0,000 mm 6,1 UV-I 765 W/m 13,8 C 9,7 km/h (2 Bft)
23.08.2016 14:25 21,8 C 21,9 C 61 % 1026,4 hPa 0,0 mm 7,6 km/h (2 Bft) NO 53 1 min 0,000 mm 6,1 UV-I 763 W/m 13,9 C 14,5 km/h (3 Bft)
23.08.2016 14:26 21,8 C 21,9 C 59 % 1026,4 hPa 0,0 mm 11,9 km/h (2 Bft) N 5 1 min 0,000 mm 6,0 UV-I 763 W/m 13,4 C 17,7 km/h (3 Bft)
23.08.2016 14:27 21,9 C 21,9 C 58 % 1026,4 hPa 0,0 mm 7,6 km/h (2 Bft) N 360 1 min 0,000 mm 6,0 UV-I 761 W/m 13,3 C 14,5 km/h (3 Bft)
23.08.2016 14:28 22,0 C 22,0 C 59 % 1026,3 hPa 0,0 mm 3,6 km/h (1 Bft) N-NO 32 1 min 0,000 mm 6,0 UV-I 759 W/m 13,6 C 4,8 km/h (1 Bft)
23.08.2016 14:29 22,0 C 22,0 C 59 % 1026,3 hPa 0,0 mm 1,2 km/h (1 Bft) O-NO 69 1 min 0,000 mm 6,0 UV-I 758 W/m 13,6 C 3,2 km/h (1 Bft)
23.08.2016 14:30 22,0 C 22,0 C 60 % 1026,3 hPa 0,0 mm 5,7 km/h (1 Bft) O-NO 65 1 min 0,000 mm 6,0 UV-I 758 W/m 13,9 C 9,7 km/h (2 Bft)
23.08.2016 14:31 21,9 C 22,0 C 60 % 1026,3 hPa 0,0 mm 6,0 km/h (2 Bft) S 188 1 min 0,000 mm 6,0 UV-I 758 W/m 13,8 C 11,3 km/h (2 Bft)
23.08.2016 14:32 21,9 C 21,9 C 59 % 1026,4 hPa 0,0 mm 6,3 km/h (2 Bft) N 351 1 min 0,000 mm 6,0 UV-I 756 W/m 13,5 C 9,7 km/h (2 Bft)
23.08.2016 14:33 22,0 C 22,0 C 61 % 1026,2 hPa 0,0 mm 8,3 km/h (2 Bft) NO 35 1 min 0,000 mm 6,0 UV-I 754 W/m 14,1 C 14,5 km/h (3 Bft)
23.08.2016 14:34 21,9 C 22,0 C 57 % 1026,3 hPa 0,0 mm 7,8 km/h (2 Bft) N 355 1 min 0,000 mm 5,9 UV-I 754 W/m 13,0 C 14,5 km/h (3 Bft)
23.08.2016 14:35 21,9 C 21,9 C 60 % 1026,3 hPa 0,0 mm 7,1 km/h (2 Bft) O 86 1 min 0,000 mm 5,9 UV-I 752 W/m 13,8 C 14,5 km/h (3 Bft)
23.08.2016 14:36 21,9 C 21,9 C 59 % 1026,2 hPa 0,0 mm 6,6 km/h (2 Bft) N-NW 335 1 min 0,000 mm 5,9 UV-I 751 W/m 13,5 C 12,9 km/h (3 Bft)
23.08.2016 14:37 21,9 C 21,9 C 61 % 1026,3 hPa 0,0 mm 8,6 km/h (2 Bft) N 351 1 min 0,000 mm 5,9 UV-I 749 W/m 14,0 C 14,5 km/h (3 Bft)
23.08.2016 14:38 22,0 C 22,0 C 59 % 1026,2 hPa 0,0 mm 6,5 km/h (2 Bft) N 9 1 min 0,000 mm 5,9 UV-I 749 W/m 13,6 C 12,9 km/h (3 Bft)
23.08.2016 14:39 22,2 C 22,2 C 66 % 1026,2 hPa 0,0 mm 2,3 km/h (1 Bft) O 89 1 min 0,000 mm 5,9 UV-I 747 W/m 15,5 C 8,0 km/h (2 Bft)
23.08.2016 14:40 22,3 C 22,3 C 62 % 1026,2 hPa 0,0 mm 7,7 km/h (2 Bft) O-NO 63 1 min 0,000 mm 5,9 UV-I 745 W/m 14,7 C 12,9 km/h (3 Bft)
23.08.2016 14:41 22,3 C 22,3 C 58 % 1026,3 hPa 0,0 mm 7,3 km/h (2 Bft) NO 44 1 min 0,000 mm 5,8 UV-I 744 W/m 13,6 C 9,7 km/h (2 Bft)
23.08.2016 14:42 22,3 C 22,3 C 57 % 1026,3 hPa 0,0 mm 7,3 km/h (2 Bft) N 355 1 min 0,000 mm 5,8 UV-I 744 W/m 13,4 C 9,7 km/h (2 Bft)
23.08.2016 14:43 22,2 C 22,3 C 58 % 1026,3 hPa 0,0 mm 4,8 km/h (1 Bft) NO 34 1 min 0,000 mm 5,8 UV-I 744 W/m 13,5 C 12,9 km/h (3 Bft)
23.08.2016 14:44 22,2 C 22,3 C 57 % 1026,3 hPa 0,0 mm 3,5 km/h (1 Bft) N-NO 27 1 min 0,000 mm 5,8 UV-I 742 W/m 13,3 C 4,8 km/h (1 Bft)
23.08.2016 14:45 22,2 C 22,2 C 63 % 1026,3 hPa 0,0 mm 4,3 km/h (1 Bft) NO 46 1 min 0,000 mm 5,8 UV-I 742 W/m 14,8 C 6,4 km/h (2 Bft)
23.08.2016 14:46 22,3 C 22,3 C 63 % 1026,3 hPa 0,0 mm 3,8 km/h (1 Bft) N 5 1 min 0,000 mm 5,8 UV-I 740 W/m 14,9 C 6,4 km/h (2 Bft)
23.08.2016 14:47 22,3 C 22,3 C 57 % 1026,3 hPa 0,0 mm 6,8 km/h (2 Bft) O-NO 58 1 min 0,000 mm 5,8 UV-I 737 W/m 13,4 C 11,3 km/h (2 Bft)
23.08.2016 14:48 22,3 C 22,3 C 58 % 1026,3 hPa 0,0 mm 4,0 km/h (1 Bft) O-NO 73 1 min 0,000 mm 5,8 UV-I 737 W/m 13,6 C 8,0 km/h (2 Bft)
23.08.2016 14:49 22,2 C 22,3 C 55 % 1026,3 hPa 0,0 mm 4,7 km/h (1 Bft) N-NW 330 1 min 0,000 mm 5,7 UV-I 737 W/m 12,7 C 8,0 km/h (2 Bft)
23.08.2016 14:50 22,1 C 22,2 C 57 % 1026,3 hPa 0,0 mm 4,8 km/h (1 Bft) O 90 1 min 0,000 mm 5,7 UV-I 735 W/m 13,2 C 11,3 km/h (2 Bft)
23.08.2016 14:51 22,1 C 22,1 C 59 % 1026,2 hPa 0,0 mm 8,2 km/h (2 Bft) O-NO 76 1 min 0,000 mm 5,7 UV-I 733 W/m 13,7 C 12,9 km/h (3 Bft)
23.08.2016 14:52 22,1 C 22,1 C 60 % 1026,2 hPa 0,0 mm 5,7 km/h (1 Bft) O-NO 72 1 min 0,000 mm 5,6 UV-I 731 W/m 14,0 C 8,0 km/h (2 Bft)
23.08.2016 14:54 22,1 C 22,1 C 57 % 1026,2 hPa 0,0 mm 5,7 km/h (1 Bft) N-NO 17 2 min 0,000 mm 5,4 UV-I 729 W/m 13,2 C 9,7 km/h (2 Bft)
23.08.2016 14:55 22,2 C 22,2 C 57 % 1026,2 hPa 0,0 mm 3,5 km/h (1 Bft) N-NO 28 1 min 0,000 mm 5,3 UV-I 729 W/m 13,3 C 8,0 km/h (2 Bft)
23.08.2016 14:56 22,2 C 22,2 C 57 % 1026,2 hPa 0,0 mm 6,9 km/h (2 Bft) N-NO 18 1 min 0,000 mm 5,3 UV-I 728 W/m 13,3 C 14,5 km/h (3 Bft)
23.08.2016 14:57 22,3 C 22,3 C 57 % 1026,2 hPa 0,0 mm 5,2 km/h (1 Bft) N 5 1 min 0,000 mm 5,2 UV-I 724 W/m 13,4 C 6,4 km/h (2 Bft)
23.08.2016 14:58 22,3 C 22,3 C 59 % 1026,1 hPa 0,0 mm 4,9 km/h (1 Bft) O 83 1 min 0,000 mm 5,0 UV-I 726 W/m 13,9 C 8,0 km/h (2 Bft)
23.08.2016 14:59 22,4 C 22,4 C 58 % 1026,1 hPa 0,0 mm 8,5 km/h (2 Bft) O 88 1 min 0,000 mm 5,0 UV-I 721 W/m 13,7 C 12,9 km/h (3 Bft)
23.08.2016 15:00 22,3 C 22,4 C 58 % 1026,1 hPa 0,0 mm 9,7 km/h (2 Bft) O-NO 78 1 min 0,000 mm 4,9 UV-I 715 W/m 13,6 C 12,9 km/h (3 Bft)
23.08.2016 15:01 22,2 C 22,3 C 58 % 1026,1 hPa 0,0 mm 6,2 km/h (2 Bft) NO 36 1 min 0,482 mm 4,9 UV-I 719 W/m 13,5 C 12,9 km/h (3 Bft)
23.08.2016 15:02 22,2 C 22,2 C 59 % 1026,1 hPa 0,0 mm 8,4 km/h (2 Bft) N 5 1 min 0,000 mm 4,9 UV-I 719 W/m 13,8 C 12,9 km/h (3 Bft)
23.08.2016 15:03 22,3 C 22,3 C 60 % 1026,1 hPa 0,0 mm 4,3 km/h (1 Bft) N-NO 32 1 min 0,000 mm 4,9 UV-I 717 W/m 14,2 C 11,3 km/h (2 Bft)
23.08.2016 15:04 22,3 C 22,3 C 57 % 1026,1 hPa 0,0 mm 2,1 km/h (1 Bft) O 88 1 min 0,000 mm 4,9 UV-I 714 W/m 13,4 C 4,8 km/h (1 Bft)
23.08.2016 15:05 22,3 C 22,3 C 59 % 1026,1 hPa 0,0 mm 5,4 km/h (1 Bft) NO 53 1 min 0,000 mm 4,9 UV-I 712 W/m 13,9 C 8,0 km/h (2 Bft)
23.08.2016 15:06 22,3 C 22,3 C 57 % 1026,0 hPa 0,0 mm 6,5 km/h (2 Bft) NO 45 1 min 0,000 mm 4,8 UV-I 710 W/m 13,4 C 14,5 km/h (3 Bft)
23.08.2016 15:07 22,4 C 22,4 C 59 % 1026,1 hPa 0,0 mm 6,7 km/h (2 Bft) NW 306 1 min 0,000 mm 4,8 UV-I 710 W/m 14,0 C 12,9 km/h (3 Bft)
23.08.2016 15:08 22,5 C 22,5 C 58 % 1026,0 hPa 0,0 mm 8,6 km/h (2 Bft) N 5 1 min 0,000 mm 4,8 UV-I 708 W/m 13,8 C 14,5 km/h (3 Bft)
23.08.2016 15:09 22,4 C 22,5 C 57 % 1026,0 hPa 0,0 mm 7,8 km/h (2 Bft) N 355 1 min 0,000 mm 4,8 UV-I 707 W/m 13,5 C 12,9 km/h (3 Bft)
23.08.2016 15:10 22,4 C 22,4 C 58 % 1026,1 hPa 0,0 mm 5,2 km/h (1 Bft) N 355 1 min 0,000 mm 4,7 UV-I 707 W/m 13,7 C 6,4 km/h (2 Bft)
23.08.2016 15:11 22,5 C 22,5 C 57 % 1026,0 hPa 0,0 mm 6,8 km/h (2 Bft) N-NW 335 1 min 0,000 mm 4,7 UV-I 705 W/m 13,5 C 11,3 km/h (2 Bft)
23.08.2016 15:12 22,5 C 22,6 C 56 % 1026,0 hPa 0,0 mm 11,1 km/h (2 Bft) N 360 1 min 0,000 mm 4,7 UV-I 703 W/m 13,3 C 16,1 km/h (3 Bft)
23.08.2016 15:13 22,4 C 22,5 C 56 % 1026,1 hPa 0,0 mm 5,9 km/h (2 Bft) O-NO 63 1 min 0,000 mm 4,7 UV-I 701 W/m 13,2 C 11,3 km/h (2 Bft)
23.08.2016 15:14 22,4 C 22,4 C 57 % 1026,0 hPa 0,0 mm 4,7 km/h (1 Bft) N-NO 31 1 min 0,000 mm 4,7 UV-I 700 W/m 13,5 C 6,4 km/h (2 Bft)
23.08.2016 15:15 22,3 C 22,4 C 59 % 1026,0 hPa 0,0 mm 7,7 km/h (2 Bft) N-NO 17 1 min 0,000 mm 4,7 UV-I 696 W/m 13,9 C 14,5 km/h (3 Bft)
23.08.2016 15:16 22,4 C 22,4 C 59 % 1026,0 hPa 0,0 mm 7,4 km/h (2 Bft) O-NO 64 1 min 0,000 mm 4,7 UV-I 696 W/m 14,0 C 11,3 km/h (2 Bft)
23.08.2016 15:17 22,4 C 22,4 C 57 % 1026,0 hPa 0,0 mm 7,7 km/h (2 Bft) NO 45 1 min 0,000 mm 4,7 UV-I 694 W/m 13,5 C 12,9 km/h (3 Bft)
23.08.2016 15:18 22,4 C 22,4 C 56 % 1026,0 hPa 0,0 mm 4,1 km/h (1 Bft) NO 54 1 min 0,000 mm 4,7 UV-I 693 W/m 13,2 C 6,4 km/h (2 Bft)
23.08.2016 15:19 22,3 C 22,4 C 56 % 1026,0 hPa 0,0 mm 3,5 km/h (1 Bft) N-NW 343 1 min 0,000 mm 4,7 UV-I 691 W/m 13,1 C 6,4 km/h (2 Bft)
23.08.2016 15:20 22,3 C 22,3 C 59 % 1026,0 hPa 0,0 mm 2,4 km/h (1 Bft) S-SO 150 1 min 0,000 mm 4,7 UV-I 689 W/m 13,9 C 4,8 km/h (1 Bft)
23.08.2016 15:21 22,3 C 22,3 C 58 % 1025,9 hPa 0,0 mm 5,6 km/h (1 Bft) O-NO 71 1 min 0,000 mm 4,8 UV-I 686 W/m 13,6 C 8,0 km/h (2 Bft)
23.08.2016 15:22 22,3 C 22,3 C 58 % 1026,0 hPa 0,0 mm 8,9 km/h (2 Bft) NO 36 1 min 0,000 mm 4,9 UV-I 686 W/m 13,6 C 16,1 km/h (3 Bft)
23.08.2016 15:23 22,3 C 22,3 C 57 % 1025,9 hPa 0,0 mm 8,2 km/h (2 Bft) O 94 1 min 0,000 mm 4,9 UV-I 684 W/m 13,4 C 11,3 km/h (2 Bft)
23.08.2016 15:24 22,3 C 22,3 C 58 % 1025,9 hPa 0,0 mm 4,4 km/h (1 Bft) NO 36 1 min 0,000 mm 4,9 UV-I 682 W/m 13,6 C 6,4 km/h (2 Bft)
23.08.2016 15:25 22,3 C 22,3 C 57 % 1025,9 hPa 0,0 mm 4,6 km/h (1 Bft) O-NO 61 1 min 0,000 mm 4,9 UV-I 680 W/m 13,4 C 8,0 km/h (2 Bft)
23.08.2016 15:26 22,4 C 22,4 C 58 % 1025,9 hPa 0,0 mm 5,7 km/h (1 Bft) O-NO 72 1 min 0,000 mm 5,0 UV-I 679 W/m 13,7 C 9,7 km/h (2 Bft)
23.08.2016 15:27 22,4 C 22,4 C 61 % 1025,9 hPa 0,0 mm 5,9 km/h (2 Bft) O-NO 65 1 min 0,000 mm 5,0 UV-I 675 W/m 14,5 C 9,7 km/h (2 Bft)
23.08.2016 15:28 22,4 C 22,4 C 60 % 1025,9 hPa 0,0 mm 4,3 km/h (1 Bft) SO 126 1 min 0,000 mm 5,0 UV-I 675 W/m 14,2 C 12,9 km/h (3 Bft)
23.08.2016 15:29 22,4 C 22,4 C 57 % 1025,9 hPa 0,0 mm 4,7 km/h (1 Bft) O 88 1 min 0,000 mm 5,0 UV-I 673 W/m 13,5 C 8,0 km/h (2 Bft)
23.08.2016 15:30 22,3 C 22,4 C 57 % 1025,9 hPa 0,0 mm 6,5 km/h (2 Bft) O-NO 68 1 min 0,000 mm 4,9 UV-I 671 W/m 13,4 C 12,9 km/h (3 Bft)
23.08.2016 15:31 22,3 C 22,3 C 59 % 1025,9 hPa 0,0 mm 8,4 km/h (2 Bft) O-NO 68 1 min 0,000 mm 4,9 UV-I 670 W/m 13,9 C 14,5 km/h (3 Bft)
23.08.2016 15:32 22,4 C 22,4 C 58 % 1025,9 hPa 0,0 mm 4,2 km/h (1 Bft) O-NO 78 1 min 0,000 mm 4,9 UV-I 668 W/m 13,7 C 4,8 km/h (1 Bft)
23.08.2016 15:33 22,6 C 22,6 C 65 % 1025,9 hPa 0,0 mm 2,4 km/h (1 Bft) O 79 1 min 0,000 mm 4,9 UV-I 664 W/m 15,7 C 6,4 km/h (2 Bft)
23.08.2016 15:34 22,6 C 22,6 C 58 % 1025,9 hPa 0,0 mm 6,4 km/h (2 Bft) NO 56 1 min 0,000 mm 4,9 UV-I 664 W/m 13,9 C 11,3 km/h (2 Bft)
23.08.2016 15:35 22,6 C 22,6 C 59 % 1025,9 hPa 0,0 mm 4,3 km/h (1 Bft) O 93 1 min 0,000 mm 4,9 UV-I 661 W/m 14,2 C 11,3 km/h (2 Bft)
23.08.2016 15:36 22,6 C 22,6 C 57 % 1025,9 hPa 0,0 mm 3,5 km/h (1 Bft) O 98 1 min 0,000 mm 4,8 UV-I 659 W/m 13,6 C 6,4 km/h (2 Bft)
23.08.2016 15:37 22,4 C 22,6 C 58 % 1025,9 hPa 0,0 mm 4,4 km/h (1 Bft) O-NO 58 1 min 0,000 mm 4,8 UV-I 659 W/m 13,7 C 6,4 km/h (2 Bft)
23.08.2016 15:38 22,5 C 22,5 C 61 % 1025,9 hPa 0,0 mm 2,1 km/h (1 Bft) O-NO 58 1 min 0,000 mm 4,8 UV-I 656 W/m 14,6 C 4,8 km/h (1 Bft)
23.08.2016 15:39 22,5 C 22,5 C 62 % 1025,8 hPa 0,0 mm 1,7 km/h (1 Bft) O-NO 57 1 min 0,000 mm 4,8 UV-I 654 W/m 14,8 C 3,2 km/h (1 Bft)
23.08.2016 15:40 22,6 C 22,6 C 63 % 1025,8 hPa 0,0 mm 2,5 km/h (1 Bft) O-NO 66 1 min 0,000 mm 4,8 UV-I 652 W/m 15,2 C 4,8 km/h (1 Bft)
23.08.2016 15:41 22,6 C 22,6 C 65 % 1025,8 hPa 0,0 mm 4,2 km/h (1 Bft) O-NO 69 1 min 0,000 mm 4,7 UV-I 650 W/m 15,7 C 6,4 km/h (2 Bft)
23.08.2016 15:42 22,4 C 22,6 C 60 % 1025,8 hPa 0,0 mm 7,9 km/h (2 Bft) NO 49 1 min 0,000 mm 4,7 UV-I 649 W/m 14,2 C 9,7 km/h (2 Bft)
23.08.2016 15:43 22,5 C 22,5 C 60 % 1025,8 hPa 0,0 mm 5,2 km/h (1 Bft) N-NW 327 1 min 0,000 mm 4,7 UV-I 645 W/m 14,3 C 8,0 km/h (2 Bft)
23.08.2016 15:44 22,7 C 22,7 C 62 % 1025,8 hPa 0,0 mm 6,4 km/h (2 Bft) NW 309 1 min 0,000 mm 4,7 UV-I 643 W/m 15,0 C 8,0 km/h (2 Bft)
23.08.2016 15:45 22,8 C 22,8 C 59 % 1025,7 hPa 0,0 mm 5,0 km/h (1 Bft) NO 49 1 min 0,000 mm 4,6 UV-I 642 W/m 14,4 C 6,4 km/h (2 Bft)
23.08.2016 15:46 22,9 C 22,9 C 61 % 1025,8 hPa 0,0 mm 8,6 km/h (2 Bft) NO 38 1 min 0,000 mm 4,6 UV-I 640 W/m 15,0 C 14,5 km/h (3 Bft)
23.08.2016 15:47 22,9 C 23,0 C 58 % 1025,8 hPa 0,0 mm 6,9 km/h (2 Bft) O 96 1 min 0,000 mm 4,6 UV-I 638 W/m 14,2 C 12,9 km/h (3 Bft)
23.08.2016 15:48 22,8 C 22,9 C 57 % 1025,7 hPa 0,0 mm 5,3 km/h (1 Bft) NO 34 1 min 0,000 mm 4,6 UV-I 636 W/m 13,8 C 8,0 km/h (2 Bft)
23.08.2016 15:49 22,8 C 22,8 C 58 % 1025,7 hPa 0,0 mm 3,5 km/h (1 Bft) O 82 1 min 0,000 mm 4,6 UV-I 636 W/m 14,1 C 6,4 km/h (2 Bft)
23.08.2016 15:50 22,7 C 22,8 C 59 % 1025,7 hPa 0,0 mm 4,3 km/h (1 Bft) N 5 1 min 0,000 mm 4,5 UV-I 631 W/m 14,3 C 6,4 km/h (2 Bft)
23.08.2016 15:51 22,7 C 22,7 C 59 % 1025,7 hPa 0,0 mm 1,5 km/h (1 Bft) N-NO 28 1 min 0,000 mm 4,5 UV-I 631 W/m 14,3 C 3,2 km/h (1 Bft)
23.08.2016 15:52 22,7 C 22,8 C 62 % 1025,6 hPa 0,0 mm 5,0 km/h (1 Bft) O-NO 76 1 min 0,000 mm 4,5 UV-I 628 W/m 15,0 C 8,0 km/h (2 Bft)
23.08.2016 15:53 22,7 C 22,7 C 56 % 1025,6 hPa 0,0 mm 2,9 km/h (1 Bft) NO 52 1 min 0,000 mm 4,5 UV-I 626 W/m 13,5 C 4,8 km/h (1 Bft)
23.08.2016 15:54 22,6 C 22,7 C 57 % 1025,6 hPa 0,0 mm 3,2 km/h (1 Bft) N 360 1 min 0,000 mm 4,4 UV-I 626 W/m 13,6 C 6,4 km/h (2 Bft)
23.08.2016 15:55 22,6 C 22,6 C 60 % 1025,6 hPa 0,0 mm 2,5 km/h (1 Bft) NO 45 1 min 0,000 mm 4,4 UV-I 626 W/m 14,4 C 6,4 km/h (2 Bft)
23.08.2016 15:56 22,7 C 22,7 C 59 % 1025,6 hPa 0,0 mm 5,0 km/h (1 Bft) O-NO 57 1 min 0,000 mm 4,4 UV-I 621 W/m 14,3 C 8,0 km/h (2 Bft)
23.08.2016 15:57 22,7 C 22,8 C 59 % 1025,6 hPa 0,0 mm 10,4 km/h (2 Bft) O 80 1 min 0,000 mm 4,4 UV-I 617 W/m 14,3 C 17,7 km/h (3 Bft)
23.08.2016 15:58 22,8 C 22,8 C 60 % 1025,7 hPa 0,0 mm 7,9 km/h (2 Bft) O-NO 66 1 min 0,000 mm 4,4 UV-I 617 W/m 14,6 C 16,1 km/h (3 Bft)
23.08.2016 15:59 22,7 C 22,8 C 59 % 1025,6 hPa 0,0 mm 6,5 km/h (2 Bft) O-NO 65 1 min 0,000 mm 4,3 UV-I 615 W/m 14,3 C 11,3 km/h (2 Bft)
23.08.2016 16:00 22,7 C 22,7 C 61 % 1025,7 hPa 0,0 mm 6,6 km/h (2 Bft) N 10 1 min 0,000 mm 4,3 UV-I 612 W/m 14,8 C 12,9 km/h (3 Bft)
23.08.2016 16:01 22,6 C 22,7 C 58 % 1025,7 hPa 0,0 mm 4,4 km/h (1 Bft) O-NO 61 1 min 0,432 mm 4,3 UV-I 612 W/m 13,9 C 6,4 km/h (2 Bft)
23.08.2016 16:02 22,6 C 22,6 C 58 % 1025,7 hPa 0,0 mm 6,3 km/h (2 Bft) N-NO 32 1 min 0,000 mm 4,2 UV-I 606 W/m 13,9 C 8,0 km/h (2 Bft)
23.08.2016 16:03 22,6 C 22,6 C 59 % 1025,6 hPa 0,0 mm 8,6 km/h (2 Bft) NO 36 1 min 0,000 mm 4,2 UV-I 606 W/m 14,2 C 12,9 km/h (3 Bft)
23.08.2016 16:04 22,6 C 22,6 C 59 % 1025,6 hPa 0,0 mm 4,7 km/h (1 Bft) N-NO 28 1 min 0,000 mm 4,2 UV-I 603 W/m 14,2 C 9,7 km/h (2 Bft)
23.08.2016 16:05 22,6 C 22,6 C 61 % 1025,6 hPa 0,0 mm 9,1 km/h (2 Bft) O-NO 69 1 min 0,000 mm 4,2 UV-I 601 W/m 14,7 C 16,1 km/h (3 Bft)
23.08.2016 16:06 22,7 C 22,7 C 59 % 1025,6 hPa 0,0 mm 7,2 km/h (2 Bft) NO 44 1 min 0,000 mm 4,1 UV-I 599 W/m 14,3 C 12,9 km/h (3 Bft)
23.08.2016 16:07 22,6 C 22,7 C 60 % 1025,6 hPa 0,0 mm 9,8 km/h (2 Bft) O-NO 67 1 min 0,000 mm 4,1 UV-I 598 W/m 14,4 C 17,7 km/h (3 Bft)
23.08.2016 16:08 22,5 C 22,6 C 60 % 1025,6 hPa 0,0 mm 8,9 km/h (2 Bft) O-NO 69 1 min 0,000 mm 4,1 UV-I 594 W/m 14,3 C 16,1 km/h (3 Bft)
23.08.2016 16:09 22,4 C 22,5 C 59 % 1025,6 hPa 0,0 mm 9,9 km/h (2 Bft) W-NW 296 1 min 0,000 mm 4,1 UV-I 592 W/m 14,0 C 14,5 km/h (3 Bft)
23.08.2016 16:10 22,4 C 22,4 C 59 % 1025,6 hPa 0,0 mm 7,2 km/h (2 Bft) N-NO 19 1 min 0,000 mm 4,0 UV-I 591 W/m 14,0 C 14,5 km/h (3 Bft)
23.08.2016 16:11 22,4 C 22,4 C 59 % 1025,6 hPa 0,0 mm 9,8 km/h (2 Bft) NO 40 1 min 0,000 mm 4,0 UV-I 589 W/m 14,0 C 16,1 km/h (3 Bft)
23.08.2016 16:12 22,4 C 22,5 C 59 % 1025,6 hPa 0,0 mm 6,4 km/h (2 Bft) N-NO 17 1 min 0,000 mm 4,0 UV-I 587 W/m 14,0 C 9,7 km/h (2 Bft)
23.08.2016 16:13 22,4 C 22,5 C 58 % 1025,6 hPa 0,0 mm 5,7 km/h (1 Bft) O-NO 73 1 min 0,000 mm 4,0 UV-I 585 W/m 13,7 C 11,3 km/h (2 Bft)
23.08.2016 16:14 22,4 C 22,4 C 58 % 1025,5 hPa 0,0 mm 5,4 km/h (1 Bft) N-NW 338 1 min 0,000 mm 4,0 UV-I 582 W/m 13,7 C 11,3 km/h (2 Bft)
23.08.2016 16:15 22,3 C 22,4 C 58 % 1025,6 hPa 0,0 mm 5,9 km/h (2 Bft) NO 56 1 min 0,000 mm 3,9 UV-I 529 W/m 13,6 C 9,7 km/h (2 Bft)
23.08.2016 16:16 22,4 C 22,4 C 58 % 1025,5 hPa 0,0 mm 6,8 km/h (2 Bft) NO 39 1 min 0,000 mm 3,2 UV-I 561 W/m 13,7 C 9,7 km/h (2 Bft)
23.08.2016 16:17 22,4 C 22,4 C 58 % 1025,5 hPa 0,0 mm 3,4 km/h (1 Bft) O 101 1 min 0,000 mm 2,3 UV-I 561 W/m 13,7 C 4,8 km/h (1 Bft)
23.08.2016 16:18 22,4 C 22,4 C 59 % 1025,5 hPa 0,0 mm 4,4 km/h (1 Bft) O-NO 63 0 min 0,000 mm 2,1 UV-I 188 W/m 14,0 C 8,0 km/h (2 Bft)
23.08.2016 16:19 22,3 C 22,4 C 59 % 1025,5 hPa 0,0 mm 3,4 km/h (1 Bft) NO 51 0 min 0,000 mm 2,5 UV-I 100 W/m 13,9 C 6,4 km/h (2 Bft)
23.08.2016 16:20 22,3 C 22,3 C 60 % 1025,5 hPa 0,0 mm 6,4 km/h (2 Bft) N 360 0 min 0,000 mm 2,9 UV-I 95 W/m 14,2 C 9,7 km/h (2 Bft)
23.08.2016 16:21 22,3 C 22,4 C 59 % 1025,5 hPa 0,0 mm 4,7 km/h (1 Bft) NW 325 0 min 0,000 mm 1,9 UV-I 109 W/m 13,9 C 6,4 km/h (2 Bft)
23.08.2016 16:22 22,3 C 22,4 C 58 % 1025,5 hPa 0,0 mm 2,9 km/h (1 Bft) O 92 0 min 0,000 mm 1,7 UV-I 90 W/m 13,6 C 4,8 km/h (1 Bft)
23.08.2016 16:23 22,3 C 22,3 C 59 % 1025,4 hPa 0,0 mm 3,6 km/h (1 Bft) NO 51 0 min 0,000 mm 0,0 UV-I 39 W/m 13,9 C 6,4 km/h (2 Bft)
23.08.2016 16:24 22,3 C 22,3 C 60 % 1025,4 hPa 0,0 mm 5,7 km/h (1 Bft) N-NW 348 0 min 0,000 mm 0,0 UV-I 33 W/m 14,2 C 8,0 km/h (2 Bft)
23.08.2016 16:25 22,4 C 22,4 C 59 % 1025,4 hPa 0,0 mm 6,0 km/h (2 Bft) O-NO 58 0 min 0,000 mm 0,0 UV-I 33 W/m 14,0 C 11,3 km/h (2 Bft)
23.08.2016 16:26 22,4 C 22,4 C 61 % 1025,4 hPa 0,0 mm 8,4 km/h (2 Bft) O-NO 69 0 min 0,000 mm 0,0 UV-I 32 W/m 14,5 C 14,5 km/h (3 Bft)
23.08.2016 16:27 22,6 C 22,6 C 62 % 1025,4 hPa 0,0 mm 4,5 km/h (1 Bft) N 5 0 min 0,000 mm 0,0 UV-I 32 W/m 14,9 C 6,4 km/h (2 Bft)
23.08.2016 16:28 22,6 C 22,6 C 59 % 1025,4 hPa 0,0 mm 5,2 km/h (1 Bft) O-NO 59 0 min 0,000 mm 0,0 UV-I 35 W/m 14,2 C 8,0 km/h (2 Bft)
23.08.2016 16:29 22,6 C 22,6 C 61 % 1025,4 hPa 0,0 mm 5,6 km/h (1 Bft) NO 49 0 min 0,000 mm 0,0 UV-I 33 W/m 14,7 C 8,0 km/h (2 Bft)
23.08.2016 16:30 22,6 C 22,6 C 60 % 1025,4 hPa 0,0 mm 4,5 km/h (1 Bft) N-NO 31 0 min 0,000 mm 0,0 UV-I 39 W/m 14,4 C 6,4 km/h (2 Bft)
23.08.2016 16:31 22,7 C 22,7 C 61 % 1025,4 hPa 0,0 mm 3,5 km/h (1 Bft) O-SO 109 0 min 0,000 mm 1,7 UV-I 49 W/m 14,8 C 4,8 km/h (1 Bft)
23.08.2016 16:32 22,7 C 22,7 C 62 % 1025,4 hPa 0,0 mm 3,1 km/h (1 Bft) N-NO 24 0 min 0,000 mm 0,0 UV-I 37 W/m 15,0 C 4,8 km/h (1 Bft)
23.08.2016 16:33 22,6 C 22,7 C 59 % 1025,4 hPa 0,0 mm 5,4 km/h (1 Bft) O-SO 118 0 min 0,000 mm 0,0 UV-I 33 W/m 14,2 C 9,7 km/h (2 Bft)
23.08.2016 16:34 22,5 C 22,6 C 60 % 1025,4 hPa 0,0 mm 1,9 km/h (1 Bft) NO 44 0 min 0,000 mm 0,0 UV-I 32 W/m 14,3 C 4,8 km/h (1 Bft)
23.08.2016 16:35 22,4 C 22,5 C 59 % 1025,4 hPa 0,0 mm 5,8 km/h (2 Bft) O-NO 61 0 min 0,000 mm 0,0 UV-I 32 W/m 14,0 C 11,3 km/h (2 Bft)
23.08.2016 16:36 22,4 C 22,4 C 58 % 1025,4 hPa 0,0 mm 9,1 km/h (2 Bft) O 89 0 min 0,000 mm 0,0 UV-I 32 W/m 13,7 C 12,9 km/h (3 Bft)
23.08.2016 16:37 22,3 C 22,4 C 59 % 1025,4 hPa 0,0 mm 7,0 km/h (2 Bft) N-NO 26 0 min 0,000 mm 0,0 UV-I 33 W/m 13,9 C 9,7 km/h (2 Bft)
23.08.2016 16:38 22,3 C 22,3 C 59 % 1025,4 hPa 0,0 mm 4,6 km/h (1 Bft) NO 55 0 min 0,000 mm 0,0 UV-I 32 W/m 13,9 C 8,0 km/h (2 Bft)
23.08.2016 16:39 22,3 C 22,4 C 60 % 1025,4 hPa 0,0 mm 4,7 km/h (1 Bft) W 265 0 min 0,000 mm 0,0 UV-I 32 W/m 14,2 C 8,0 km/h (2 Bft)
23.08.2016 16:40 22,3 C 22,3 C 60 % 1025,4 hPa 0,0 mm 1,8 km/h (1 Bft) O 80 0 min 0,000 mm 0,0 UV-I 32 W/m 14,2 C 3,2 km/h (1 Bft)
23.08.2016 16:41 22,3 C 22,3 C 60 % 1025,4 hPa 0,0 mm 4,4 km/h (1 Bft) N-NO 28 0 min 0,000 mm 0,0 UV-I 32 W/m 14,2 C 6,4 km/h (2 Bft)
23.08.2016 16:42 22,3 C 22,3 C 61 % 1025,4 hPa 0,0 mm 8,2 km/h (2 Bft) O-NO 62 0 min 0,000 mm 0,0 UV-I 32 W/m 14,4 C 12,9 km/h (3 Bft)
23.08.2016 16:43 22,3 C 22,3 C 63 % 1025,4 hPa 0,0 mm 6,0 km/h (2 Bft) O-NO 77 0 min 0,000 mm 0,0 UV-I 32 W/m 14,9 C 9,7 km/h (2 Bft)
23.08.2016 16:44 22,3 C 22,3 C 61 % 1025,4 hPa 0,0 mm 7,2 km/h (2 Bft) O-NO 58 0 min 0,000 mm 0,0 UV-I 32 W/m 14,4 C 11,3 km/h (2 Bft)
23.08.2016 16:45 22,4 C 22,4 C 60 % 1025,4 hPa 0,0 mm 8,7 km/h (2 Bft) N 5 0 min 0,000 mm 0,0 UV-I 32 W/m 14,2 C 12,9 km/h (3 Bft)
23.08.2016 16:46 22,4 C 22,4 C 60 % 1025,4 hPa 0,0 mm 3,0 km/h (1 Bft) O-NO 71 0 min 0,000 mm 0,0 UV-I 47 W/m 14,2 C 6,4 km/h (2 Bft)
23.08.2016 16:47 22,4 C 22,4 C 63 % 1025,4 hPa 0,0 mm 4,2 km/h (1 Bft) N-NO 13 0 min 0,000 mm 0,0 UV-I 32 W/m 15,0 C 6,4 km/h (2 Bft)
23.08.2016 16:48 22,3 C 22,4 C 62 % 1025,4 hPa 0,0 mm 2,8 km/h (1 Bft) NO 36 0 min 0,000 mm 0,0 UV-I 32 W/m 14,7 C 3,2 km/h (1 Bft)
23.08.2016 16:49 22,3 C 22,4 C 64 % 1025,4 hPa 0,0 mm 6,9 km/h (2 Bft) NO 41 0 min 0,000 mm 0,0 UV-I 30 W/m 15,2 C 12,9 km/h (3 Bft)
23.08.2016 16:50 22,3 C 22,3 C 60 % 1025,5 hPa 0,0 mm 5,7 km/h (1 Bft) NO 49 0 min 0,000 mm 0,0 UV-I 35 W/m 14,2 C 9,7 km/h (2 Bft)
23.08.2016 16:51 22,3 C 22,3 C 58 % 1025,4 hPa 0,0 mm 4,6 km/h (1 Bft) N-NO 26 0 min 0,000 mm 0,0 UV-I 54 W/m 13,6 C 8,0 km/h (2 Bft)
23.08.2016 16:52 22,3 C 22,3 C 59 % 1025,4 hPa 0,0 mm 9,0 km/h (2 Bft) NO 37 0 min 0,000 mm 0,0 UV-I 33 W/m 13,9 C 14,5 km/h (3 Bft)
23.08.2016 16:53 22,3 C 22,3 C 59 % 1025,4 hPa 0,0 mm 5,3 km/h (1 Bft) NO 51 0 min 0,000 mm 0,0 UV-I 33 W/m 13,9 C 8,0 km/h (2 Bft)
23.08.2016 16:54 22,3 C 22,3 C 60 % 1025,4 hPa 0,0 mm 5,7 km/h (1 Bft) N 351 0 min 0,000 mm 0,0 UV-I 32 W/m 14,2 C 8,0 km/h (2 Bft)
23.08.2016 16:55 22,3 C 22,3 C 60 % 1025,4 hPa 0,0 mm 5,1 km/h (1 Bft) NO 37 0 min 0,000 mm 0,0 UV-I 37 W/m 14,2 C 6,4 km/h (2 Bft)
23.08.2016 16:56 22,3 C 22,3 C 60 % 1025,4 hPa 0,0 mm 4,6 km/h (1 Bft) O-NO 73 0 min 0,000 mm 0,0 UV-I 30 W/m 14,2 C 8,0 km/h (2 Bft)
23.08.2016 16:57 22,3 C 22,3 C 59 % 1025,3 hPa 0,0 mm 4,1 km/h (1 Bft) N 350 0 min 0,000 mm 0,0 UV-I 33 W/m 13,9 C 4,8 km/h (1 Bft)
23.08.2016 16:59 22,4 C 22,4 C 61 % 1025,3 hPa 0,0 mm 1,9 km/h (1 Bft) N 360 0 min 0,000 mm 0,0 UV-I 35 W/m 14,5 C 4,8 km/h (1 Bft)
23.08.2016 17:00 22,4 C 22,4 C 61 % 1025,3 hPa 0,0 mm 4,2 km/h (1 Bft) O-NO 67 0 min 0,000 mm 1,4 UV-I 51 W/m 14,5 C 6,4 km/h (2 Bft)
23.08.2016 17:01 22,4 C 22,4 C 61 % 1025,3 hPa 0,0 mm 4,2 km/h (1 Bft) O-NO 58 0 min 0,152 mm 0,0 UV-I 47 W/m 14,5 C 6,4 km/h (2 Bft)
23.08.2016 17:02 22,4 C 22,4 C 61 % 1025,4 hPa 0,0 mm 3,3 km/h (1 Bft) O 101 0 min 0,001 mm 0,0 UV-I 37 W/m 14,5 C 4,8 km/h (1 Bft)
23.08.2016 17:03 22,4 C 22,4 C 60 % 1025,3 hPa 0,0 mm 3,8 km/h (1 Bft) O-NO 57 0 min 0,000 mm 0,0 UV-I 42 W/m 14,2 C 6,4 km/h (2 Bft)
23.08.2016 17:04 22,4 C 22,4 C 61 % 1025,3 hPa 0,0 mm 5,5 km/h (1 Bft) N 360 0 min 0,000 mm 0,0 UV-I 39 W/m 14,5 C 11,3 km/h (2 Bft)
23.08.2016 17:05 22,4 C 22,4 C 61 % 1025,3 hPa 0,0 mm 5,3 km/h (1 Bft) N-NO 19 0 min 0,000 mm 0,0 UV-I 30 W/m 14,5 C 12,9 km/h (3 Bft)
23.08.2016 17:06 22,4 C 22,4 C 60 % 1025,3 hPa 0,0 mm 2,3 km/h (1 Bft) O-NO 68 0 min 0,000 mm 0,0 UV-I 33 W/m 14,2 C 3,2 km/h (1 Bft)
23.08.2016 17:07 22,3 C 22,4 C 60 % 1025,3 hPa 0,0 mm 1,0 km/h (0 Bft) O-NO 67 0 min 0,000 mm 0,0 UV-I 44 W/m 14,2 C 3,2 km/h (1 Bft)
23.08.2016 17:08 22,3 C 22,3 C 60 % 1025,3 hPa 0,0 mm 4,4 km/h (1 Bft) N-NO 30 0 min 0,000 mm 1,5 UV-I 120 W/m 14,2 C 9,7 km/h (2 Bft)
23.08.2016 17:09 22,3 C 22,3 C 59 % 1025,3 hPa 0,0 mm 5,9 km/h (2 Bft) N-NO 32 0 min 0,000 mm 1,5 UV-I 190 W/m 13,9 C 11,3 km/h (2 Bft)
23.08.2016 17:10 22,3 C 22,3 C 61 % 1025,3 hPa 0,0 mm 3,4 km/h (1 Bft) N-NO 28 0 min 0,000 mm 1,4 UV-I 190 W/m 14,4 C 6,4 km/h (2 Bft)
23.08.2016 17:11 22,3 C 22,3 C 60 % 1025,3 hPa 0,0 mm 3,3 km/h (1 Bft) O-NO 60 0 min 0,000 mm 0,0 UV-I 30 W/m 14,2 C 6,4 km/h (2 Bft)
23.08.2016 17:12 22,4 C 22,4 C 62 % 1025,3 hPa 0,0 mm 5,3 km/h (1 Bft) N 355 0 min 0,000 mm 0,0 UV-I 30 W/m 14,8 C 9,7 km/h (2 Bft)
23.08.2016 17:13 22,4 C 22,4 C 59 % 1025,3 hPa 0,0 mm 6,2 km/h (2 Bft) N 360 0 min 0,000 mm 0,0 UV-I 30 W/m 14,0 C 9,7 km/h (2 Bft)
23.08.2016 17:14 22,4 C 22,4 C 60 % 1025,3 hPa 0,0 mm 4,6 km/h (1 Bft) NO 37 0 min 0,000 mm 0,0 UV-I 30 W/m 14,2 C 8,0 km/h (2 Bft)
23.08.2016 17:15 22,3 C 22,4 C 59 % 1025,3 hPa 0,0 mm 5,0 km/h (1 Bft) O-NO 70 0 min 0,000 mm 0,0 UV-I 30 W/m 13,9 C 8,0 km/h (2 Bft)
23.08.2016 17:16 22,4 C 22,4 C 59 % 1025,3 hPa 0,0 mm 4,7 km/h (1 Bft) N-NW 347 0 min 0,000 mm 0,0 UV-I 30 W/m 14,0 C 8,0 km/h (2 Bft)
23.08.2016 17:17 22,4 C 22,4 C 60 % 1025,3 hPa 0,0 mm 2,8 km/h (1 Bft) NO 41 0 min 0,000 mm 0,0 UV-I 30 W/m 14,2 C 4,8 km/h (1 Bft)
23.08.2016 17:18 22,4 C 22,4 C 61 % 1025,3 hPa 0,0 mm 2,7 km/h (1 Bft) O 88 0 min 0,000 mm 0,0 UV-I 28 W/m 14,5 C 8,0 km/h (2 Bft)
23.08.2016 17:19 22,4 C 22,4 C 59 % 1025,3 hPa 0,0 mm 7,0 km/h (2 Bft) O 94 0 min 0,000 mm 0,0 UV-I 28 W/m 14,0 C 12,9 km/h (3 Bft)
23.08.2016 17:20 22,3 C 22,4 C 60 % 1025,3 hPa 0,0 mm 2,2 km/h (1 Bft) O-SO 107 0 min 0,000 mm 0,0 UV-I 30 W/m 14,2 C 9,7 km/h (2 Bft)
23.08.2016 17:21 22,3 C 22,3 C 60 % 1025,3 hPa 0,0 mm 3,8 km/h (1 Bft) O-NO 70 0 min 0,000 mm 0,0 UV-I 30 W/m 14,2 C 8,0 km/h (2 Bft)
23.08.2016 17:22 22,3 C 22,3 C 62 % 1025,3 hPa 0,0 mm 8,6 km/h (2 Bft) O 86 0 min 0,000 mm 0,0 UV-I 44 W/m 14,7 C 12,9 km/h (3 Bft)
23.08.2016 17:23 22,2 C 22,3 C 60 % 1025,3 hPa 0,0 mm 5,1 km/h (1 Bft) NO 56 0 min 0,000 mm 0,0 UV-I 53 W/m 14,1 C 12,9 km/h (3 Bft)
23.08.2016 17:24 22,2 C 22,2 C 60 % 1025,2 hPa 0,0 mm 3,2 km/h (1 Bft) N-NO 17 0 min 0,000 mm 1,4 UV-I 47 W/m 14,1 C 6,4 km/h (2 Bft)
23.08.2016 17:25 22,2 C 22,2 C 60 % 1025,2 hPa 0,0 mm 3,8 km/h (1 Bft) N-NO 26 0 min 0,000 mm 0,0 UV-I 28 W/m 14,1 C 8,0 km/h (2 Bft)
23.08.2016 17:26 22,3 C 22,3 C 60 % 1025,2 hPa 0,0 mm 4,4 km/h (1 Bft) NO 38 0 min 0,000 mm 0,0 UV-I 28 W/m 14,2 C 6,4 km/h (2 Bft)
23.08.2016 17:27 22,3 C 22,3 C 62 % 1025,2 hPa 0,0 mm 5,1 km/h (1 Bft) O-NO 76 0 min 0,000 mm 0,0 UV-I 28 W/m 14,7 C 8,0 km/h (2 Bft)
23.08.2016 17:28 22,3 C 22,3 C 59 % 1025,2 hPa 0,0 mm 3,8 km/h (1 Bft) NO 37 0 min 0,000 mm 0,0 UV-I 28 W/m 13,9 C 9,7 km/h (2 Bft)
23.08.2016 17:29 22,2 C 22,3 C 60 % 1025,2 hPa 0,0 mm 3,1 km/h (1 Bft) O-NO 65 0 min 0,000 mm 0,0 UV-I 28 W/m 14,1 C 4,8 km/h (1 Bft)
23.08.2016 17:30 22,2 C 22,2 C 61 % 1025,2 hPa 0,0 mm 3,8 km/h (1 Bft) NO 56 0 min 0,000 mm 0,0 UV-I 28 W/m 14,3 C 4,8 km/h (1 Bft)
23.08.2016 17:31 22,2 C 22,2 C 61 % 1025,2 hPa 0,0 mm 3,7 km/h (1 Bft) O 88 0 min 0,000 mm 0,0 UV-I 28 W/m 14,3 C 6,4 km/h (2 Bft)
23.08.2016 17:32 22,1 C 22,2 C 60 % 1025,1 hPa 0,0 mm 3,5 km/h (1 Bft) NO 36 0 min 0,000 mm 0,0 UV-I 28 W/m 14,0 C 4,8 km/h (1 Bft)
23.08.2016 17:33 22,2 C 22,2 C 62 % 1025,1 hPa 0,0 mm 2,9 km/h (1 Bft) O-NO 75 0 min 0,000 mm 0,0 UV-I 28 W/m 14,6 C 4,8 km/h (1 Bft)
23.08.2016 17:34 22,1 C 22,2 C 61 % 1025,2 hPa 0,0 mm 4,3 km/h (1 Bft) O 89 0 min 0,000 mm 0,0 UV-I 28 W/m 14,2 C 9,7 km/h (2 Bft)
23.08.2016 17:35 22,0 C 22,1 C 60 % 1025,1 hPa 0,0 mm 3,9 km/h (1 Bft) O 101 0 min 0,000 mm 0,0 UV-I 28 W/m 13,9 C 6,4 km/h (2 Bft)
23.08.2016 17:36 22,0 C 22,0 C 59 % 1025,1 hPa 0,0 mm 0,3 km/h (0 Bft) O 101 0 min 0,000 mm 0,0 UV-I 28 W/m 13,6 C 1,6 km/h (1 Bft)
23.08.2016 17:37 21,9 C 22,0 C 60 % 1025,1 hPa 0,0 mm 3,8 km/h (1 Bft) O-NO 77 0 min 0,000 mm 0,0 UV-I 28 W/m 13,8 C 6,4 km/h (2 Bft)
23.08.2016 17:38 21,9 C 21,9 C 62 % 1025,1 hPa 0,0 mm 4,0 km/h (1 Bft) O-NO 74 0 min 0,000 mm 0,0 UV-I 26 W/m 14,3 C 8,0 km/h (2 Bft)
23.08.2016 17:39 21,9 C 21,9 C 63 % 1025,1 hPa 0,0 mm 2,4 km/h (1 Bft) O 86 0 min 0,000 mm 0,0 UV-I 28 W/m 14,5 C 3,2 km/h (1 Bft)
23.08.2016 17:40 21,9 C 21,9 C 62 % 1025,2 hPa 0,0 mm 4,3 km/h (1 Bft) O 82 0 min 0,000 mm 0,0 UV-I 32 W/m 14,3 C 6,4 km/h (2 Bft)
23.08.2016 17:41 22,0 C 22,0 C 64 % 1025,1 hPa 0,0 mm 3,8 km/h (1 Bft) NO 55 0 min 0,000 mm 0,0 UV-I 32 W/m 14,9 C 6,4 km/h (2 Bft)
23.08.2016 17:42 22,0 C 22,0 C 61 % 1025,1 hPa 0,0 mm 4,9 km/h (1 Bft) O-NO 66 0 min 0,000 mm 0,0 UV-I 28 W/m 14,1 C 8,0 km/h (2 Bft)
23.08.2016 17:43 22,0 C 22,1 C 61 % 1025,1 hPa 0,0 mm 7,3 km/h (2 Bft) NO 46 0 min 0,000 mm 0,0 UV-I 28 W/m 14,1 C 11,3 km/h (2 Bft)
23.08.2016 17:44 22,1 C 22,1 C 60 % 1025,1 hPa 0,0 mm 4,7 km/h (1 Bft) NO 42 0 min 0,000 mm 0,0 UV-I 28 W/m 14,0 C 6,4 km/h (2 Bft)
23.08.2016 17:45 22,1 C 22,1 C 59 % 1025,1 hPa 0,0 mm 2,8 km/h (1 Bft) N-NO 32 0 min 0,000 mm 0,0 UV-I 28 W/m 13,7 C 6,4 km/h (2 Bft)
23.08.2016 17:46 22,2 C 22,2 C 60 % 1025,1 hPa 0,0 mm 4,5 km/h (1 Bft) O-NO 70 0 min 0,000 mm 0,0 UV-I 28 W/m 14,1 C 6,4 km/h (2 Bft)
23.08.2016 17:47 22,2 C 22,2 C 60 % 1025,1 hPa 0,0 mm 4,7 km/h (1 Bft) O-NO 72 0 min 0,000 mm 0,0 UV-I 28 W/m 14,1 C 6,4 km/h (2 Bft)
23.08.2016 17:48 22,1 C 22,2 C 59 % 1025,1 hPa 0,0 mm 3,5 km/h (1 Bft) N 351 0 min 0,000 mm 0,0 UV-I 28 W/m 13,7 C 6,4 km/h (2 Bft)
23.08.2016 17:49 22,1 C 22,1 C 60 % 1025,1 hPa 0,0 mm 2,1 km/h (1 Bft) O 83 0 min 0,000 mm 0,0 UV-I 28 W/m 14,0 C 3,2 km/h (1 Bft)
23.08.2016 17:50 22,2 C 22,2 C 60 % 1025,1 hPa 0,0 mm 4,3 km/h (1 Bft) O 79 0 min 0,000 mm 0,0 UV-I 28 W/m 14,1 C 6,4 km/h (2 Bft)
23.08.2016 17:51 22,2 C 22,2 C 60 % 1025,1 hPa 0,0 mm 4,6 km/h (1 Bft) NO 56 0 min 0,000 mm 0,0 UV-I 28 W/m 14,1 C 6,4 km/h (2 Bft)
23.08.2016 17:52 22,2 C 22,3 C 60 % 1025,1 hPa 0,0 mm 1,4 km/h (1 Bft) NO 56 0 min 0,000 mm 0,0 UV-I 28 W/m 14,1 C 3,2 km/h (1 Bft)
23.08.2016 17:53 22,2 C 22,2 C 62 % 1025,1 hPa 0,0 mm 2,1 km/h (1 Bft) O-NO 73 0 min 0,000 mm 0,0 UV-I 26 W/m 14,6 C 6,4 km/h (2 Bft)
23.08.2016 17:54 22,2 C 22,2 C 65 % 1025,1 hPa 0,0 mm 5,8 km/h (2 Bft) NO 35 0 min 0,000 mm 0,0 UV-I 26 W/m 15,3 C 8,0 km/h (2 Bft)
23.08.2016 17:55 22,1 C 22,2 C 62 % 1025,0 hPa 0,0 mm 5,1 km/h (1 Bft) N-NO 16 0 min 0,000 mm 0,0 UV-I 26 W/m 14,5 C 8,0 km/h (2 Bft)
23.08.2016 17:56 22,2 C 22,2 C 62 % 1025,1 hPa 0,0 mm 4,3 km/h (1 Bft) O-NO 78 0 min 0,000 mm 0,0 UV-I 26 W/m 14,6 C 8,0 km/h (2 Bft)
23.08.2016 17:57 22,1 C 22,2 C 61 % 1025,1 hPa 0,0 mm 6,6 km/h (2 Bft) SO 140 0 min 0,000 mm 0,0 UV-I 26 W/m 14,2 C 11,3 km/h (2 Bft)
23.08.2016 17:58 22,1 C 22,1 C 60 % 1025,1 hPa 0,0 mm 2,8 km/h (1 Bft) O-NO 69 0 min 0,000 mm 0,0 UV-I 26 W/m 14,0 C 3,2 km/h (1 Bft)
23.08.2016 17:59 22,0 C 22,1 C 61 % 1025,1 hPa 0,0 mm 3,9 km/h (1 Bft) O-NO 71 0 min 0,000 mm 0,0 UV-I 26 W/m 14,1 C 6,4 km/h (2 Bft)
23.08.2016 18:00 22,1 C 22,1 C 61 % 1025,1 hPa 0,0 mm 2,4 km/h (1 Bft) O-NO 67 0 min 0,000 mm 0,0 UV-I 28 W/m 14,2 C 4,8 km/h (1 Bft)
23.08.2016 18:01 22,0 C 22,1 C 62 % 1025,1 hPa 0,0 mm 4,6 km/h (1 Bft) NO 39 0 min 0,050 mm 0,0 UV-I 28 W/m 14,4 C 11,3 km/h (2 Bft)
23.08.2016 18:02 21,9 C 22,0 C 65 % 1025,0 hPa 0,0 mm 4,6 km/h (1 Bft) N-NO 19 0 min 0,000 mm 0,0 UV-I 28 W/m 15,0 C 6,4 km/h (2 Bft)
23.08.2016 18:03 21,8 C 21,9 C 66 % 1025,1 hPa 0,0 mm 8,2 km/h (2 Bft) O-NO 57 0 min 0,000 mm 0,0 UV-I 28 W/m 15,2 C 12,9 km/h (3 Bft)
23.08.2016 18:04 21,8 C 21,8 C 62 % 1025,1 hPa 0,0 mm 6,7 km/h (2 Bft) NO 42 0 min 0,000 mm 0,0 UV-I 28 W/m 14,2 C 8,0 km/h (2 Bft)
23.08.2016 18:05 21,8 C 21,8 C 61 % 1025,1 hPa 0,0 mm 5,4 km/h (1 Bft) O-NO 70 0 min 0,000 mm 0,0 UV-I 28 W/m 13,9 C 9,7 km/h (2 Bft)
23.08.2016 18:06 21,9 C 21,9 C 61 % 1025,1 hPa 0,0 mm 5,3 km/h (1 Bft) N 5 0 min 0,000 mm 0,0 UV-I 28 W/m 14,0 C 8,0 km/h (2 Bft)
23.08.2016 18:07 22,0 C 22,0 C 61 % 1025,1 hPa 0,0 mm 6,4 km/h (2 Bft) N-NO 28 0 min 0,000 mm 0,0 UV-I 28 W/m 14,1 C 9,7 km/h (2 Bft)
23.08.2016 18:08 22,1 C 22,1 C 60 % 1025,1 hPa 0,0 mm 5,8 km/h (2 Bft) NO 36 0 min 0,000 mm 0,0 UV-I 30 W/m 14,0 C 8,0 km/h (2 Bft)
23.08.2016 18:09 22,1 C 22,1 C 59 % 1025,0 hPa 0,0 mm 5,8 km/h (2 Bft) N 11 0 min 0,000 mm 0,0 UV-I 30 W/m 13,7 C 8,0 km/h (2 Bft)
23.08.2016 18:10 22,2 C 22,2 C 59 % 1025,1 hPa 0,0 mm 6,6 km/h (2 Bft) NO 46 0 min 0,000 mm 0,0 UV-I 30 W/m 13,8 C 8,0 km/h (2 Bft)
23.08.2016 18:11 22,2 C 22,2 C 59 % 1025,0 hPa 0,0 mm 3,8 km/h (1 Bft) O 81 0 min 0,000 mm 0,0 UV-I 32 W/m 13,8 C 4,8 km/h (1 Bft)
23.08.2016 18:12 22,2 C 22,2 C 59 % 1025,1 hPa 0,0 mm 4,5 km/h (1 Bft) O-NO 61 0 min 0,000 mm 0,0 UV-I 35 W/m 13,8 C 8,0 km/h (2 Bft)
23.08.2016 18:13 22,2 C 22,2 C 61 % 1025,1 hPa 0,0 mm 3,0 km/h (1 Bft) NO 50 0 min 0,000 mm 0,0 UV-I 33 W/m 14,3 C 4,8 km/h (1 Bft)
23.08.2016 18:14 22,2 C 22,2 C 61 % 1025,1 hPa 0,0 mm 6,7 km/h (2 Bft) NO 46 0 min 0,000 mm 0,0 UV-I 33 W/m 14,3 C 11,3 km/h (2 Bft)
23.08.2016 18:15 22,1 C 22,2 C 62 % 1025,0 hPa 0,0 mm 7,3 km/h (2 Bft) O-NO 57 0 min 0,000 mm 0,0 UV-I 32 W/m 14,5 C 12,9 km/h (3 Bft)
23.08.2016 18:16 22,1 C 22,1 C 60 % 1025,1 hPa 0,0 mm 7,4 km/h (2 Bft) NO 40 0 min 0,000 mm 0,0 UV-I 32 W/m 14,0 C 9,7 km/h (2 Bft)
23.08.2016 18:17 22,1 C 22,1 C 60 % 1025,0 hPa 0,0 mm 5,4 km/h (1 Bft) O-NO 74 0 min 0,000 mm 0,0 UV-I 32 W/m 14,0 C 8,0 km/h (2 Bft)
23.08.2016 18:18 22,1 C 22,1 C 60 % 1025,1 hPa 0,0 mm 6,4 km/h (2 Bft) NO 38 0 min 0,000 mm 0,0 UV-I 32 W/m 14,0 C 8,0 km/h (2 Bft)
23.08.2016 18:19 22,1 C 22,1 C 62 % 1025,0 hPa 0,0 mm 5,3 km/h (1 Bft) NO 37 0 min 0,000 mm 0,0 UV-I 32 W/m 14,5 C 8,0 km/h (2 Bft)
23.08.2016 18:20 22,1 C 22,1 C 61 % 1025,0 hPa 0,0 mm 5,0 km/h (1 Bft) NO 52 0 min 0,000 mm 0,0 UV-I 32 W/m 14,2 C 6,4 km/h (2 Bft)
23.08.2016 18:21 22,1 C 22,1 C 61 % 1025,0 hPa 0,0 mm 3,9 km/h (1 Bft) NO 43 0 min 0,000 mm 0,0 UV-I 32 W/m 14,2 C 6,4 km/h (2 Bft)
23.08.2016 18:22 22,1 C 22,2 C 64 % 1025,0 hPa 0,0 mm 3,4 km/h (1 Bft) NO 39 0 min 0,000 mm 0,0 UV-I 32 W/m 15,0 C 6,4 km/h (2 Bft)
23.08.2016 18:23 22,1 C 22,1 C 62 % 1025,0 hPa 0,0 mm 5,8 km/h (2 Bft) N-NO 19 0 min 0,000 mm 0,0 UV-I 32 W/m 14,5 C 9,7 km/h (2 Bft)
23.08.2016 18:24 22,1 C 22,1 C 61 % 1025,0 hPa 0,0 mm 4,3 km/h (1 Bft) N-NO 28 0 min 0,000 mm 0,0 UV-I 32 W/m 14,2 C 6,4 km/h (2 Bft)
23.08.2016 18:25 22,2 C 22,2 C 61 % 1025,0 hPa 0,0 mm 6,6 km/h (2 Bft) NO 46 0 min 0,000 mm 0,0 UV-I 32 W/m 14,3 C 9,7 km/h (2 Bft)
23.08.2016 18:26 22,2 C 22,2 C 63 % 1025,0 hPa 0,0 mm 3,5 km/h (1 Bft) NO 39 0 min 0,000 mm 0,0 UV-I 32 W/m 14,8 C 4,8 km/h (1 Bft)
23.08.2016 18:27 22,1 C 22,2 C 60 % 1025,0 hPa 0,0 mm 7,3 km/h (2 Bft) N 11 0 min 0,000 mm 0,0 UV-I 32 W/m 14,0 C 12,9 km/h (3 Bft)
23.08.2016 18:28 22,1 C 22,1 C 61 % 1025,0 hPa 0,0 mm 5,0 km/h (1 Bft) N-NO 33 0 min 0,000 mm 0,0 UV-I 30 W/m 14,2 C 6,4 km/h (2 Bft)
23.08.2016 18:29 22,1 C 22,1 C 62 % 1025,0 hPa 0,0 mm 6,2 km/h (2 Bft) NO 49 0 min 0,000 mm 0,0 UV-I 30 W/m 14,5 C 8,0 km/h (2 Bft)
23.08.2016 18:30 21,9 C 22,1 C 66 % 1025,0 hPa 0,0 mm 4,4 km/h (1 Bft) N-NO 26 0 min 0,000 mm 0,0 UV-I 30 W/m 15,3 C 8,0 km/h (2 Bft)
23.08.2016 18:31 21,7 C 21,9 C 64 % 1025,0 hPa 0,0 mm 4,9 km/h (1 Bft) NO 53 0 min 0,000 mm 0,0 UV-I 30 W/m 14,6 C 8,0 km/h (2 Bft)
23.08.2016 18:32 21,6 C 21,7 C 65 % 1025,0 hPa 0,0 mm 2,0 km/h (1 Bft) O-NO 65 0 min 0,000 mm 0,0 UV-I 30 W/m 14,7 C 4,8 km/h (1 Bft)
23.08.2016 18:33 21,4 C 21,6 C 64 % 1024,9 hPa 0,0 mm 5,2 km/h (1 Bft) N-NO 15 0 min 0,000 mm 0,0 UV-I 28 W/m 14,3 C 8,0 km/h (2 Bft)
23.08.2016 18:34 21,5 C 21,5 C 63 % 1024,9 hPa 0,0 mm 6,6 km/h (2 Bft) O-NO 60 0 min 0,000 mm 0,0 UV-I 28 W/m 14,2 C 9,7 km/h (2 Bft)
23.08.2016 18:35 21,6 C 21,6 C 62 % 1025,0 hPa 0,0 mm 6,4 km/h (2 Bft) O 92 0 min 0,000 mm 0,0 UV-I 28 W/m 14,0 C 11,3 km/h (2 Bft)
23.08.2016 18:36 21,6 C 21,6 C 62 % 1024,9 hPa 0,0 mm 3,8 km/h (1 Bft) O-NO 59 0 min 0,000 mm 0,0 UV-I 26 W/m 14,0 C 6,4 km/h (2 Bft)
23.08.2016 18:37 21,6 C 21,6 C 63 % 1024,9 hPa 0,0 mm 3,4 km/h (1 Bft) NO 53 0 min 0,000 mm 0,0 UV-I 28 W/m 14,2 C 4,8 km/h (1 Bft)
23.08.2016 18:38 21,7 C 21,7 C 63 % 1024,9 hPa 0,0 mm 2,4 km/h (1 Bft) O-NO 63 0 min 0,000 mm 0,0 UV-I 28 W/m 14,3 C 4,8 km/h (1 Bft)
23.08.2016 18:39 21,6 C 21,7 C 64 % 1024,9 hPa 0,0 mm 3,4 km/h (1 Bft) O-NO 60 0 min 0,000 mm 0,0 UV-I 28 W/m 14,5 C 6,4 km/h (2 Bft)
23.08.2016 18:40 21,6 C 21,6 C 64 % 1025,0 hPa 0,0 mm 5,0 km/h (1 Bft) NO 49 0 min 0,000 mm 0,0 UV-I 26 W/m 14,5 C 9,7 km/h (2 Bft)
23.08.2016 18:41 21,5 C 21,6 C 65 % 1024,9 hPa 0,0 mm 3,0 km/h (1 Bft) O-NO 77 0 min 0,000 mm 0,0 UV-I 25 W/m 14,6 C 4,8 km/h (1 Bft)
23.08.2016 18:42 21,4 C 21,5 C 64 % 1024,9 hPa 0,0 mm 3,4 km/h (1 Bft) O-NO 69 0 min 0,000 mm 0,0 UV-I 25 W/m 14,3 C 4,8 km/h (1 Bft)
23.08.2016 18:43 21,4 C 21,4 C 66 % 1024,9 hPa 0,0 mm 3,3 km/h (1 Bft) N-NO 24 0 min 0,000 mm 0,0 UV-I 25 W/m 14,8 C 6,4 km/h (2 Bft)
23.08.2016 18:44 21,3 C 21,4 C 67 % 1025,0 hPa 0,0 mm 4,3 km/h (1 Bft) N-NO 25 0 min 0,000 mm 0,0 UV-I 25 W/m 14,9 C 6,4 km/h (2 Bft)
23.08.2016 18:45 21,3 C 21,3 C 63 % 1024,9 hPa 0,0 mm 2,3 km/h (1 Bft) O-NO 63 0 min 0,000 mm 0,0 UV-I 25 W/m 14,0 C 4,8 km/h (1 Bft)
23.08.2016 18:46 21,3 C 21,3 C 64 % 1024,9 hPa 0,0 mm 2,0 km/h (1 Bft) O-NO 62 0 min 0,000 mm 0,0 UV-I 30 W/m 14,2 C 4,8 km/h (1 Bft)
23.08.2016 18:47 21,4 C 21,4 C 63 % 1024,9 hPa 0,0 mm 1,7 km/h (1 Bft) O-NO 62 0 min 0,000 mm 0,0 UV-I 28 W/m 14,1 C 3,2 km/h (1 Bft)
23.08.2016 18:48 21,4 C 21,4 C 66 % 1024,9 hPa 0,0 mm 3,1 km/h (1 Bft) O-NO 71 0 min 0,000 mm 0,0 UV-I 26 W/m 14,8 C 4,8 km/h (1 Bft)
23.08.2016 18:49 21,4 C 21,4 C 64 % 1025,0 hPa 0,0 mm 5,6 km/h (1 Bft) O 79 0 min 0,000 mm 0,0 UV-I 26 W/m 14,3 C 8,0 km/h (2 Bft)
23.08.2016 18:50 21,3 C 21,4 C 64 % 1025,0 hPa 0,0 mm 5,8 km/h (2 Bft) N 5 0 min 0,000 mm 0,0 UV-I 25 W/m 14,2 C 8,0 km/h (2 Bft)
23.08.2016 18:51 21,4 C 21,4 C 63 % 1025,0 hPa 0,0 mm 7,0 km/h (2 Bft) O-NO 57 0 min 0,000 mm 0,0 UV-I 26 W/m 14,1 C 9,7 km/h (2 Bft)
23.08.2016 18:52 21,4 C 21,4 C 61 % 1025,0 hPa 0,0 mm 5,4 km/h (1 Bft) N-NO 32 0 min 0,000 mm 0,0 UV-I 26 W/m 13,6 C 9,7 km/h (2 Bft)
23.08.2016 18:53 21,6 C 21,6 C 61 % 1025,0 hPa 0,0 mm 4,1 km/h (1 Bft) N-NO 24 0 min 0,000 mm 0,0 UV-I 26 W/m 13,7 C 6,4 km/h (2 Bft)
23.08.2016 18:54 21,7 C 21,7 C 61 % 1024,9 hPa 0,0 mm 3,3 km/h (1 Bft) O-NO 77 0 min 0,000 mm 0,0 UV-I 26 W/m 13,8 C 6,4 km/h (2 Bft)
23.08.2016 18:55 21,7 C 21,7 C 62 % 1025,0 hPa 0,0 mm 5,6 km/h (1 Bft) O-NO 76 0 min 0,000 mm 0,0 UV-I 26 W/m 14,1 C 9,7 km/h (2 Bft)
23.08.2016 18:56 21,7 C 21,7 C 62 % 1024,9 hPa 0,0 mm 5,0 km/h (1 Bft) NO 46 0 min 0,000 mm 0,0 UV-I 28 W/m 14,1 C 8,0 km/h (2 Bft)
23.08.2016 18:57 21,6 C 21,7 C 63 % 1025,0 hPa 0,0 mm 3,4 km/h (1 Bft) O-NO 61 0 min 0,000 mm 0,0 UV-I 28 W/m 14,2 C 6,4 km/h (2 Bft)
23.08.2016 18:58 21,6 C 21,7 C 63 % 1024,9 hPa 0,0 mm 3,6 km/h (1 Bft) O 95 0 min 0,000 mm 0,0 UV-I 33 W/m 14,2 C 4,8 km/h (1 Bft)
23.08.2016 18:59 21,5 C 21,6 C 63 % 1024,9 hPa 0,0 mm 3,5 km/h (1 Bft) O 88 0 min 0,000 mm 0,0 UV-I 32 W/m 14,2 C 6,4 km/h (2 Bft)
23.08.2016 19:00 21,6 C 21,6 C 64 % 1024,9 hPa 0,0 mm 3,0 km/h (1 Bft) O-NO 75 0 min 0,000 mm 0,0 UV-I 35 W/m 14,5 C 4,8 km/h (1 Bft)
23.08.2016 19:01 21,4 C 21,6 C 63 % 1024,9 hPa 0,0 mm 3,8 km/h (1 Bft) O 79 0 min 0,051 mm 0,0 UV-I 35 W/m 14,1 C 4,8 km/h (1 Bft)
23.08.2016 19:02 21,4 C 21,4 C 64 % 1024,8 hPa 0,0 mm 3,2 km/h (1 Bft) O 82 0 min 0,000 mm 0,0 UV-I 39 W/m 14,3 C 4,8 km/h (1 Bft)
23.08.2016 19:03 21,3 C 21,4 C 64 % 1024,8 hPa 0,0 mm 5,4 km/h (1 Bft) O 86 0 min 0,000 mm 0,0 UV-I 30 W/m 14,2 C 8,0 km/h (2 Bft)
23.08.2016 19:04 21,3 C 21,3 C 65 % 1024,9 hPa 0,0 mm 2,9 km/h (1 Bft) O-NO 76 0 min 0,000 mm 0,0 UV-I 32 W/m 14,4 C 6,4 km/h (2 Bft)
23.08.2016 19:05 21,2 C 21,3 C 65 % 1024,9 hPa 0,0 mm 6,5 km/h (2 Bft) O 101 0 min 0,000 mm 0,0 UV-I 30 W/m 14,4 C 8,0 km/h (2 Bft)
23.08.2016 19:06 21,1 C 21,2 C 67 % 1024,8 hPa 0,0 mm 1,5 km/h (1 Bft) O 82 0 min 0,000 mm 0,0 UV-I 28 W/m 14,7 C 3,2 km/h (1 Bft)
23.08.2016 19:07 21,0 C 21,1 C 67 % 1024,8 hPa 0,0 mm 2,9 km/h (1 Bft) O-NO 63 0 min 0,000 mm 0,0 UV-I 28 W/m 14,6 C 4,8 km/h (1 Bft)
23.08.2016 19:08 20,9 C 21,0 C 67 % 1024,7 hPa 0,0 mm 2,9 km/h (1 Bft) O-NO 59 0 min 0,000 mm 0,0 UV-I 26 W/m 14,5 C 4,8 km/h (1 Bft)
23.08.2016 19:09 20,9 C 20,9 C 67 % 1024,7 hPa 0,0 mm 0,8 km/h (0 Bft) O-NO 59 0 min 0,000 mm 0,0 UV-I 30 W/m 14,5 C 1,6 km/h (1 Bft)
23.08.2016 19:10 20,9 C 21,0 C 68 % 1024,8 hPa 0,0 mm 1,1 km/h (1 Bft) O-NO 59 0 min 0,000 mm 0,0 UV-I 26 W/m 14,8 C 1,6 km/h (1 Bft)
23.08.2016 19:11 21,0 C 21,0 C 66 % 1024,8 hPa 0,0 mm 4,3 km/h (1 Bft) NO 36 0 min 0,000 mm 0,0 UV-I 30 W/m 14,4 C 9,7 km/h (2 Bft)
23.08.2016 19:12 21,0 C 21,0 C 67 % 1024,8 hPa 0,0 mm 1,9 km/h (1 Bft) NO 47 0 min 0,000 mm 0,0 UV-I 53 W/m 14,6 C 4,8 km/h (1 Bft)
23.08.2016 19:13 21,0 C 21,0 C 67 % 1024,8 hPa 0,0 mm 1,8 km/h (1 Bft) NO 47 0 min 0,000 mm 0,0 UV-I 69 W/m 14,6 C 3,2 km/h (1 Bft)
23.08.2016 19:14 21,0 C 21,1 C 67 % 1024,8 hPa 0,0 mm 2,3 km/h (1 Bft) O-NO 71 0 min 0,000 mm 0,0 UV-I 69 W/m 14,6 C 4,8 km/h (1 Bft)
23.08.2016 19:15 20,9 C 21,0 C 66 % 1024,9 hPa 0,0 mm 2,0 km/h (1 Bft) O-NO 71 0 min 0,000 mm 0,0 UV-I 42 W/m 14,3 C 3,2 km/h (1 Bft)
23.08.2016 19:16 20,9 C 20,9 C 67 % 1024,9 hPa 0,0 mm 1,7 km/h (1 Bft) NO 37 0 min 0,000 mm 0,0 UV-I 51 W/m 14,5 C 3,2 km/h (1 Bft)
23.08.2016 19:17 20,8 C 20,9 C 68 % 1024,9 hPa 0,0 mm 1,0 km/h (0 Bft) NO 37 0 min 0,000 mm 0,0 UV-I 46 W/m 14,7 C 1,6 km/h (1 Bft)
23.08.2016 19:18 20,6 C 20,8 C 69 % 1024,9 hPa 0,0 mm 3,4 km/h (1 Bft) O 91 0 min 0,000 mm 0,0 UV-I 44 W/m 14,7 C 4,8 km/h (1 Bft)
23.08.2016 19:19 20,5 C 20,6 C 68 % 1024,9 hPa 0,0 mm 6,6 km/h (2 Bft) O-NO 62 0 min 0,000 mm 0,0 UV-I 47 W/m 14,4 C 9,7 km/h (2 Bft)
23.08.2016 19:20 20,5 C 20,6 C 69 % 1024,9 hPa 0,0 mm 4,2 km/h (1 Bft) NO 53 0 min 0,000 mm 0,0 UV-I 47 W/m 14,6 C 8,0 km/h (2 Bft)
23.08.2016 19:21 20,6 C 20,6 C 67 % 1024,9 hPa 0,0 mm 4,2 km/h (1 Bft) NO 44 0 min 0,000 mm 0,0 UV-I 54 W/m 14,3 C 6,4 km/h (2 Bft)
23.08.2016 19:22 20,7 C 20,7 C 68 % 1024,9 hPa 0,0 mm 2,7 km/h (1 Bft) NO 36 0 min 0,000 mm 0,0 UV-I 58 W/m 14,6 C 4,8 km/h (1 Bft)
23.08.2016 19:23 20,7 C 20,7 C 67 % 1024,9 hPa 0,0 mm 2,3 km/h (1 Bft) NO 53 0 min 0,000 mm 0,0 UV-I 54 W/m 14,3 C 3,2 km/h (1 Bft)
23.08.2016 19:24 20,8 C 20,8 C 67 % 1024,9 hPa 0,0 mm 1,9 km/h (1 Bft) NO 49 0 min 0,000 mm 0,0 UV-I 54 W/m 14,4 C 3,2 km/h (1 Bft)
23.08.2016 19:25 20,7 C 20,8 C 68 % 1024,9 hPa 0,0 mm 2,0 km/h (1 Bft) NO 56 0 min 0,000 mm 0,0 UV-I 53 W/m 14,6 C 3,2 km/h (1 Bft)
23.08.2016 19:26 20,5 C 20,7 C 69 % 1024,9 hPa 0,0 mm 2,3 km/h (1 Bft) O-SO 115 0 min 0,000 mm 0,0 UV-I 49 W/m 14,6 C 4,8 km/h (1 Bft)
23.08.2016 19:27 20,5 C 20,5 C 67 % 1025,0 hPa 0,0 mm 1,2 km/h (1 Bft) O-SO 115 0 min 0,000 mm 0,0 UV-I 46 W/m 14,2 C 3,2 km/h (1 Bft)
23.08.2016 19:28 20,5 C 20,5 C 68 % 1025,0 hPa 0,0 mm 1,4 km/h (1 Bft) O-SO 115 0 min 0,000 mm 0,0 UV-I 44 W/m 14,4 C 3,2 km/h (1 Bft)
23.08.2016 19:29 20,4 C 20,5 C 68 % 1025,0 hPa 0,0 mm 0,2 km/h (0 Bft) O-SO 115 0 min 0,000 mm 0,0 UV-I 42 W/m 14,3 C 1,6 km/h (1 Bft)
23.08.2016 19:30 20,4 C 20,4 C 69 % 1024,9 hPa 0,0 mm 1,5 km/h (1 Bft) O-SO 115 0 min 0,000 mm 0,0 UV-I 40 W/m 14,5 C 3,2 km/h (1 Bft)
23.08.2016 19:31 20,3 C 20,4 C 68 % 1025,0 hPa 0,0 mm 0,8 km/h (0 Bft) O-SO 115 0 min 0,000 mm 0,0 UV-I 39 W/m 14,2 C 1,6 km/h (1 Bft)
23.08.2016 19:32 20,3 C 20,3 C 68 % 1024,9 hPa 0,0 mm 2,1 km/h (1 Bft) O-SO 115 0 min 0,000 mm 0,0 UV-I 39 W/m 14,2 C 3,2 km/h (1 Bft)
23.08.2016 19:33 20,3 C 20,3 C 68 % 1025,0 hPa 0,0 mm 2,5 km/h (1 Bft) O-SO 112 0 min 0,000 mm 0,0 UV-I 35 W/m 14,2 C 4,8 km/h (1 Bft)
23.08.2016 19:34 20,3 C 20,3 C 69 % 1025,0 hPa 0,0 mm 1,2 km/h (1 Bft) O-SO 112 0 min 0,000 mm 0,0 UV-I 33 W/m 14,4 C 1,6 km/h (1 Bft)
23.08.2016 19:35 20,2 C 20,3 C 69 % 1025,0 hPa 0,0 mm 0,6 km/h (0 Bft) O-SO 112 0 min 0,000 mm 0,0 UV-I 32 W/m 14,3 C 1,6 km/h (1 Bft)
23.08.2016 19:36 20,2 C 20,2 C 71 % 1024,9 hPa 0,0 mm 1,6 km/h (1 Bft) O-SO 113 0 min 0,000 mm 0,0 UV-I 30 W/m 14,8 C 3,2 km/h (1 Bft)
23.08.2016 19:37 20,1 C 20,2 C 69 % 1025,0 hPa 0,0 mm 0,9 km/h (0 Bft) O-SO 113 0 min 0,000 mm 0,0 UV-I 28 W/m 14,2 C 1,6 km/h (1 Bft)
23.08.2016 19:38 20,0 C 20,1 C 70 % 1025,0 hPa 0,0 mm 1,9 km/h (1 Bft) O-SO 102 0 min 0,000 mm 0,0 UV-I 26 W/m 14,4 C 3,2 km/h (1 Bft)
23.08.2016 19:39 19,8 C 20,0 C 71 % 1025,0 hPa 0,0 mm 1,4 km/h (1 Bft) O-SO 102 0 min 0,000 mm 0,0 UV-I 25 W/m 14,4 C 3,2 km/h (1 Bft)
23.08.2016 19:40 19,7 C 19,8 C 72 % 1025,0 hPa 0,0 mm 1,7 km/h (1 Bft) O-SO 102 0 min 0,000 mm 0,0 UV-I 23 W/m 14,5 C 3,2 km/h (1 Bft)
23.08.2016 19:41 19,6 C 19,7 C 71 % 1025,0 hPa 0,0 mm 1,6 km/h (1 Bft) O-SO 102 0 min 0,000 mm 0,0 UV-I 21 W/m 14,2 C 3,2 km/h (1 Bft)
23.08.2016 19:42 19,6 C 19,6 C 71 % 1024,9 hPa 0,0 mm 1,4 km/h (1 Bft) O-SO 102 0 min 0,000 mm 0,0 UV-I 21 W/m 14,2 C 3,2 km/h (1 Bft)
23.08.2016 19:43 19,6 C 19,6 C 72 % 1025,0 hPa 0,0 mm 1,9 km/h (1 Bft) O-SO 102 0 min 0,000 mm 0,0 UV-I 19 W/m 14,4 C 3,2 km/h (1 Bft)
23.08.2016 19:44 19,6 C 19,6 C 72 % 1025,0 hPa 0,0 mm 2,0 km/h (1 Bft) O-SO 102 0 min 0,000 mm 0,0 UV-I 18 W/m 14,4 C 3,2 km/h (1 Bft)
23.08.2016 19:45 19,6 C 19,6 C 72 % 1025,0 hPa 0,0 mm 2,1 km/h (1 Bft) O-SO 102 0 min 0,000 mm 0,0 UV-I 16 W/m 14,4 C 3,2 km/h (1 Bft)
23.08.2016 19:46 19,6 C 19,6 C 72 % 1025,0 hPa 0,0 mm 1,3 km/h (1 Bft) O-SO 102 0 min 0,000 mm 0,0 UV-I 14 W/m 14,4 C 1,6 km/h (1 Bft)
23.08.2016 19:47 19,6 C 19,6 C 71 % 1025,0 hPa 0,0 mm 1,7 km/h (1 Bft) O-SO 102 0 min 0,000 mm 0,0 UV-I 14 W/m 14,2 C 3,2 km/h (1 Bft)
23.08.2016 19:48 19,6 C 19,6 C 71 % 1025,0 hPa 0,0 mm 1,1 km/h (1 Bft) O-SO 102 0 min 0,000 mm 0,0 UV-I 14 W/m 14,2 C 3,2 km/h (1 Bft)
23.08.2016 19:49 19,4 C 19,6 C 72 % 1025,0 hPa 0,0 mm 2,7 km/h (1 Bft) O-SO 102 0 min 0,000 mm 0,0 UV-I 12 W/m 14,2 C 3,2 km/h (1 Bft)
23.08.2016 19:50 19,4 C 19,4 C 72 % 1025,0 hPa 0,0 mm 1,7 km/h (1 Bft) O-SO 102 0 min 0,000 mm 0,0 UV-I 12 W/m 14,2 C 3,2 km/h (1 Bft)
23.08.2016 19:51 19,3 C 19,4 C 72 % 1025,0 hPa 0,0 mm 2,7 km/h (1 Bft) O-SO 102 0 min 0,000 mm 0,0 UV-I 12 W/m 14,1 C 3,2 km/h (1 Bft)
23.08.2016 19:52 19,3 C 19,3 C 72 % 1025,0 hPa 0,0 mm 2,3 km/h (1 Bft) O-SO 102 0 min 0,000 mm 0,0 UV-I 12 W/m 14,1 C 3,2 km/h (1 Bft)
23.08.2016 19:53 19,3 C 19,3 C 72 % 1025,0 hPa 0,0 mm 1,9 km/h (1 Bft) O-SO 102 0 min 0,000 mm 0,0 UV-I 12 W/m 14,1 C 3,2 km/h (1 Bft)
23.08.2016 19:54 19,2 C 19,3 C 72 % 1025,0 hPa 0,0 mm 1,8 km/h (1 Bft) O-SO 102 0 min 0,000 mm 0,0 UV-I 11 W/m 14,0 C 3,2 km/h (1 Bft)
23.08.2016 19:55 19,1 C 19,2 C 73 % 1025,1 hPa 0,0 mm 2,2 km/h (1 Bft) O-SO 102 0 min 0,000 mm 0,0 UV-I 11 W/m 14,1 C 3,2 km/h (1 Bft)
23.08.2016 19:56 18,9 C 19,1 C 74 % 1025,0 hPa 0,0 mm 1,7 km/h (1 Bft) O-SO 102 0 min 0,000 mm 0,0 UV-I 11 W/m 14,2 C 3,2 km/h (1 Bft)
23.08.2016 19:57 18,9 C 18,9 C 74 % 1025,0 hPa 0,0 mm 1,9 km/h (1 Bft) O-SO 102 0 min 0,000 mm 0,0 UV-I 11 W/m 14,2 C 3,2 km/h (1 Bft)
23.08.2016 19:58 18,8 C 18,9 C 74 % 1025,0 hPa 0,0 mm 1,8 km/h (1 Bft) O-SO 102 0 min 0,000 mm 0,0 UV-I 11 W/m 14,1 C 3,2 km/h (1 Bft)
23.08.2016 19:59 18,8 C 18,8 C 73 % 1025,0 hPa 0,0 mm 1,2 km/h (1 Bft) O-SO 102 0 min 0,000 mm 0,0 UV-I 9 W/m 13,9 C 1,6 km/h (1 Bft)
23.08.2016 20:00 18,7 C 18,8 C 74 % 1025,0 hPa 0,0 mm 1,9 km/h (1 Bft) O-SO 102 0 min 0,000 mm 0,0 UV-I 9 W/m 14,0 C 3,2 km/h (1 Bft)
23.08.2016 20:01 18,7 C 18,7 C 74 % 1025,1 hPa 0,0 mm 2,7 km/h (1 Bft) O-SO 102 0 min 0,025 mm 0,0 UV-I 9 W/m 14,0 C 3,2 km/h (1 Bft)
23.08.2016 20:02 18,6 C 18,7 C 74 % 1025,1 hPa 0,0 mm 2,1 km/h (1 Bft) O-SO 102 0 min 0,001 mm 0,0 UV-I 7 W/m 13,9 C 3,2 km/h (1 Bft)
23.08.2016 20:03 18,6 C 18,7 C 74 % 1025,1 hPa 0,0 mm 2,1 km/h (1 Bft) O-SO 102 0 min 0,000 mm 0,0 UV-I 7 W/m 13,9 C 3,2 km/h (1 Bft)
23.08.2016 20:04 18,6 C 18,6 C 74 % 1025,1 hPa 0,0 mm 1,5 km/h (1 Bft) O-SO 102 0 min 0,000 mm 0,0 UV-I 7 W/m 13,9 C 3,2 km/h (1 Bft)
23.08.2016 20:05 18,6 C 18,6 C 75 % 1025,1 hPa 0,0 mm 2,0 km/h (1 Bft) O-SO 102 0 min 0,000 mm 0,0 UV-I 5 W/m 14,1 C 3,2 km/h (1 Bft)
23.08.2016 20:06 18,5 C 18,6 C 75 % 1025,1 hPa 0,0 mm 1,8 km/h (1 Bft) O-SO 102 0 min 0,000 mm 0,0 UV-I 5 W/m 14,0 C 3,2 km/h (1 Bft)
23.08.2016 20:07 18,4 C 18,5 C 75 % 1025,1 hPa 0,0 mm 1,9 km/h (1 Bft) O-SO 111 0 min 0,000 mm 0,0 UV-I 5 W/m 13,9 C 4,8 km/h (1 Bft)
23.08.2016 20:08 18,4 C 18,4 C 75 % 1025,1 hPa 0,0 mm 1,9 km/h (1 Bft) O-SO 111 0 min 0,000 mm 0,0 UV-I 5 W/m 13,9 C 3,2 km/h (1 Bft)
23.08.2016 20:09 18,3 C 18,4 C 75 % 1025,1 hPa 0,0 mm 2,3 km/h (1 Bft) O-SO 111 0 min 0,000 mm 0,0 UV-I 5 W/m 13,8 C 3,2 km/h (1 Bft)
23.08.2016 20:10 18,3 C 18,3 C 76 % 1025,1 hPa 0,0 mm 2,3 km/h (1 Bft) O-SO 111 0 min 0,000 mm 0,0 UV-I 5 W/m 14,0 C 3,2 km/h (1 Bft)
23.08.2016 20:11 18,2 C 18,3 C 76 % 1025,1 hPa 0,0 mm 1,8 km/h (1 Bft) O-SO 111 0 min 0,000 mm 0,0 UV-I 5 W/m 13,9 C 3,2 km/h (1 Bft)
23.08.2016 20:12 18,2 C 18,2 C 76 % 1025,2 hPa 0,0 mm 2,2 km/h (1 Bft) O-SO 111 0 min 0,000 mm 0,0 UV-I 5 W/m 13,9 C 3,2 km/h (1 Bft)
23.08.2016 20:13 18,1 C 18,2 C 76 % 1025,2 hPa 0,0 mm 2,7 km/h (1 Bft) SO 130 0 min 0,000 mm 0,0 UV-I 0 W/m 13,8 C 4,8 km/h (1 Bft)
23.08.2016 20:14 18,1 C 18,1 C 76 % 1025,1 hPa 0,0 mm 2,5 km/h (1 Bft) SO 130 0 min 0,000 mm 0,0 UV-I 0 W/m 13,8 C 4,8 km/h (1 Bft)
23.08.2016 20:15 18,0 C 18,1 C 77 % 1025,2 hPa 0,0 mm 3,0 km/h (1 Bft) SO 130 0 min 0,000 mm 0,0 UV-I 0 W/m 13,9 C 4,8 km/h (1 Bft)
23.08.2016 20:16 17,9 C 18,0 C 76 % 1025,1 hPa 0,0 mm 2,9 km/h (1 Bft) SO 130 0 min 0,000 mm 0,0 UV-I 0 W/m 13,6 C 3,2 km/h (1 Bft)
23.08.2016 20:17 17,8 C 17,9 C 77 % 1025,2 hPa 0,0 mm 2,7 km/h (1 Bft) SO 130 0 min 0,000 mm 0,0 UV-I 0 W/m 13,7 C 3,2 km/h (1 Bft)
23.08.2016 20:18 17,8 C 17,8 C 77 % 1025,1 hPa 0,0 mm 3,0 km/h (1 Bft) SO 130 0 min 0,000 mm 0,0 UV-I 0 W/m 13,7 C 3,2 km/h (1 Bft)
23.08.2016 20:19 17,8 C 17,8 C 77 % 1025,2 hPa 0,0 mm 2,6 km/h (1 Bft) SO 136 0 min 0,000 mm 0,0 UV-I 0 W/m 13,7 C 4,8 km/h (1 Bft)
23.08.2016 20:20 17,7 C 17,8 C 78 % 1025,2 hPa 0,0 mm 3,6 km/h (1 Bft) SO 141 0 min 0,000 mm 0,0 UV-I 0 W/m 13,8 C 4,8 km/h (1 Bft)
23.08.2016 20:21 17,7 C 17,8 C 77 % 1025,1 hPa 0,0 mm 3,1 km/h (1 Bft) S-SO 150 0 min 0,000 mm 0,0 UV-I 0 W/m 13,6 C 4,8 km/h (1 Bft)
23.08.2016 20:22 17,7 C 17,7 C 77 % 1025,2 hPa 0,0 mm 3,0 km/h (1 Bft) S-SO 150 0 min 0,000 mm 0,0 UV-I 0 W/m 13,6 C 4,8 km/h (1 Bft)
23.08.2016 20:23 17,7 C 17,8 C 77 % 1025,1 hPa 0,0 mm 2,4 km/h (1 Bft) S-SO 150 0 min 0,000 mm 0,0 UV-I 0 W/m 13,6 C 3,2 km/h (1 Bft)
23.08.2016 20:24 17,7 C 17,7 C 78 % 1025,2 hPa 0,0 mm 1,4 km/h (1 Bft) S-SO 150 0 min 0,000 mm 0,0 UV-I 0 W/m 13,8 C 3,2 km/h (1 Bft)
23.08.2016 20:25 17,6 C 17,7 C 78 % 1025,2 hPa 0,0 mm 1,5 km/h (1 Bft) S-SO 150 0 min 0,000 mm 0,0 UV-I 0 W/m 13,7 C 3,2 km/h (1 Bft)
23.08.2016 20:26 17,6 C 17,6 C 78 % 1025,2 hPa 0,0 mm 1,7 km/h (1 Bft) S-SO 150 0 min 0,000 mm 0,0 UV-I 0 W/m 13,7 C 3,2 km/h (1 Bft)
23.08.2016 20:27 17,6 C 17,6 C 78 % 1025,2 hPa 0,0 mm 1,7 km/h (1 Bft) S-SO 150 0 min 0,000 mm 0,0 UV-I 0 W/m 13,7 C 3,2 km/h (1 Bft)
23.08.2016 20:28 17,5 C 17,6 C 78 % 1025,3 hPa 0,0 mm 0,9 km/h (0 Bft) S-SO 150 0 min 0,000 mm 0,0 UV-I 0 W/m 13,6 C 1,6 km/h (1 Bft)
23.08.2016 20:29 17,5 C 17,5 C 78 % 1025,3 hPa 0,0 mm 2,1 km/h (1 Bft) S-SO 150 0 min 0,000 mm 0,0 UV-I 0 W/m 13,6 C 3,2 km/h (1 Bft)
23.08.2016 20:30 17,4 C 17,5 C 79 % 1025,3 hPa 0,0 mm 1,8 km/h (1 Bft) S-SO 150 0 min 0,000 mm 0,0 UV-I 0 W/m 13,7 C 3,2 km/h (1 Bft)
23.08.2016 20:31 17,4 C 17,4 C 78 % 1025,3 hPa 0,0 mm 2,0 km/h (1 Bft) S-SO 150 0 min 0,000 mm 0,0 UV-I 0 W/m 13,5 C 3,2 km/h (1 Bft)
23.08.2016 20:32 17,5 C 17,5 C 78 % 1025,3 hPa 0,0 mm 2,4 km/h (1 Bft) S-SO 150 0 min 0,000 mm 0,0 UV-I 0 W/m 13,6 C 3,2 km/h (1 Bft)
23.08.2016 20:33 17,5 C 17,5 C 78 % 1025,3 hPa 0,0 mm 3,2 km/h (1 Bft) S-SO 150 0 min 0,000 mm 0,0 UV-I 0 W/m 13,6 C 4,8 km/h (1 Bft)
23.08.2016 20:34 17,5 C 17,5 C 78 % 1025,4 hPa 0,0 mm 2,3 km/h (1 Bft) S-SO 155 0 min 0,000 mm 0,0 UV-I 0 W/m 13,6 C 3,2 km/h (1 Bft)
23.08.2016 20:35 17,4 C 17,5 C 78 % 1025,4 hPa 0,0 mm 3,0 km/h (1 Bft) S-SO 155 0 min 0,000 mm 0,0 UV-I 0 W/m 13,5 C 4,8 km/h (1 Bft)
23.08.2016 20:36 17,4 C 17,4 C 78 % 1025,3 hPa 0,0 mm 1,5 km/h (1 Bft) S-SO 155 0 min 0,000 mm 0,0 UV-I 0 W/m 13,5 C 3,2 km/h (1 Bft)
23.08.2016 20:37 17,4 C 17,4 C 78 % 1025,4 hPa 0,0 mm 1,5 km/h (1 Bft) S-SO 155 0 min 0,000 mm 0,0 UV-I 0 W/m 13,5 C 3,2 km/h (1 Bft)
23.08.2016 20:38 17,4 C 17,4 C 78 % 1025,4 hPa 0,0 mm 2,2 km/h (1 Bft) S-SO 155 0 min 0,000 mm 0,0 UV-I 0 W/m 13,5 C 3,2 km/h (1 Bft)
23.08.2016 20:39 17,5 C 17,5 C 78 % 1025,4 hPa 0,0 mm 1,5 km/h (1 Bft) S-SO 155 0 min 0,000 mm 0,0 UV-I 0 W/m 13,6 C 4,8 km/h (1 Bft)
23.08.2016 20:40 17,4 C 17,5 C 78 % 1025,4 hPa 0,0 mm 2,4 km/h (1 Bft) S-SO 155 0 min 0,000 mm 0,0 UV-I 0 W/m 13,5 C 4,8 km/h (1 Bft)
23.08.2016 20:41 17,4 C 17,4 C 78 % 1025,4 hPa 0,0 mm 1,9 km/h (1 Bft) S-SO 155 0 min 0,000 mm 0,0 UV-I 0 W/m 13,5 C 3,2 km/h (1 Bft)
23.08.2016 20:42 17,4 C 17,4 C 78 % 1025,4 hPa 0,0 mm 1,8 km/h (1 Bft) S-SO 155 0 min 0,000 mm 0,0 UV-I 0 W/m 13,5 C 3,2 km/h (1 Bft)
23.08.2016 20:43 17,4 C 17,4 C 78 % 1025,5 hPa 0,0 mm 2,2 km/h (1 Bft) S-SO 155 0 min 0,000 mm 0,0 UV-I 0 W/m 13,5 C 3,2 km/h (1 Bft)
23.08.2016 20:44 17,3 C 17,4 C 78 % 1025,4 hPa 0,0 mm 3,0 km/h (1 Bft) S-SO 155 0 min 0,000 mm 0,0 UV-I 0 W/m 13,4 C 4,8 km/h (1 Bft)
23.08.2016 20:45 17,4 C 17,4 C 78 % 1025,4 hPa 0,0 mm 2,7 km/h (1 Bft) SO 135 0 min 0,000 mm 0,0 UV-I 0 W/m 13,5 C 4,8 km/h (1 Bft)
23.08.2016 20:46 17,4 C 17,4 C 78 % 1025,5 hPa 0,0 mm 2,3 km/h (1 Bft) SO 135 0 min 0,000 mm 0,0 UV-I 0 W/m 13,5 C 3,2 km/h (1 Bft)
23.08.2016 20:47 17,4 C 17,4 C 78 % 1025,4 hPa 0,0 mm 2,5 km/h (1 Bft) SO 132 0 min 0,000 mm 0,0 UV-I 0 W/m 13,5 C 3,2 km/h (1 Bft)
23.08.2016 20:48 17,3 C 17,4 C 78 % 1025,4 hPa 0,0 mm 2,5 km/h (1 Bft) SO 132 0 min 0,000 mm 0,0 UV-I 0 W/m 13,4 C 3,2 km/h (1 Bft)
23.08.2016 20:49 17,1 C 17,3 C 79 % 1025,4 hPa 0,0 mm 2,2 km/h (1 Bft) SO 132 0 min 0,000 mm 0,0 UV-I 0 W/m 13,4 C 3,2 km/h (1 Bft)
23.08.2016 20:50 17,0 C 17,1 C 79 % 1025,5 hPa 0,0 mm 2,6 km/h (1 Bft) SO 132 0 min 0,000 mm 0,0 UV-I 0 W/m 13,3 C 3,2 km/h (1 Bft)
23.08.2016 20:51 17,0 C 17,1 C 79 % 1025,5 hPa 0,0 mm 1,7 km/h (1 Bft) SO 133 0 min 0,000 mm 0,0 UV-I 0 W/m 13,3 C 3,2 km/h (1 Bft)
23.08.2016 20:52 17,0 C 17,1 C 79 % 1025,5 hPa 0,0 mm 2,3 km/h (1 Bft) SO 133 0 min 0,000 mm 0,0 UV-I 0 W/m 13,3 C 3,2 km/h (1 Bft)
23.08.2016 20:53 17,0 C 17,1 C 79 % 1025,5 hPa 0,0 mm 2,3 km/h (1 Bft) SO 138 0 min 0,000 mm 0,0 UV-I 0 W/m 13,3 C 3,2 km/h (1 Bft)
23.08.2016 20:54 17,0 C 17,1 C 79 % 1025,5 hPa 0,0 mm 2,3 km/h (1 Bft) SO 138 0 min 0,000 mm 0,0 UV-I 0 W/m 13,3 C 3,2 km/h (1 Bft)
23.08.2016 20:55 16,9 C 17,0 C 79 % 1025,5 hPa 0,0 mm 2,5 km/h (1 Bft) SO 142 0 min 0,000 mm 0,0 UV-I 0 W/m 13,2 C 3,2 km/h (1 Bft)
23.08.2016 20:56 16,9 C 16,9 C 79 % 1025,5 hPa 0,0 mm 2,1 km/h (1 Bft) SO 142 0 min 0,000 mm 0,0 UV-I 0 W/m 13,2 C 3,2 km/h (1 Bft)
23.08.2016 20:57 16,9 C 16,9 C 80 % 1025,5 hPa 0,0 mm 1,2 km/h (1 Bft) SO 142 0 min 0,000 mm 0,0 UV-I 0 W/m 13,4 C 1,6 km/h (1 Bft)
23.08.2016 20:58 16,9 C 16,9 C 80 % 1025,5 hPa 0,0 mm 1,3 km/h (1 Bft) SO 142 0 min 0,000 mm 0,0 UV-I 0 W/m 13,4 C 1,6 km/h (1 Bft)
23.08.2016 20:59 16,9 C 16,9 C 79 % 1025,5 hPa 0,0 mm 2,0 km/h (1 Bft) SO 142 0 min 0,000 mm 0,0 UV-I 0 W/m 13,2 C 4,8 km/h (1 Bft)
23.08.2016 21:00 16,9 C 16,9 C 80 % 1025,5 hPa 0,0 mm 1,9 km/h (1 Bft) SO 142 0 min 0,000 mm 0,0 UV-I 0 W/m 13,4 C 3,2 km/h (1 Bft)
23.08.2016 21:01 16,8 C 16,9 C 80 % 1025,5 hPa 0,0 mm 0,8 km/h (0 Bft) SO 142 0 min 0,000 mm 0,0 UV-I 0 W/m 13,3 C 1,6 km/h (1 Bft)
23.08.2016 21:02 16,9 C 16,9 C 80 % 1025,5 hPa 0,0 mm 0,4 km/h (0 Bft) SO 142 0 min 0,000 mm 0,0 UV-I 0 W/m 13,4 C 1,6 km/h (1 Bft)
23.08.2016 21:03 16,8 C 16,9 C 80 % 1025,5 hPa 0,0 mm 0,1 km/h (0 Bft) SO 142 0 min 0,000 mm 0,0 UV-I 0 W/m 13,3 C 1,6 km/h (1 Bft)
23.08.2016 21:04 16,8 C 16,8 C 80 % 1025,5 hPa 0,0 mm 0,0 km/h (0 Bft) SO 142 0 min 0,000 mm 0,0 UV-I 0 W/m 13,3 C 0,0 km/h (0 Bft)
23.08.2016 21:05 16,8 C 16,8 C 80 % 1025,5 hPa 0,0 mm 0,0 km/h (0 Bft) SO 142 0 min 0,000 mm 0,0 UV-I 0 W/m 13,3 C 0,0 km/h (0 Bft)
23.08.2016 21:06 16,8 C 16,8 C 80 % 1025,5 hPa 0,0 mm 0,7 km/h (0 Bft) SO 142 0 min 0,000 mm 0,0 UV-I 0 W/m 13,3 C 3,2 km/h (1 Bft)
23.08.2016 21:07 16,7 C 16,8 C 80 % 1025,5 hPa 0,0 mm 1,7 km/h (1 Bft) SO 142 0 min 0,000 mm 0,0 UV-I 0 W/m 13,2 C 3,2 km/h (1 Bft)
23.08.2016 21:08 16,8 C 16,8 C 81 % 1025,5 hPa 0,0 mm 1,3 km/h (1 Bft) SO 142 0 min 0,000 mm 0,0 UV-I 0 W/m 13,5 C 1,6 km/h (1 Bft)
23.08.2016 21:09 16,8 C 16,8 C 81 % 1025,5 hPa 0,0 mm 0,1 km/h (0 Bft) SO 142 0 min 0,000 mm 0,0 UV-I 0 W/m 13,5 C 1,6 km/h (1 Bft)
23.08.2016 21:10 16,7 C 16,8 C 80 % 1025,6 hPa 0,0 mm 0,0 km/h (0 Bft) SO 141 0 min 0,000 mm 0,0 UV-I 0 W/m 13,2 C 0,0 km/h (0 Bft)
23.08.2016 21:11 16,7 C 16,7 C 81 % 1025,5 hPa 0,0 mm 1,3 km/h (1 Bft) SO 142 0 min 0,000 mm 0,0 UV-I 0 W/m 13,4 C 1,6 km/h (1 Bft)
23.08.2016 21:12 16,6 C 16,7 C 81 % 1025,5 hPa 0,0 mm 1,3 km/h (1 Bft) SO 142 0 min 0,000 mm 0,0 UV-I 0 W/m 13,3 C 1,6 km/h (1 Bft)
23.08.2016 21:13 16,6 C 16,7 C 80 % 1025,6 hPa 0,0 mm 2,1 km/h (1 Bft) SO 142 0 min 0,000 mm 0,0 UV-I 0 W/m 13,1 C 3,2 km/h (1 Bft)
23.08.2016 21:14 16,6 C 16,6 C 81 % 1025,5 hPa 0,0 mm 1,1 km/h (1 Bft) SO 142 0 min 0,000 mm 0,0 UV-I 0 W/m 13,3 C 1,6 km/h (1 Bft)
23.08.2016 21:15 16,6 C 16,6 C 81 % 1025,6 hPa 0,0 mm 0,7 km/h (0 Bft) SO 142 0 min 0,000 mm 0,0 UV-I 0 W/m 13,3 C 1,6 km/h (1 Bft)
23.08.2016 21:16 16,5 C 16,6 C 82 % 1025,5 hPa 0,0 mm 2,1 km/h (1 Bft) SO 142 0 min 0,000 mm 0,0 UV-I 0 W/m 13,4 C 3,2 km/h (1 Bft)
23.08.2016 21:17 16,5 C 16,6 C 82 % 1025,6 hPa 0,0 mm 0,6 km/h (0 Bft) SO 142 0 min 0,000 mm 0,0 UV-I 0 W/m 13,4 C 1,6 km/h (1 Bft)
23.08.2016 21:18 16,4 C 16,6 C 81 % 1025,5 hPa 0,0 mm 0,0 km/h (0 Bft) SO 142 0 min 0,000 mm 0,0 UV-I 0 W/m 13,1 C 0,0 km/h (0 Bft)
23.08.2016 21:19 16,2 C 16,4 C 81 % 1025,6 hPa 0,0 mm 0,0 km/h (0 Bft) SO 142 0 min 0,000 mm 0,0 UV-I 0 W/m 12,9 C 0,0 km/h (0 Bft)
23.08.2016 21:20 16,0 C 16,2 C 82 % 1025,5 hPa 0,0 mm 0,0 km/h (0 Bft) SO 142 0 min 0,000 mm 0,0 UV-I 0 W/m 12,9 C 0,0 km/h (0 Bft)
23.08.2016 21:21 15,9 C 16,0 C 83 % 1025,6 hPa 0,0 mm 0,0 km/h (0 Bft) SO 142 0 min 0,000 mm 0,0 UV-I 0 W/m 13,0 C 0,0 km/h (0 Bft)
23.08.2016 21:22 15,8 C 15,9 C 83 % 1025,5 hPa 0,0 mm 0,1 km/h (0 Bft) SO 142 0 min 0,000 mm 0,0 UV-I 0 W/m 12,9 C 1,6 km/h (1 Bft)
23.08.2016 21:23 15,7 C 15,8 C 84 % 1025,6 hPa 0,0 mm 0,0 km/h (0 Bft) SO 142 0 min 0,000 mm 0,0 UV-I 0 W/m 13,0 C 0,0 km/h (0 Bft)
23.08.2016 21:24 15,6 C 15,7 C 84 % 1025,6 hPa 0,0 mm 0,0 km/h (0 Bft) SO 142 0 min 0,000 mm 0,0 UV-I 0 W/m 12,9 C 0,0 km/h (0 Bft)
23.08.2016 21:25 15,5 C 15,6 C 85 % 1025,6 hPa 0,0 mm 0,0 km/h (0 Bft) SO 142 0 min 0,000 mm 0,0 UV-I 0 W/m 13,0 C 0,0 km/h (0 Bft)
23.08.2016 21:26 15,4 C 15,5 C 85 % 1025,6 hPa 0,0 mm 0,0 km/h (0 Bft) SO 142 0 min 0,000 mm 0,0 UV-I 0 W/m 12,9 C 0,0 km/h (0 Bft)
23.08.2016 21:27 15,4 C 15,4 C 85 % 1025,6 hPa 0,0 mm 0,0 km/h (0 Bft) SO 142 0 min 0,000 mm 0,0 UV-I 0 W/m 12,9 C 0,0 km/h (0 Bft)
23.08.2016 21:28 15,3 C 15,4 C 86 % 1025,6 hPa 0,0 mm 0,0 km/h (0 Bft) SO 142 0 min 0,000 mm 0,0 UV-I 0 W/m 13,0 C 0,0 km/h (0 Bft)
23.08.2016 21:29 15,3 C 15,3 C 86 % 1025,6 hPa 0,0 mm 0,3 km/h (0 Bft) SO 142 0 min 0,000 mm 0,0 UV-I 0 W/m 13,0 C 1,6 km/h (1 Bft)
23.08.2016 21:30 15,3 C 15,3 C 86 % 1025,6 hPa 0,0 mm 0,3 km/h (0 Bft) SO 142 0 min 0,000 mm 0,0 UV-I 0 W/m 13,0 C 1,6 km/h (1 Bft)
23.08.2016 21:31 15,4 C 15,4 C 86 % 1025,5 hPa 0,0 mm 0,0 km/h (0 Bft) SO 142 0 min 0,000 mm 0,0 UV-I 0 W/m 13,1 C 0,0 km/h (0 Bft)
23.08.2016 21:32 15,4 C 15,4 C 85 % 1025,6 hPa 0,0 mm 0,0 km/h (0 Bft) SO 142 0 min 0,000 mm 0,0 UV-I 0 W/m 12,9 C 0,0 km/h (0 Bft)
23.08.2016 21:33 15,3 C 15,4 C 85 % 1025,6 hPa 0,0 mm 0,0 km/h (0 Bft) SO 142 0 min 0,000 mm 0,0 UV-I 0 W/m 12,8 C 0,0 km/h (0 Bft)
23.08.2016 21:34 15,3 C 15,3 C 86 % 1025,6 hPa 0,0 mm 0,0 km/h (0 Bft) SO 142 0 min 0,000 mm 0,0 UV-I 0 W/m 13,0 C 0,0 km/h (0 Bft)
23.08.2016 21:35 15,2 C 15,3 C 86 % 1025,6 hPa 0,0 mm 0,0 km/h (0 Bft) SO 142 0 min 0,000 mm 0,0 UV-I 0 W/m 12,9 C 0,0 km/h (0 Bft)
23.08.2016 21:36 15,2 C 15,2 C 86 % 1025,6 hPa 0,0 mm 0,0 km/h (0 Bft) SO 142 0 min 0,000 mm 0,0 UV-I 0 W/m 12,9 C 0,0 km/h (0 Bft)
23.08.2016 21:37 15,1 C 15,2 C 85 % 1025,6 hPa 0,0 mm 0,0 km/h (0 Bft) SO 142 0 min 0,000 mm 0,0 UV-I 0 W/m 12,6 C 0,0 km/h (0 Bft)
23.08.2016 21:38 15,0 C 15,1 C 86 % 1025,5 hPa 0,0 mm 0,0 km/h (0 Bft) SO 142 0 min 0,000 mm 0,0 UV-I 0 W/m 12,7 C 0,0 km/h (0 Bft)
23.08.2016 21:39 15,0 C 15,0 C 86 % 1025,6 hPa 0,0 mm 0,0 km/h (0 Bft) SO 142 0 min 0,000 mm 0,0 UV-I 0 W/m 12,7 C 0,0 km/h (0 Bft)
23.08.2016 21:40 14,9 C 15,0 C 87 % 1025,6 hPa 0,0 mm 0,0 km/h (0 Bft) SO 142 0 min 0,000 mm 0,0 UV-I 0 W/m 12,8 C 0,0 km/h (0 Bft)
23.08.2016 21:41 14,9 C 14,9 C 87 % 1025,6 hPa 0,0 mm 0,0 km/h (0 Bft) SO 142 0 min 0,000 mm 0,0 UV-I 0 W/m 12,8 C 0,0 km/h (0 Bft)
23.08.2016 21:42 14,9 C 14,9 C 88 % 1025,6 hPa 0,0 mm 0,0 km/h (0 Bft) SO 142 0 min 0,000 mm 0,0 UV-I 0 W/m 12,9 C 0,0 km/h (0 Bft)
23.08.2016 21:43 14,8 C 14,9 C 87 % 1025,6 hPa 0,0 mm 0,0 km/h (0 Bft) SO 142 0 min 0,000 mm 0,0 UV-I 0 W/m 12,7 C 0,0 km/h (0 Bft)
23.08.2016 21:44 14,8 C 14,8 C 88 % 1025,6 hPa 0,0 mm 0,0 km/h (0 Bft) SO 142 0 min 0,000 mm 0,0 UV-I 0 W/m 12,8 C 0,0 km/h (0 Bft)
23.08.2016 21:45 14,8 C 14,8 C 88 % 1025,5 hPa 0,0 mm 0,0 km/h (0 Bft) SO 142 0 min 0,000 mm 0,0 UV-I 0 W/m 12,8 C 0,0 km/h (0 Bft)
23.08.2016 21:46 14,8 C 14,8 C 88 % 1025,5 hPa 0,0 mm 0,0 km/h (0 Bft) SO 142 0 min 0,000 mm 0,0 UV-I 0 W/m 12,8 C 0,0 km/h (0 Bft)
23.08.2016 21:47 14,8 C 14,8 C 87 % 1025,6 hPa 0,0 mm 0,0 km/h (0 Bft) SO 142 0 min 0,000 mm 0,0 UV-I 0 W/m 12,7 C 0,0 km/h (0 Bft)
23.08.2016 21:48 14,8 C 14,8 C 87 % 1025,5 hPa 0,0 mm 0,0 km/h (0 Bft) SO 142 0 min 0,000 mm 0,0 UV-I 0 W/m 12,7 C 0,0 km/h (0 Bft)
23.08.2016 21:49 14,8 C 14,8 C 88 % 1025,5 hPa 0,0 mm 0,0 km/h (0 Bft) SO 142 0 min 0,000 mm 0,0 UV-I 0 W/m 12,8 C 0,0 km/h (0 Bft)
23.08.2016 21:50 14,9 C 14,9 C 87 % 1025,5 hPa 0,0 mm 0,0 km/h (0 Bft) SO 142 0 min 0,000 mm 0,0 UV-I 0 W/m 12,8 C 0,0 km/h (0 Bft)
23.08.2016 21:51 14,9 C 14,9 C 87 % 1025,5 hPa 0,0 mm 0,0 km/h (0 Bft) SO 142 0 min 0,000 mm 0,0 UV-I 0 W/m 12,8 C 0,0 km/h (0 Bft)
23.08.2016 21:52 14,9 C 14,9 C 88 % 1025,5 hPa 0,0 mm 0,0 km/h (0 Bft) SO 142 0 min 0,000 mm 0,0 UV-I 0 W/m 12,9 C 0,0 km/h (0 Bft)
23.08.2016 21:53 14,8 C 14,9 C 87 % 1025,4 hPa 0,0 mm 0,0 km/h (0 Bft) SO 142 0 min 0,000 mm 0,0 UV-I 0 W/m 12,7 C 0,0 km/h (0 Bft)
23.08.2016 21:54 14,8 C 14,8 C 87 % 1025,5 hPa 0,0 mm 0,0 km/h (0 Bft) SO 142 0 min 0,000 mm 0,0 UV-I 0 W/m 12,7 C 0,0 km/h (0 Bft)
23.08.2016 21:55 14,7 C 14,8 C 87 % 1025,5 hPa 0,0 mm 0,0 km/h (0 Bft) SO 142 0 min 0,000 mm 0,0 UV-I 0 W/m 12,6 C 0,0 km/h (0 Bft)
23.08.2016 21:56 14,7 C 14,7 C 87 % 1025,5 hPa 0,0 mm 0,0 km/h (0 Bft) SO 142 0 min 0,000 mm 0,0 UV-I 0 W/m 12,6 C 0,0 km/h (0 Bft)
23.08.2016 21:57 14,6 C 14,7 C 87 % 1025,5 hPa 0,0 mm 0,0 km/h (0 Bft) SO 142 0 min 0,000 mm 0,0 UV-I 0 W/m 12,5 C 0,0 km/h (0 Bft)
23.08.2016 21:58 14,6 C 14,6 C 88 % 1025,5 hPa 0,0 mm 0,0 km/h (0 Bft) SO 142 0 min 0,000 mm 0,0 UV-I 0 W/m 12,6 C 0,0 km/h (0 Bft)
23.08.2016 21:59 14,4 C 14,6 C 88 % 1025,5 hPa 0,0 mm 0,0 km/h (0 Bft) SO 142 0 min 0,000 mm 0,0 UV-I 0 W/m 12,4 C 0,0 km/h (0 Bft)
23.08.2016 22:00 14,4 C 14,4 C 88 % 1025,5 hPa 0,0 mm 0,0 km/h (0 Bft) SO 142 0 min 0,000 mm 0,0 UV-I 0 W/m 12,4 C 0,0 km/h (0 Bft)
23.08.2016 22:01 14,4 C 14,4 C 88 % 1025,5 hPa 0,0 mm 0,0 km/h (0 Bft) SO 142 0 min 0,025 mm 0,0 UV-I 0 W/m 12,4 C 0,0 km/h (0 Bft)
23.08.2016 22:02 14,4 C 14,4 C 88 % 1025,5 hPa 0,0 mm 0,0 km/h (0 Bft) SO 142 0 min 0,000 mm 0,0 UV-I 0 W/m 12,4 C 0,0 km/h (0 Bft)
23.08.2016 22:03 14,4 C 14,4 C 88 % 1025,5 hPa 0,0 mm 0,0 km/h (0 Bft) SO 142 0 min 0,000 mm 0,0 UV-I 0 W/m 12,4 C 0,0 km/h (0 Bft)
23.08.2016 22:04 14,4 C 14,4 C 88 % 1025,5 hPa 0,0 mm 0,0 km/h (0 Bft) SO 142 0 min 0,000 mm 0,0 UV-I 0 W/m 12,4 C 0,0 km/h (0 Bft)
23.08.2016 22:05 14,4 C 14,4 C 88 % 1025,4 hPa 0,0 mm 0,0 km/h (0 Bft) SO 142 0 min 0,000 mm 0,0 UV-I 0 W/m 12,4 C 0,0 km/h (0 Bft)
23.08.2016 22:06 14,4 C 14,4 C 89 % 1025,5 hPa 0,0 mm 0,0 km/h (0 Bft) SO 142 0 min 0,000 mm 0,0 UV-I 0 W/m 12,6 C 0,0 km/h (0 Bft)
23.08.2016 22:07 14,4 C 14,4 C 89 % 1025,4 hPa 0,0 mm 0,1 km/h (0 Bft) SO 142 0 min 0,000 mm 0,0 UV-I 0 W/m 12,6 C 1,6 km/h (1 Bft)
23.08.2016 22:08 14,4 C 14,5 C 88 % 1025,5 hPa 0,0 mm 0,0 km/h (0 Bft) SO 142 0 min 0,000 mm 0,0 UV-I 0 W/m 12,4 C 0,0 km/h (0 Bft)
23.08.2016 22:09 14,4 C 14,4 C 88 % 1025,4 hPa 0,0 mm 0,0 km/h (0 Bft) SO 142 0 min 0,000 mm 0,0 UV-I 0 W/m 12,4 C 0,0 km/h (0 Bft)
23.08.2016 22:10 14,5 C 14,5 C 88 % 1025,4 hPa 0,0 mm 0,0 km/h (0 Bft) SO 142 0 min 0,000 mm 0,0 UV-I 0 W/m 12,5 C 0,0 km/h (0 Bft)
23.08.2016 22:11 14,5 C 14,5 C 88 % 1025,4 hPa 0,0 mm 0,0 km/h (0 Bft) SO 142 0 min 0,000 mm 0,0 UV-I 0 W/m 12,5 C 0,0 km/h (0 Bft)
23.08.2016 22:12 14,6 C 14,6 C 88 % 1025,4 hPa 0,0 mm 0,0 km/h (0 Bft) SO 142 0 min 0,000 mm 0,0 UV-I 0 W/m 12,6 C 0,0 km/h (0 Bft)
23.08.2016 22:13 14,5 C 14,6 C 88 % 1025,4 hPa 0,0 mm 0,0 km/h (0 Bft) SO 142 0 min 0,000 mm 0,0 UV-I 0 W/m 12,5 C 0,0 km/h (0 Bft)
23.08.2016 22:14 14,5 C 14,6 C 88 % 1025,5 hPa 0,0 mm 0,0 km/h (0 Bft) SO 142 0 min 0,000 mm 0,0 UV-I 0 W/m 12,5 C 0,0 km/h (0 Bft)
23.08.2016 22:15 14,4 C 14,5 C 88 % 1025,4 hPa 0,0 mm 0,0 km/h (0 Bft) SO 142 0 min 0,000 mm 0,0 UV-I 0 W/m 12,4 C 0,0 km/h (0 Bft)
23.08.2016 22:16 14,4 C 14,4 C 88 % 1025,4 hPa 0,0 mm 0,0 km/h (0 Bft) SO 142 0 min 0,000 mm 0,0 UV-I 0 W/m 12,4 C 0,0 km/h (0 Bft)
23.08.2016 22:17 14,3 C 14,4 C 88 % 1025,5 hPa 0,0 mm 0,0 km/h (0 Bft) SO 142 0 min 0,000 mm 0,0 UV-I 0 W/m 12,3 C 0,0 km/h (0 Bft)
23.08.2016 22:18 14,3 C 14,4 C 88 % 1025,4 hPa 0,0 mm 0,0 km/h (0 Bft) SO 142 0 min 0,000 mm 0,0 UV-I 0 W/m 12,3 C 0,0 km/h (0 Bft)
23.08.2016 22:19 14,3 C 14,3 C 88 % 1025,4 hPa 0,0 mm 0,0 km/h (0 Bft) SO 142 0 min 0,000 mm 0,0 UV-I 0 W/m 12,3 C 0,0 km/h (0 Bft)
23.08.2016 22:20 14,3 C 14,3 C 88 % 1025,4 hPa 0,0 mm 0,0 km/h (0 Bft) SO 142 0 min 0,000 mm 0,0 UV-I 0 W/m 12,3 C 0,0 km/h (0 Bft)
23.08.2016 22:21 14,3 C 14,3 C 88 % 1025,4 hPa 0,0 mm 0,0 km/h (0 Bft) SO 142 0 min 0,000 mm 0,0 UV-I 0 W/m 12,3 C 0,0 km/h (0 Bft)
23.08.2016 22:22 14,2 C 14,3 C 88 % 1025,4 hPa 0,0 mm 0,0 km/h (0 Bft) SO 142 0 min 0,000 mm 0,0 UV-I 0 W/m 12,2 C 0,0 km/h (0 Bft)
23.08.2016 22:23 14,2 C 14,2 C 88 % 1025,4 hPa 0,0 mm 0,0 km/h (0 Bft) SO 142 0 min 0,000 mm 0,0 UV-I 0 W/m 12,2 C 0,0 km/h (0 Bft)
23.08.2016 22:24 14,2 C 14,2 C 88 % 1025,4 hPa 0,0 mm 0,0 km/h (0 Bft) SO 142 0 min 0,000 mm 0,0 UV-I 0 W/m 12,2 C 0,0 km/h (0 Bft)
23.08.2016 22:25 14,1 C 14,2 C 88 % 1025,4 hPa 0,0 mm 0,0 km/h (0 Bft) SO 142 0 min 0,000 mm 0,0 UV-I 0 W/m 12,1 C 0,0 km/h (0 Bft)
23.08.2016 22:26 14,1 C 14,1 C 89 % 1025,4 hPa 0,0 mm 0,0 km/h (0 Bft) SO 142 0 min 0,000 mm 0,0 UV-I 0 W/m 12,3 C 0,0 km/h (0 Bft)
23.08.2016 22:27 14,0 C 14,1 C 89 % 1025,4 hPa 0,0 mm 0,0 km/h (0 Bft) SO 142 0 min 0,000 mm 0,0 UV-I 0 W/m 12,2 C 0,0 km/h (0 Bft)
23.08.2016 22:28 14,0 C 14,1 C 89 % 1025,4 hPa 0,0 mm 0,0 km/h (0 Bft) SO 142 0 min 0,000 mm 0,0 UV-I 0 W/m 12,2 C 0,0 km/h (0 Bft)
23.08.2016 22:29 13,9 C 14,0 C 89 % 1025,4 hPa 0,0 mm 0,0 km/h (0 Bft) SO 142 0 min 0,000 mm 0,0 UV-I 0 W/m 12,1 C 0,0 km/h (0 Bft)
23.08.2016 22:30 13,9 C 13,9 C 89 % 1025,4 hPa 0,0 mm 0,0 km/h (0 Bft) SO 142 0 min 0,000 mm 0,0 UV-I 0 W/m 12,1 C 0,0 km/h (0 Bft)
23.08.2016 22:31 13,9 C 13,9 C 89 % 1025,4 hPa 0,0 mm 0,0 km/h (0 Bft) SO 142 0 min 0,000 mm 0,0 UV-I 0 W/m 12,1 C 0,0 km/h (0 Bft)
23.08.2016 22:32 13,8 C 13,9 C 89 % 1025,4 hPa 0,0 mm 0,0 km/h (0 Bft) SO 142 0 min 0,000 mm 0,0 UV-I 0 W/m 12,0 C 0,0 km/h (0 Bft)
23.08.2016 22:33 13,8 C 13,8 C 90 % 1025,4 hPa 0,0 mm 0,0 km/h (0 Bft) SO 142 0 min 0,000 mm 0,0 UV-I 0 W/m 12,2 C 0,0 km/h (0 Bft)
23.08.2016 22:34 13,7 C 13,8 C 90 % 1025,4 hPa 0,0 mm 0,0 km/h (0 Bft) SO 142 0 min 0,000 mm 0,0 UV-I 0 W/m 12,1 C 0,0 km/h (0 Bft)
23.08.2016 22:35 13,7 C 13,7 C 90 % 1025,4 hPa 0,0 mm 0,0 km/h (0 Bft) SO 142 0 min 0,000 mm 0,0 UV-I 0 W/m 12,1 C 0,0 km/h (0 Bft)
23.08.2016 22:36 13,7 C 13,7 C 90 % 1025,4 hPa 0,0 mm 0,0 km/h (0 Bft) SO 142 0 min 0,000 mm 0,0 UV-I 0 W/m 12,1 C 0,0 km/h (0 Bft)
23.08.2016 22:37 13,7 C 13,8 C 90 % 1025,4 hPa 0,0 mm 0,0 km/h (0 Bft) SO 142 0 min 0,000 mm 0,0 UV-I 0 W/m 12,1 C 0,0 km/h (0 Bft)
23.08.2016 22:38 13,8 C 13,8 C 90 % 1025,4 hPa 0,0 mm 0,0 km/h (0 Bft) SO 142 0 min 0,000 mm 0,0 UV-I 0 W/m 12,2 C 0,0 km/h (0 Bft)
23.08.2016 22:39 13,8 C 13,8 C 90 % 1025,4 hPa 0,0 mm 0,0 km/h (0 Bft) SO 142 0 min 0,000 mm 0,0 UV-I 0 W/m 12,2 C 0,0 km/h (0 Bft)
23.08.2016 22:40 13,9 C 13,9 C 90 % 1025,4 hPa 0,0 mm 0,0 km/h (0 Bft) SO 142 0 min 0,000 mm 0,0 UV-I 0 W/m 12,3 C 0,0 km/h (0 Bft)
23.08.2016 22:41 13,9 C 13,9 C 90 % 1025,4 hPa 0,0 mm 0,0 km/h (0 Bft) SO 142 0 min 0,000 mm 0,0 UV-I 0 W/m 12,3 C 0,0 km/h (0 Bft)
23.08.2016 22:42 13,9 C 13,9 C 90 % 1025,4 hPa 0,0 mm 0,0 km/h (0 Bft) SO 142 0 min 0,000 mm 0,0 UV-I 0 W/m 12,3 C 0,0 km/h (0 Bft)
23.08.2016 22:43 14,0 C 14,0 C 90 % 1025,4 hPa 0,0 mm 0,0 km/h (0 Bft) SO 142 0 min 0,000 mm 0,0 UV-I 0 W/m 12,4 C 0,0 km/h (0 Bft)
23.08.2016 22:44 13,9 C 14,0 C 89 % 1025,4 hPa 0,0 mm 0,0 km/h (0 Bft) SO 142 0 min 0,000 mm 0,0 UV-I 0 W/m 12,1 C 0,0 km/h (0 Bft)
23.08.2016 22:45 14,0 C 14,0 C 89 % 1025,4 hPa 0,0 mm 0,0 km/h (0 Bft) SO 142 0 min 0,000 mm 0,0 UV-I 0 W/m 12,2 C 0,0 km/h (0 Bft)
23.08.2016 22:46 13,9 C 14,0 C 89 % 1025,4 hPa 0,0 mm 0,1 km/h (0 Bft) SO 142 0 min 0,000 mm 0,0 UV-I 0 W/m 12,1 C 1,6 km/h (1 Bft)
23.08.2016 22:47 13,9 C 13,9 C 89 % 1025,4 hPa 0,0 mm 0,0 km/h (0 Bft) SO 142 0 min 0,000 mm 0,0 UV-I 0 W/m 12,1 C 0,0 km/h (0 Bft)
23.08.2016 22:48 13,9 C 13,9 C 89 % 1025,4 hPa 0,0 mm 0,8 km/h (0 Bft) SO 142 0 min 0,000 mm 0,0 UV-I 0 W/m 12,1 C 1,6 km/h (1 Bft)
23.08.2016 22:49 13,9 C 13,9 C 88 % 1025,4 hPa 0,0 mm 0,3 km/h (0 Bft) SO 142 0 min 0,000 mm 0,0 UV-I 0 W/m 11,9 C 1,6 km/h (1 Bft)
23.08.2016 22:50 13,9 C 13,9 C 89 % 1025,3 hPa 0,0 mm 0,0 km/h (0 Bft) SO 142 0 min 0,000 mm 0,0 UV-I 0 W/m 12,1 C 0,0 km/h (0 Bft)
23.08.2016 22:51 13,9 C 14,0 C 89 % 1025,3 hPa 0,0 mm 0,0 km/h (0 Bft) SO 142 0 min 0,000 mm 0,0 UV-I 0 W/m 12,1 C 0,0 km/h (0 Bft)
23.08.2016 22:52 13,9 C 13,9 C 89 % 1025,3 hPa 0,0 mm 0,0 km/h (0 Bft) SO 142 0 min 0,000 mm 0,0 UV-I 0 W/m 12,1 C 0,0 km/h (0 Bft)
23.08.2016 22:53 13,9 C 13,9 C 89 % 1025,3 hPa 0,0 mm 0,0 km/h (0 Bft) SO 142 0 min 0,000 mm 0,0 UV-I 0 W/m 12,1 C 0,0 km/h (0 Bft)
23.08.2016 22:54 13,9 C 13,9 C 89 % 1025,3 hPa 0,0 mm 0,0 km/h (0 Bft) SO 142 0 min 0,000 mm 0,0 UV-I 0 W/m 12,1 C 0,0 km/h (0 Bft)
23.08.2016 22:55 13,8 C 13,9 C 89 % 1025,2 hPa 0,0 mm 0,0 km/h (0 Bft) SO 142 0 min 0,000 mm 0,0 UV-I 0 W/m 12,0 C 0,0 km/h (0 Bft)
23.08.2016 22:56 13,8 C 13,8 C 89 % 1025,2 hPa 0,0 mm 0,0 km/h (0 Bft) SO 142 0 min 0,000 mm 0,0 UV-I 0 W/m 12,0 C 0,0 km/h (0 Bft)
23.08.2016 22:57 13,7 C 13,8 C 89 % 1025,2 hPa 0,0 mm 0,0 km/h (0 Bft) SO 142 0 min 0,000 mm 0,0 UV-I 0 W/m 11,9 C 0,0 km/h (0 Bft)
23.08.2016 22:58 13,7 C 13,7 C 89 % 1025,3 hPa 0,0 mm 0,0 km/h (0 Bft) SO 142 0 min 0,000 mm 0,0 UV-I 0 W/m 11,9 C 0,0 km/h (0 Bft)
23.08.2016 22:59 13,6 C 13,7 C 89 % 1025,2 hPa 0,0 mm 0,0 km/h (0 Bft) SO 142 0 min 0,000 mm 0,0 UV-I 0 W/m 11,8 C 0,0 km/h (0 Bft)
23.08.2016 23:00 13,6 C 13,6 C 89 % 1025,2 hPa 0,0 mm 0,0 km/h (0 Bft) SO 142 0 min 0,000 mm 0,0 UV-I 0 W/m 11,8 C 0,0 km/h (0 Bft)
23.08.2016 23:01 13,6 C 13,6 C 90 % 1025,2 hPa 0,0 mm 0,0 km/h (0 Bft) SO 142 0 min 0,000 mm 0,0 UV-I 0 W/m 12,0 C 0,0 km/h (0 Bft)
23.08.2016 23:02 13,5 C 13,6 C 90 % 1025,2 hPa 0,0 mm 0,0 km/h (0 Bft) SO 142 0 min 0,000 mm 0,0 UV-I 0 W/m 11,9 C 0,0 km/h (0 Bft)
23.08.2016 23:03 13,5 C 13,5 C 90 % 1025,2 hPa 0,0 mm 0,0 km/h (0 Bft) SO 142 0 min 0,000 mm 0,0 UV-I 0 W/m 11,9 C 0,0 km/h (0 Bft)
23.08.2016 23:04 13,4 C 13,5 C 90 % 1025,2 hPa 0,0 mm 0,0 km/h (0 Bft) SO 142 0 min 0,000 mm 0,0 UV-I 0 W/m 11,8 C 0,0 km/h (0 Bft)
23.08.2016 23:05 13,4 C 13,4 C 90 % 1025,2 hPa 0,0 mm 0,0 km/h (0 Bft) SO 142 0 min 0,000 mm 0,0 UV-I 0 W/m 11,8 C 0,0 km/h (0 Bft)
23.08.2016 23:06 13,4 C 13,4 C 90 % 1025,2 hPa 0,0 mm 0,0 km/h (0 Bft) SO 142 0 min 0,000 mm 0,0 UV-I 0 W/m 11,8 C 0,0 km/h (0 Bft)
23.08.2016 23:07 13,3 C 13,4 C 90 % 1025,2 hPa 0,0 mm 0,0 km/h (0 Bft) SO 142 0 min 0,000 mm 0,0 UV-I 0 W/m 11,7 C 0,0 km/h (0 Bft)
23.08.2016 23:08 13,3 C 13,3 C 91 % 1025,2 hPa 0,0 mm 0,0 km/h (0 Bft) SO 142 0 min 0,000 mm 0,0 UV-I 0 W/m 11,9 C 0,0 km/h (0 Bft)
23.08.2016 23:09 13,3 C 13,3 C 91 % 1025,2 hPa 0,0 mm 0,0 km/h (0 Bft) SO 142 0 min 0,000 mm 0,0 UV-I 0 W/m 11,9 C 0,0 km/h (0 Bft)
23.08.2016 23:10 13,3 C 13,3 C 91 % 1025,1 hPa 0,0 mm 0,0 km/h (0 Bft) SO 142 0 min 0,000 mm 0,0 UV-I 0 W/m 11,9 C 0,0 km/h (0 Bft)
23.08.2016 23:11 13,2 C 13,3 C 91 % 1025,2 hPa 0,0 mm 0,0 km/h (0 Bft) SO 142 0 min 0,000 mm 0,0 UV-I 0 W/m 11,8 C 0,0 km/h (0 Bft)
23.08.2016 23:12 13,3 C 13,3 C 91 % 1025,1 hPa 0,0 mm 0,0 km/h (0 Bft) SO 142 0 min 0,000 mm 0,0 UV-I 0 W/m 11,9 C 0,0 km/h (0 Bft)
23.08.2016 23:13 13,3 C 13,3 C 91 % 1025,1 hPa 0,0 mm 0,0 km/h (0 Bft) SO 142 0 min 0,000 mm 0,0 UV-I 0 W/m 11,9 C 0,0 km/h (0 Bft)
23.08.2016 23:14 13,2 C 13,3 C 90 % 1025,1 hPa 0,0 mm 0,0 km/h (0 Bft) SO 142 0 min 0,000 mm 0,0 UV-I 0 W/m 11,6 C 0,0 km/h (0 Bft)
23.08.2016 23:15 13,2 C 13,2 C 91 % 1025,2 hPa 0,0 mm 0,0 km/h (0 Bft) SO 142 0 min 0,000 mm 0,0 UV-I 0 W/m 11,8 C 0,0 km/h (0 Bft)
23.08.2016 23:16 13,2 C 13,2 C 91 % 1025,2 hPa 0,0 mm 0,0 km/h (0 Bft) SO 142 0 min 0,000 mm 0,0 UV-I 0 W/m 11,8 C 0,0 km/h (0 Bft)
23.08.2016 23:17 13,1 C 13,2 C 91 % 1025,2 hPa 0,0 mm 0,0 km/h (0 Bft) SO 142 0 min 0,000 mm 0,0 UV-I 0 W/m 11,7 C 0,0 km/h (0 Bft)
23.08.2016 23:18 13,1 C 13,1 C 91 % 1025,1 hPa 0,0 mm 0,0 km/h (0 Bft) SO 142 0 min 0,000 mm 0,0 UV-I 0 W/m 11,7 C 0,0 km/h (0 Bft)
23.08.2016 23:19 13,1 C 13,2 C 92 % 1025,1 hPa 0,0 mm 0,0 km/h (0 Bft) SO 142 0 min 0,000 mm 0,0 UV-I 0 W/m 11,8 C 0,0 km/h (0 Bft)
23.08.2016 23:20 13,1 C 13,2 C 91 % 1025,1 hPa 0,0 mm 0,0 km/h (0 Bft) SO 142 0 min 0,000 mm 0,0 UV-I 0 W/m 11,7 C 0,0 km/h (0 Bft)
23.08.2016 23:21 13,1 C 13,1 C 92 % 1025,2 hPa 0,0 mm 0,0 km/h (0 Bft) SO 142 0 min 0,000 mm 0,0 UV-I 0 W/m 11,8 C 0,0 km/h (0 Bft)
23.08.2016 23:22 13,2 C 13,2 C 92 % 1025,1 hPa 0,0 mm 0,0 km/h (0 Bft) SO 142 0 min 0,000 mm 0,0 UV-I 0 W/m 11,9 C 0,0 km/h (0 Bft)
23.08.2016 23:23 13,2 C 13,2 C 92 % 1025,1 hPa 0,0 mm 0,0 km/h (0 Bft) SO 142 0 min 0,000 mm 0,0 UV-I 0 W/m 11,9 C 0,0 km/h (0 Bft)
23.08.2016 23:24 13,2 C 13,2 C 92 % 1025,1 hPa 0,0 mm 0,0 km/h (0 Bft) SO 142 0 min 0,000 mm 0,0 UV-I 0 W/m 11,9 C 0,0 km/h (0 Bft)
23.08.2016 23:25 13,2 C 13,2 C 91 % 1025,1 hPa 0,0 mm 0,0 km/h (0 Bft) SO 142 0 min 0,000 mm 0,0 UV-I 0 W/m 11,8 C 0,0 km/h (0 Bft)
23.08.2016 23:26 13,2 C 13,2 C 92 % 1025,1 hPa 0,0 mm 0,0 km/h (0 Bft) SO 142 0 min 0,000 mm 0,0 UV-I 0 W/m 11,9 C 0,0 km/h (0 Bft)
23.08.2016 23:27 13,2 C 13,2 C 92 % 1025,1 hPa 0,0 mm 0,0 km/h (0 Bft) SO 142 0 min 0,000 mm 0,0 UV-I 0 W/m 11,9 C 0,0 km/h (0 Bft)
23.08.2016 23:28 13,2 C 13,2 C 91 % 1025,2 hPa 0,0 mm 0,0 km/h (0 Bft) SO 142 0 min 0,000 mm 0,0 UV-I 0 W/m 11,8 C 0,0 km/h (0 Bft)
23.08.2016 23:29 13,2 C 13,2 C 90 % 1025,1 hPa 0,0 mm 0,0 km/h (0 Bft) SO 142 0 min 0,000 mm 0,0 UV-I 0 W/m 11,6 C 0,0 km/h (0 Bft)
23.08.2016 23:30 13,1 C 13,2 C 91 % 1025,1 hPa 0,0 mm 0,0 km/h (0 Bft) SO 142 0 min 0,000 mm 0,0 UV-I 0 W/m 11,7 C 0,0 km/h (0 Bft)
23.08.2016 23:31 13,0 C 13,1 C 91 % 1025,1 hPa 0,0 mm 0,0 km/h (0 Bft) SO 142 0 min 0,000 mm 0,0 UV-I 0 W/m 11,6 C 0,0 km/h (0 Bft)
23.08.2016 23:32 12,9 C 13,0 C 91 % 1025,2 hPa 0,0 mm 0,0 km/h (0 Bft) SO 142 0 min 0,000 mm 0,0 UV-I 0 W/m 11,5 C 0,0 km/h (0 Bft)
23.08.2016 23:33 12,9 C 12,9 C 91 % 1025,1 hPa 0,0 mm 0,0 km/h (0 Bft) SO 142 0 min 0,000 mm 0,0 UV-I 0 W/m 11,5 C 0,0 km/h (0 Bft)
23.08.2016 23:34 12,9 C 12,9 C 91 % 1025,2 hPa 0,0 mm 0,0 km/h (0 Bft) SO 142 0 min 0,000 mm 0,0 UV-I 0 W/m 11,5 C 0,0 km/h (0 Bft)
23.08.2016 23:35 12,8 C 12,9 C 92 % 1025,1 hPa 0,0 mm 0,0 km/h (0 Bft) SO 142 0 min 0,000 mm 0,0 UV-I 0 W/m 11,5 C 0,0 km/h (0 Bft)
23.08.2016 23:36 12,8 C 12,9 C 92 % 1025,1 hPa 0,0 mm 0,0 km/h (0 Bft) SO 142 0 min 0,000 mm 0,0 UV-I 0 W/m 11,5 C 0,0 km/h (0 Bft)
23.08.2016 23:37 12,8 C 12,8 C 92 % 1025,1 hPa 0,0 mm 0,0 km/h (0 Bft) SO 142 0 min 0,000 mm 0,0 UV-I 0 W/m 11,5 C 0,0 km/h (0 Bft)
23.08.2016 23:38 12,8 C 12,8 C 92 % 1025,1 hPa 0,0 mm 0,0 km/h (0 Bft) SO 142 0 min 0,000 mm 0,0 UV-I 0 W/m 11,5 C 0,0 km/h (0 Bft)
23.08.2016 23:39 12,8 C 12,8 C 92 % 1025,1 hPa 0,0 mm 0,0 km/h (0 Bft) SO 142 0 min 0,000 mm 0,0 UV-I 0 W/m 11,5 C 0,0 km/h (0 Bft)
23.08.2016 23:40 12,8 C 12,8 C 92 % 1025,1 hPa 0,0 mm 0,0 km/h (0 Bft) SO 142 0 min 0,000 mm 0,0 UV-I 0 W/m 11,5 C 0,0 km/h (0 Bft)
23.08.2016 23:41 12,7 C 12,8 C 92 % 1025,1 hPa 0,0 mm 0,0 km/h (0 Bft) SO 142 0 min 0,000 mm 0,0 UV-I 0 W/m 11,4 C 0,0 km/h (0 Bft)
23.08.2016 23:42 12,8 C 12,8 C 93 % 1025,1 hPa 0,0 mm 0,0 km/h (0 Bft) SO 142 0 min 0,000 mm 0,0 UV-I 0 W/m 11,7 C 0,0 km/h (0 Bft)
23.08.2016 23:43 12,8 C 12,8 C 93 % 1025,1 hPa 0,0 mm 0,0 km/h (0 Bft) SO 142 0 min 0,000 mm 0,0 UV-I 0 W/m 11,7 C 0,0 km/h (0 Bft)
23.08.2016 23:44 12,8 C 12,8 C 93 % 1025,1 hPa 0,0 mm 0,0 km/h (0 Bft) SO 142 0 min 0,000 mm 0,0 UV-I 0 W/m 11,7 C 0,0 km/h (0 Bft)
23.08.2016 23:45 13,0 C 13,0 C 93 % 1025,0 hPa 0,0 mm 0,0 km/h (0 Bft) SO 142 0 min 0,000 mm 0,0 UV-I 0 W/m 11,9 C 0,0 km/h (0 Bft)
23.08.2016 23:46 13,2 C 13,2 C 94 % 1025,1 hPa 0,0 mm 0,0 km/h (0 Bft) SO 142 0 min 0,000 mm 0,0 UV-I 0 W/m 12,3 C 0,0 km/h (0 Bft)
23.08.2016 23:47 13,3 C 13,3 C 94 % 1025,0 hPa 0,0 mm 0,0 km/h (0 Bft) SO 142 0 min 0,000 mm 0,0 UV-I 0 W/m 12,4 C 0,0 km/h (0 Bft)
23.08.2016 23:48 13,4 C 13,4 C 92 % 1025,1 hPa 0,0 mm 0,0 km/h (0 Bft) SO 142 0 min 0,000 mm 0,0 UV-I 0 W/m 12,1 C 0,0 km/h (0 Bft)
23.08.2016 23:49 13,4 C 13,4 C 91 % 1025,1 hPa 0,0 mm 0,0 km/h (0 Bft) SO 142 0 min 0,000 mm 0,0 UV-I 0 W/m 12,0 C 0,0 km/h (0 Bft)
23.08.2016 23:50 13,3 C 13,4 C 90 % 1025,0 hPa 0,0 mm 0,0 km/h (0 Bft) SO 142 0 min 0,000 mm 0,0 UV-I 0 W/m 11,7 C 0,0 km/h (0 Bft)
23.08.2016 23:51 13,2 C 13,3 C 90 % 1025,1 hPa 0,0 mm 0,0 km/h (0 Bft) SO 142 0 min 0,000 mm 0,0 UV-I 0 W/m 11,6 C 0,0 km/h (0 Bft)
23.08.2016 23:52 13,1 C 13,2 C 91 % 1025,0 hPa 0,0 mm 0,0 km/h (0 Bft) SO 142 0 min 0,000 mm 0,0 UV-I 0 W/m 11,7 C 0,0 km/h (0 Bft)
23.08.2016 23:53 12,9 C 13,1 C 91 % 1025,0 hPa 0,0 mm 0,0 km/h (0 Bft) SO 142 0 min 0,000 mm 0,0 UV-I 0 W/m 11,5 C 0,0 km/h (0 Bft)
23.08.2016 23:54 12,9 C 12,9 C 91 % 1025,0 hPa 0,0 mm 0,0 km/h (0 Bft) SO 142 0 min 0,000 mm 0,0 UV-I 0 W/m 11,5 C 0,0 km/h (0 Bft)
23.08.2016 23:55 12,8 C 12,9 C 91 % 1025,0 hPa 0,0 mm 0,0 km/h (0 Bft) SO 142 0 min 0,000 mm 0,0 UV-I 0 W/m 11,4 C 0,0 km/h (0 Bft)
23.08.2016 23:56 12,8 C 12,8 C 91 % 1025,0 hPa 0,0 mm 0,0 km/h (0 Bft) SO 142 0 min 0,000 mm 0,0 UV-I 0 W/m 11,4 C 0,0 km/h (0 Bft)
23.08.2016 23:57 12,7 C 12,8 C 92 % 1025,0 hPa 0,0 mm 0,0 km/h (0 Bft) SO 142 0 min 0,000 mm 0,0 UV-I 0 W/m 11,4 C 0,0 km/h (0 Bft)
23.08.2016 23:58 12,8 C 12,8 C 92 % 1025,0 hPa 0,0 mm 0,0 km/h (0 Bft) SO 142 0 min 0,000 mm 0,0 UV-I 0 W/m 11,5 C 0,0 km/h (0 Bft)
23.08.2016 23:59 12,8 C 12,8 C 92 % 1025,0 hPa 0,0 mm 0,0 km/h (0 Bft) SO 142 0 min 0,000 mm 0,0 UV-I 0 W/m 11,5 C 0,0 km/h (0 Bft)
_ Min-Zeit 06:41 06:48 14:49 19:09 - 23:59 - - - - - - 05:23 23:59
Minimum _ 7,9 C 8,0 C 55 % 1024,7 hPa - 0,0 km/h (0 Bft) - - - - - - 7,2 C 0,0 km/h (0 Bft)
_ Max-Zeit 15:47 15:47 07:00 08:18 23:59 14:26 - - 14:54 14:01 13:39 13:34 15:41 16:07
Maximum _ 23,0 C 23,0 C 96 % 1028,7 hPa 0,0 mm 11,9 km/h
N (2 Bft)
- - 2 min 0,508 mm 6,5 UV-I 800 W/m 15,7 C 17,7 km/h
O-NO (3 Bft)
Durchschnitt _ 15,6 C 15,6 C 78 % 1027,0 hPa #0,0 mm 2,3 km/h (1 Bft) NO - #8:33 h #3,429 mm 4,4 UV-I 228 W/m 11,5 C 3,9 km/h (1 Bft)